GFSSW_sfc_30mbdewp_000.txt.gz
Dewpoint
55 54 53 53 52 52 52 52 52 52 52 53 54 53 54 54 54 51 36 31 33 37 35 30 29 28 26 21 13 12 10 16 14 14 12 11 7 10 11 24 23 31 32 43 48
54 53 53 52 53 52 52 51 52 52 53 53 53 53 53 54 50 38 36 37 41 44 32 27 26 24 20 15 11 9 8 6 4 4 5 4 5 4 9 19 19 25 38 48 49
54 54 53 53 53 52 52 52 52 52 53 53 53 53 53 54 43 30 39 33 42 49 34 30 23 17 14 12 9 7 5 3 2 4 2 2 3 2 8 11 13 21 26 46 48
53 53 53 53 53 52 52 52 52 52 52 52 52 53 54 52 26 25 35 35 39 39 35 24 17 14 11 8 8 6 5 4 3 2 1 -2 1 0 4 8 13 21 26 43 43
53 54 54 52 52 52 52 52 52 52 52 52 52 53 52 40 26 26 27 36 38 36 27 19 17 14 9 8 6 7 4 5 4 4 7 11 7 9 6 10 13 19 31 40 43
54 54 54 53 52 52 52 52 51 51 51 51 52 53 48 31 23 23 23 23 21 23 15 15 14 12 6 4 4 6 6 6 8 13 12 10 10 15 14 11 11 18 28 36 41
54 55 54 53 52 52 52 51 51 50 51 51 52 51 41 30 21 20 21 21 21 22 19 18 18 11 11 11 13 10 10 13 15 17 16 14 15 13 16 15 13 14 20 28 36
55 54 54 54 52 52 51 51 51 51 51 51 51 50 34 25 24 20 18 17 18 22 21 19 19 20 19 14 10 10 12 12 15 16 19 17 15 14 17 16 16 16 16 19 30
54 54 54 54 53 52 52 52 52 52 52 51 51 49 29 23 21 21 19 18 19 23 21 20 21 14 15 10 11 13 10 12 17 16 18 16 16 16 18 20 19 18 19 18 21
53 53 54 54 54 54 53 53 53 52 52 49 45 38 21 19 20 19 20 23 21 22 20 20 18 14 13 13 11 11 8 6 5 16 12 10 12 18 20 20 20 19 18 21 21
53 53 53 53 53 53 52 49 40 36 37 25 19 20 15 14 20 19 20 21 24 21 20 16 16 19 19 17 14 10 7 6 14 18 15 12 16 18 21 20 22 21 23 24 36
52 53 51 53 53 53 52 44 40 34 25 23 23 21 22 22 17 16 21 21 19 17 17 9 17 19 17 16 14 12 11 11 15 17 15 17 14 19 22 24 24 24 28 35 37
51 52 52 51 53 53 49 45 46 46 23 23 23 21 24 24 22 21 25 17 16 15 9 21 20 19 18 19 18 16 15 22 20 20 18 16 17 19 22 24 26 28 29 32 33
50 51 52 52 51 45 42 45 49 49 21 15 20 22 23 23 23 24 25 23 15 12 17 21 21 22 21 22 23 18 25 23 20 18 14 15 12 19 21 24 27 29 30 30 30
50 51 51 51 52 39 45 48 50 48 23 20 20 26 21 25 24 24 26 23 17 19 22 22 24 24 24 24 24 24 26 23 21 19 17 16 17 22 21 22 26 29 30 32 34
50 51 51 50 55 47 50 52 47 39 26 19 22 22 22 23 24 25 24 27 29 22 24 24 25 27 27 26 25 27 26 24 24 22 21 17 20 26 23 24 27 30 32 33 34
50 49 50 52 47 53 55 46 32 30 22 20 21 23 22 23 24 25 25 26 25 22 22 24 25 28 26 27 28 24 24 22 23 21 21 24 18 26 26 28 28 30 32 35 36
52 53 55 53 53 58 50 35 28 20 18 18 21 23 22 24 25 25 25 24 26 29 21 21 25 26 26 26 24 25 23 26 21 22 21 19 13 24 28 29 29 30 31 33 35
53 57 50 58 59 55 42 38 31 19 20 19 21 21 23 24 25 26 25 24 25 28 24 23 24 27 26 27 25 26 24 22 26 29 24 14 24 27 27 27 28 28 30 31 33
45 42 42 57 58 52 41 37 27 24 19 20 18 22 21 21 23 24 25 28 26 27 24 23 25 23 23 28 29 26 24 23 24 20 16 14 17 26 26 26 26 26 27 29 32
50 34 53 54 55 37 39 34 26 25 28 20 22 21 23 22 23 25 26 28 30 28 27 25 27 23 25 26 25 26 25 24 20 22 20 18 16 22 24 25 26 27 29 30 32
44 34 52 54 32 33 36 29 28 29 31 31 28 26 26 26 26 27 28 31 32 30 28 27 27 25 21 25 27 25 25 22 24 22 28 27 23 25 26 30 30 30 32 33 35
38 43 50 49 37 43 34 31 29 27 27 28 30 31 31 30 29 29 34 35 35 35 34 31 30 26 23 29 28 23 25 23 30 28 23 25 25 28 33 31 29 28 32 35 35
41 36 35 39 43 35 33 31 32 33 32 32 31 31 31 31 31 31 34 36 35 35 33 36 26 24 21 18 19 18 19 20 20 26 25 26 23 25 29 30 29 29 33 34 34
42 36 31 35 38 33 31 29 30 31 31 32 30 30 31 30 30 30 33 33 33 32 34 32 29 29 27 23 20 19 19 20 19 21 20 23 22 23 28 29 34 35 35 36 37
40 38 39 37 35 33 33 30 28 28 31 28 29 30 30 33 28 28 27 26 29 33 32 34 37 33 28 23 22 22 21 20 19 19 20 22 23 27 33 34 35 35 36 37 36
43 45 40 39 35 34 37 32 29 33 35 29 30 31 34 33 35 35 35 33 31 33 36 38 37 32 28 31 31 29 29 23 22 22 23 24 26 32 34 34 34 36 37 36 34

GFSSW_sfc_30mbdewp_003.txt.gz
Dewpoint
53 54 55 55 53 52 52 52 52 52 52 53 53 54 53 53 53 53 39 37 40 38 34 30 32 34 32 27 26 19 12 10 14 23 13 14 10 6 20 22 33 36 44 48 46
53 53 53 53 52 52 52 52 52 52 53 53 54 53 52 53 52 43 42 35 40 39 30 28 27 28 26 23 22 13 10 8 6 10 7 8 5 5 16 20 32 44 46 46 45
53 53 53 53 53 52 52 52 52 52 53 53 53 52 52 53 49 34 41 36 44 44 32 30 30 27 23 21 17 10 5 2 2 4 5 4 5 8 16 17 22 44 45 46 46
52 52 52 53 53 52 52 52 52 52 52 52 52 52 53 53 32 27 34 39 44 44 37 32 31 19 15 15 10 5 5 3 2 4 2 2 1 1 6 12 18 37 47 47 46
52 52 52 53 53 52 52 52 51 52 51 51 51 52 52 46 34 28 39 39 42 36 34 32 28 19 13 14 8 5 5 4 3 5 11 8 3 4 5 12 17 27 46 47 46
52 52 54 54 54 52 52 52 51 51 50 51 51 52 48 31 30 25 25 39 31 35 33 32 21 18 12 8 6 8 5 3 3 8 12 9 9 13 13 11 13 26 42 43 44
52 53 54 54 53 52 52 52 51 51 50 51 51 51 47 37 29 23 23 21 20 22 21 19 20 18 12 13 12 9 6 7 9 16 14 15 15 13 14 10 10 17 31 40 44
54 55 55 54 52 52 52 51 51 50 50 51 51 51 34 33 23 19 20 18 18 22 22 22 21 19 19 11 9 9 12 11 15 18 17 14 13 15 17 16 13 16 18 20 41
54 54 54 54 53 52 51 51 51 51 51 51 50 51 36 23 18 21 19 19 20 23 19 19 21 18 14 9 9 11 9 14 14 18 20 18 16 16 17 17 17 18 15 17 24
54 53 53 54 53 53 52 52 53 52 52 51 49 41 41 21 21 19 21 20 23 23 21 19 20 17 16 16 12 13 12 16 17 16 13 11 15 19 20 21 21 21 31 35 42
53 53 53 53 54 53 52 49 42 38 47 33 31 32 15 15 18 19 20 19 24 22 21 22 21 19 17 16 14 13 12 16 18 17 16 14 19 23 25 25 29 39 40 40 41
53 53 52 53 53 53 51 50 44 45 30 35 22 20 22 20 19 19 22 22 21 20 21 16 19 19 19 19 18 12 18 21 18 17 14 14 19 24 27 29 32 36 36 38 41
52 53 52 53 53 51 48 47 49 49 28 24 23 22 24 25 23 20 25 25 19 18 22 21 19 19 19 24 22 22 22 21 20 20 18 18 20 23 26 28 30 31 34 36 39
52 52 52 53 48 52 48 48 51 53 23 18 21 21 23 24 22 23 23 24 18 22 23 21 22 24 23 24 24 25 27 24 21 20 16 17 17 22 26 29 30 32 34 36 39
52 52 51 52 48 49 48 51 50 48 22 19 23 25 22 24 24 23 26 28 23 17 24 23 25 27 25 24 25 26 26 24 23 21 20 18 20 22 27 28 29 30 32 35 38
51 52 51 50 51 54 55 56 41 36 26 19 21 25 20 23 25 24 23 28 29 25 25 24 28 27 26 27 25 25 27 27 26 25 21 23 24 28 31 28 31 33 34 35 36
52 52 50 53 52 57 58 44 31 30 25 19 21 23 23 23 24 26 27 27 28 23 23 25 27 28 27 27 28 28 26 25 23 23 22 27 24 31 30 30 32 34 36 37 37
54 52 56 60 60 58 53 39 29 25 20 20 22 24 23 24 25 26 26 25 26 30 28 24 25 26 27 26 24 27 26 22 22 20 21 17 23 27 28 30 30 31 33 36 36
54 56 57 57 60 56 46 37 34 22 20 20 22 23 23 25 27 27 25 24 26 27 25 28 25 28 25 26 27 28 21 22 25 30 23 23 26 27 28 28 29 28 29 35 36
52 51 51 57 59 50 43 40 32 24 21 21 19 22 21 22 24 26 27 29 28 28 26 24 24 23 23 28 29 24 24 24 22 19 16 19 26 28 30 31 27 27 30 32 35
51 39 53 58 51 41 38 38 25 29 32 25 24 20 25 22 24 26 28 30 31 29 27 31 31 23 25 26 27 26 27 25 24 23 19 20 20 29 29 29 29 31 34 35 35
50 39 54 55 27 38 36 38 27 28 31 31 31 27 26 26 28 30 32 31 34 35 27 27 28 23 24 26 27 26 26 27 22 27 29 27 20 31 30 30 30 33 34 35 35
44 47 53 55 27 35 39 30 29 28 28 28 30 31 31 31 30 34 35 37 37 34 33 31 27 24 27 30 29 24 25 30 31 26 20 23 23 31 33 32 32 34 34 35 37
48 34 44 46 46 42 35 31 32 34 32 32 32 31 33 31 33 34 35 37 35 31 33 37 29 23 22 22 22 19 21 24 29 27 25 25 24 26 34 34 35 36 36 37 37
47 37 33 28 32 38 37 33 32 31 32 33 30 31 32 31 32 34 35 35 35 31 34 34 32 29 24 24 24 22 21 22 21 22 22 21 26 33 34 34 36 37 38 37 36
45 42 37 31 31 36 36 31 32 31 32 31 29 32 33 32 32 33 33 33 34 34 35 39 33 29 25 30 26 24 25 24 23 21 21 23 30 34 35 35 36 37 37 35 34
48 47 45 44 33 36 34 32 33 33 32 34 34 36 35 38 39 39 36 36 38 35 38 36 32 31 26 31 32 26 26 28 25 25 24 23 32 35 35 35 37 35 34 34 34

GFSSW_sfc_30mbdewp_006.txt.gz
Dewpoint
52 52 53 53 54 54 52 51 51 51 51 52 52 52 52 52 53 52 37 32 39 40 33 31 33 33 34 30 26 20 16 12 12 20 19 12 19 17 26 36 38 40 45 44 45
52 53 53 53 53 52 51 52 51 53 51 53 53 52 52 52 51 44 42 40 46 43 30 28 25 29 29 26 25 20 12 10 11 17 13 9 11 15 26 38 44 46 46 44 42
53 53 53 53 52 52 52 52 52 52 51 53 52 51 52 52 47 33 41 42 44 41 30 29 27 27 26 24 20 12 6 2 6 12 7 5 5 12 24 35 45 45 44 42 40
52 52 52 52 52 52 52 51 51 51 51 51 51 51 52 52 28 30 36 44 47 44 35 30 29 28 26 24 19 7 5 1 4 4 4 4 5 10 18 21 45 46 44 43 41
52 51 51 52 52 53 51 51 51 51 51 50 50 51 51 45 33 30 36 50 49 41 34 30 29 26 20 15 9 4 2 2 6 12 7 2 0 3 12 22 45 46 45 45 43
51 51 52 52 54 54 51 51 51 50 50 50 50 51 47 29 33 29 34 43 35 33 32 33 27 23 19 16 7 6 3 1 4 11 12 6 9 12 11 26 45 46 46 46 46
52 52 52 52 54 54 51 51 51 50 50 50 50 51 48 33 36 33 25 26 31 32 29 24 30 20 18 10 10 6 3 5 3 13 11 15 15 10 13 22 44 46 46 46 46
52 53 54 55 53 51 51 51 50 50 50 50 50 50 31 35 35 24 19 19 21 25 21 20 22 19 13 11 11 9 9 6 12 16 16 13 10 15 12 13 28 41 44 44 45
53 54 54 54 53 51 51 50 50 50 50 50 49 50 26 38 20 19 20 18 22 22 23 18 22 17 14 7 8 13 7 12 13 17 17 15 15 16 14 11 12 19 31 35 40
53 53 53 54 53 53 51 50 52 51 51 51 49 41 38 30 20 19 20 20 23 24 22 19 22 17 19 13 4 8 12 13 13 15 19 16 16 18 20 29 35 39 42 44 43
53 53 53 53 53 53 51 49 41 39 47 26 29 35 30 28 19 18 19 19 24 23 20 24 19 16 16 17 16 14 16 16 17 16 14 20 23 26 36 39 39 41 44 43 42
53 53 53 53 53 53 51 47 45 45 32 36 37 35 29 19 20 19 23 22 21 20 22 20 18 19 20 24 22 20 18 18 18 19 14 23 25 30 35 37 38 40 42 42 42
52 52 52 53 53 50 44 42 49 48 35 24 26 23 23 25 20 20 25 25 21 19 21 20 19 20 24 23 23 26 21 21 19 20 19 24 24 29 31 33 34 36 40 42 42
52 52 51 53 47 50 42 42 48 48 21 17 20 18 23 25 21 23 23 24 23 22 22 21 26 26 25 23 25 24 27 24 21 17 8 18 20 25 30 32 35 38 40 41 42
52 52 52 52 46 50 48 54 53 46 15 18 23 25 23 24 24 22 26 28 22 18 24 25 26 26 24 24 25 25 26 24 23 21 22 20 21 25 29 30 32 36 39 40 41
52 52 52 51 50 50 57 55 40 31 18 21 23 20 18 23 24 23 24 30 29 25 25 25 28 26 26 27 26 25 27 29 28 26 20 25 24 26 28 29 32 35 37 38 39
52 53 50 53 51 56 57 38 26 27 28 18 21 23 22 23 25 26 27 26 26 23 23 26 27 27 28 27 27 27 29 23 22 22 20 28 27 29 31 32 34 35 36 37 39
54 53 51 53 60 57 46 30 26 27 22 21 23 24 22 25 27 28 26 24 26 29 26 24 24 25 25 25 25 26 26 22 21 18 19 25 25 27 32 35 36 36 36 37 37
54 52 57 55 59 51 41 34 32 27 22 21 24 24 24 25 26 25 25 24 26 28 25 25 24 28 24 26 28 27 22 25 25 28 21 25 26 28 29 30 31 31 33 36 37
49 50 47 56 55 44 40 38 35 29 26 22 21 24 22 22 25 27 27 30 29 27 28 27 21 24 23 30 29 21 25 24 22 16 15 23 25 25 29 28 29 32 34 36 37
51 33 42 58 42 35 35 38 33 29 32 22 23 21 23 22 25 27 29 31 33 31 29 32 24 24 29 26 25 26 25 26 25 23 16 19 21 29 31 31 32 34 35 36 37
48 32 53 42 21 38 35 37 30 27 31 31 32 30 25 29 32 32 32 33 37 36 24 30 26 23 24 26 27 26 27 26 18 25 28 25 23 30 30 32 34 35 35 36 37
43 47 53 42 18 27 37 34 29 28 28 29 30 32 32 31 31 35 35 37 32 33 32 31 24 22 27 30 28 25 26 31 28 24 21 17 16 32 33 32 34 35 37 37 37
46 36 41 46 41 34 31 31 31 34 32 32 31 33 32 32 36 34 35 36 31 30 34 36 31 23 18 22 23 19 21 30 26 22 22 22 20 32 34 35 36 37 37 36 35
47 33 31 24 32 41 39 32 31 30 32 32 30 32 31 31 34 35 35 34 34 32 34 34 27 29 25 27 26 23 23 23 24 26 23 22 26 34 34 35 37 37 36 34 34
43 40 38 26 28 36 38 34 32 32 31 31 29 34 33 32 32 33 32 33 32 34 37 37 29 28 23 31 30 22 22 24 23 22 23 31 32 35 35 37 37 35 34 34 33
47 48 34 42 29 33 34 33 33 33 33 34 36 35 33 36 38 37 39 38 36 34 36 33 28 24 15 30 29 20 25 27 26 30 25 24 33 35 36 36 35 34 33 32 31

GFSSW_sfc_30mbdewp_009.txt.gz
Dewpoint
52 52 52 53 52 52 53 53 51 51 51 51 51 51 52 52 52 52 41 33 39 40 34 32 29 32 34 31 27 20 17 13 15 22 31 33 18 21 36 45 42 43 46 56 60
53 53 53 53 53 52 52 51 51 51 51 51 51 51 51 51 51 46 43 42 43 46 29 28 27 31 30 28 25 22 17 13 12 23 25 16 26 35 41 43 45 44 45 55 57
53 53 53 53 52 52 52 52 51 51 51 50 51 51 51 51 47 31 40 45 45 47 30 29 27 27 27 25 21 18 15 5 5 20 16 15 17 19 40 41 44 43 45 51 55
52 52 52 52 52 52 52 51 51 51 51 50 50 50 51 51 25 33 40 50 52 39 32 29 27 27 27 25 23 16 10 6 6 12 6 5 8 26 22 39 46 44 44 46 48
51 51 51 51 52 52 52 51 51 50 50 50 50 50 51 45 32 33 49 56 46 37 30 28 28 26 21 17 21 12 4 5 7 6 5 3 5 11 14 31 46 43 41 43 44
51 51 51 51 51 52 52 51 50 50 50 49 50 50 46 27 31 33 43 43 39 36 33 31 24 28 23 17 8 6 3 4 10 11 5 2 9 12 15 46 45 42 40 40 40
51 51 51 51 51 52 52 51 50 50 49 49 50 50 47 27 35 38 33 34 35 32 28 33 32 27 19 16 10 5 1 4 5 11 10 14 12 10 19 45 45 43 43 43 42
51 51 51 52 52 52 51 50 50 50 49 49 50 50 30 35 37 34 22 19 25 34 30 23 29 26 13 13 11 9 9 7 9 14 16 9 3 14 21 44 44 45 45 46 45
51 52 54 54 53 51 50 50 50 49 49 50 49 50 23 33 27 23 20 18 22 24 26 20 23 17 14 9 8 12 7 9 12 15 16 13 15 17 14 38 37 41 42 42 44
53 54 53 54 54 51 50 50 50 51 50 51 49 39 33 23 23 20 20 20 23 24 21 23 22 16 18 6 -1 5 8 11 11 15 18 14 19 29 32 30 38 42 42 43 45
53 53 53 53 53 52 50 49 41 40 48 24 26 34 33 34 19 18 19 22 24 23 21 23 18 15 17 17 16 14 15 14 16 17 23 26 32 37 39 42 42 41 42 43 44
53 53 53 53 53 53 51 46 44 45 37 37 38 36 35 31 18 19 25 21 21 20 21 19 18 19 24 24 19 20 17 18 20 23 27 31 32 35 37 41 42 41 41 41 42
52 52 53 53 53 51 44 39 48 44 37 25 33 30 24 24 18 19 25 24 21 19 20 18 19 22 23 24 22 25 21 19 19 25 28 30 30 30 33 37 40 42 42 41 41
52 52 53 53 47 47 40 43 49 42 22 19 19 18 24 25 20 23 24 23 24 21 21 23 29 25 24 22 25 22 26 23 21 23 21 23 26 28 32 37 39 41 41 41 41
52 52 53 50 46 49 47 55 52 42 9 17 23 25 22 25 22 20 28 28 22 22 24 25 26 25 23 23 26 25 26 23 23 20 20 22 24 27 32 35 37 39 41 41 41
52 52 52 50 49 48 55 49 38 27 16 20 22 21 20 24 23 24 28 31 29 26 26 26 28 26 26 27 27 26 28 29 29 25 19 24 24 26 29 32 36 38 40 40 41
52 52 50 52 50 56 54 34 21 28 26 20 20 21 22 23 26 26 26 26 25 22 24 26 26 27 28 27 27 27 27 22 21 21 21 27 26 27 30 31 35 37 38 39 41
53 52 50 50 57 55 41 25 26 26 24 22 23 23 23 26 27 27 26 24 27 28 26 24 23 25 24 25 25 26 27 23 19 21 19 26 25 27 32 34 35 37 37 38 40
53 50 55 56 58 48 34 21 30 29 23 22 25 23 24 26 25 25 26 24 27 27 25 24 23 28 25 26 28 25 21 26 25 26 22 25 26 29 33 35 34 36 37 37 38
50 50 47 56 50 42 35 36 37 35 26 24 22 24 21 24 25 27 27 30 29 29 29 28 20 25 24 29 28 24 28 21 22 13 15 23 25 25 29 31 31 32 36 37 38
47 31 38 53 36 30 25 37 38 29 31 22 22 23 23 22 27 28 29 32 34 32 30 32 22 23 28 26 25 26 24 25 26 23 14 19 24 28 28 30 32 35 37 36 36
42 24 51 36 25 37 29 37 37 27 30 32 31 27 25 30 32 31 30 33 36 35 25 31 26 24 24 28 30 26 26 24 14 21 25 22 21 30 32 33 35 35 36 37 36
39 48 52 32 21 26 31 36 31 28 29 30 30 32 33 33 30 34 34 35 30 32 30 30 25 23 26 28 27 26 28 28 26 25 25 19 16 32 33 34 35 36 37 36 36
42 40 42 42 34 22 28 32 31 33 32 32 32 33 32 34 36 34 34 35 31 32 36 34 29 21 15 22 24 19 23 28 24 20 20 20 21 32 33 34 35 37 36 35 35
44 32 36 34 34 41 35 34 31 30 32 32 30 32 31 32 34 34 35 33 32 34 36 32 23 28 27 28 26 23 22 26 26 26 22 23 24 29 34 35 36 36 35 34 33
44 35 36 28 30 39 38 36 31 31 31 30 29 34 33 31 31 33 31 30 27 37 37 33 26 26 27 31 29 22 23 23 23 23 26 27 28 35 36 37 36 36 34 33 31
47 49 33 36 32 31 35 35 33 33 36 35 34 33 33 36 38 39 38 37 36 35 34 29 27 17 9 28 25 12 19 25 24 28 26 27 30 35 36 36 36 35 34 33 31

GFSSW_sfc_30mbdewp_012.txt.gz
Dewpoint
53 53 53 52 53 53 52 52 52 51 50 50 51 50 51 51 51 51 41 34 40 40 34 31 28 31 33 31 26 20 16 14 28 32 31 33 27 32 42 45 44 44 53 58 64
53 53 53 53 53 53 53 52 52 51 50 50 50 51 51 50 49 45 43 45 44 43 27 28 27 32 29 28 26 22 17 14 21 31 34 37 29 35 43 44 44 48 58 63 63
53 53 52 53 53 53 53 52 52 51 50 50 50 50 50 50 46 30 40 47 48 41 29 29 28 28 27 25 23 20 18 12 15 32 33 25 28 28 43 42 44 50 57 60 62
52 52 52 51 52 52 52 52 51 50 50 50 50 50 50 49 24 31 45 51 51 42 30 29 27 26 26 24 23 16 15 11 7 24 21 20 18 34 37 37 45 53 57 58 58
52 51 51 51 51 51 52 52 50 50 50 50 50 49 50 45 33 43 56 56 49 35 31 28 25 24 23 25 20 19 14 6 7 14 10 9 14 30 24 40 45 52 55 54 55
52 51 51 51 51 51 51 51 50 50 49 49 49 49 46 28 31 43 49 45 38 34 32 29 26 26 24 19 16 15 4 6 11 5 4 4 8 11 19 45 43 49 51 51 52
51 51 51 51 51 51 52 51 50 49 49 49 49 49 48 28 33 38 39 37 39 35 31 32 28 25 25 18 11 5 1 4 7 10 8 13 10 10 32 45 42 43 46 44 43
52 51 51 51 51 51 51 50 49 49 49 49 49 49 33 35 38 36 32 22 36 35 31 29 33 27 24 16 13 8 9 3 7 13 15 6 2 15 43 44 43 43 43 44 45
51 51 51 52 52 51 50 49 49 49 49 49 49 49 25 30 29 25 24 19 22 29 32 28 30 21 12 9 8 11 7 9 10 15 15 11 15 32 29 44 42 42 42 45 45
51 51 53 54 53 51 49 49 49 50 50 50 49 40 31 22 29 20 19 20 23 24 23 23 21 16 16 5 4 5 8 9 10 15 22 20 33 38 38 40 42 42 43 45 46
53 54 53 53 54 50 49 48 43 42 48 25 26 28 31 31 28 19 19 23 25 24 20 23 17 14 16 15 9 13 12 11 14 19 31 34 36 38 42 41 40 42 43 44 45
53 53 53 53 53 51 50 46 40 44 37 40 38 36 35 34 23 18 25 21 21 19 21 20 17 20 24 24 21 19 18 18 23 28 32 33 33 35 38 41 41 42 43 44 44
53 52 53 53 53 51 49 40 47 44 38 29 35 32 27 29 20 18 24 24 20 19 20 18 20 24 24 23 21 24 19 20 21 30 31 31 31 34 38 41 41 41 42 42 43
52 52 53 53 48 47 41 41 51 43 20 20 19 19 24 24 21 23 25 23 23 20 24 26 28 24 22 23 25 21 26 22 26 25 23 26 25 31 36 39 40 41 41 42 41
52 52 53 49 46 49 47 55 52 37 12 18 20 24 22 24 19 22 31 25 21 23 24 25 25 24 23 23 26 25 27 23 22 20 20 24 26 27 35 37 39 40 41 41 39
52 52 52 50 49 47 53 45 35 25 13 18 22 19 22 24 24 27 28 30 28 27 27 26 28 27 26 27 26 27 28 28 28 25 17 22 23 26 32 34 37 39 41 41 40
52 52 51 50 49 57 51 31 21 24 26 20 19 20 22 25 26 26 26 26 24 23 24 26 26 27 28 27 27 28 26 21 21 21 19 26 25 24 31 34 37 38 39 40 41
52 52 51 51 53 54 36 22 20 27 24 22 23 22 22 26 27 26 25 25 27 26 26 24 18 24 25 26 25 25 26 21 17 19 22 26 25 27 31 33 37 38 39 40 41
52 51 50 56 53 48 27 18 24 28 24 23 23 22 24 26 26 26 26 24 27 27 24 24 23 26 25 26 28 25 19 26 24 25 21 24 27 30 34 33 35 36 37 39 40
50 49 49 55 51 40 26 23 37 37 28 25 20 23 23 25 25 26 27 31 28 31 29 27 20 25 25 29 28 25 28 19 21 8 9 22 25 25 32 32 34 35 36 38 38
45 36 39 51 36 28 22 25 38 39 31 23 23 24 24 24 27 27 28 32 34 33 32 28 22 23 27 26 25 26 24 25 25 22 10 13 21 28 31 33 33 34 36 38 37
37 28 49 36 26 33 26 37 39 29 31 32 28 26 24 30 30 29 28 31 35 35 27 30 26 23 23 28 31 27 25 22 12 16 23 21 17 29 31 32 33 35 37 37 37
36 48 51 33 21 25 29 34 36 28 30 30 31 31 34 32 29 33 33 34 30 32 29 28 25 23 23 24 26 26 30 26 25 26 23 19 13 33 34 34 35 36 36 36 35
42 39 43 36 31 22 24 27 31 33 32 32 33 33 34 34 35 33 34 34 32 34 36 31 27 20 12 19 24 22 27 26 22 19 19 22 18 30 32 33 35 36 36 36 35
39 38 41 37 33 26 26 32 31 30 32 31 31 31 31 32 33 32 35 32 33 36 36 29 22 27 28 28 26 23 21 27 24 23 20 21 22 23 31 33 35 36 35 35 34
42 34 32 35 38 35 32 26 31 31 32 29 28 34 33 30 29 31 31 27 22 37 34 30 23 24 27 30 28 23 23 24 26 26 26 26 25 30 35 36 36 36 35 34 33
47 44 33 34 36 35 35 35 33 33 36 35 33 33 32 35 37 37 36 36 35 33 30 26 24 16 8 26 22 14 18 22 22 24 23 21 23 35 35 35 36 36 35 34 33

GFSSW_sfc_30mbdewp_015.txt.gz
Dewpoint
52 53 53 53 53 53 53 52 51 51 51 51 50 50 50 50 50 51 42 33 42 45 38 31 28 31 33 31 26 21 17 26 31 32 38 40 33 36 45 46 45 46 56 59 64
52 53 52 52 52 53 52 52 52 51 51 50 50 50 50 50 48 45 44 47 47 44 28 24 23 32 29 29 27 22 18 18 26 35 37 37 34 38 45 45 44 56 61 63 64
52 53 53 52 52 52 52 52 52 51 51 50 50 50 49 50 45 30 44 50 49 42 27 29 29 30 28 26 25 22 19 17 16 35 36 32 30 37 44 43 44 53 59 60 61
52 52 52 51 51 52 51 52 52 51 50 50 50 49 49 49 24 30 52 53 48 37 30 29 27 26 26 24 24 17 18 9 10 32 34 31 27 39 43 40 44 57 60 60 60
52 52 52 51 51 51 51 51 51 50 50 49 49 49 49 45 34 46 57 56 51 35 29 28 26 26 25 26 23 19 17 10 9 20 25 21 26 37 36 44 51 58 60 60 61
52 51 51 51 51 51 51 50 51 50 50 49 48 49 46 28 32 50 53 49 40 33 31 29 25 26 24 22 21 18 7 7 10 12 9 21 13 26 29 45 53 57 58 59 58
52 51 51 51 51 50 50 50 50 50 49 49 48 49 48 31 33 48 42 40 39 34 31 31 29 27 26 20 14 7 5 7 10 7 6 13 11 15 38 44 51 55 53 53 52
52 51 51 50 51 50 50 50 49 49 49 48 49 48 35 38 40 38 36 33 38 36 32 33 31 27 25 17 14 8 10 5 9 13 14 7 7 29 36 43 45 47 47 48 46
51 51 51 50 50 50 50 50 49 48 48 49 48 48 31 32 27 28 27 22 34 36 33 33 31 28 14 12 10 12 7 8 10 21 15 14 18 36 38 44 42 43 44 44 47
51 51 51 51 52 50 49 49 49 49 49 49 49 42 32 23 32 23 21 23 27 29 27 27 22 18 13 9 4 6 9 11 12 20 27 28 34 38 41 43 43 43 45 46 46
51 51 53 54 53 50 49 48 44 42 48 30 28 27 27 32 28 19 19 24 25 24 21 23 16 9 15 10 7 9 10 11 17 28 34 35 36 38 41 41 42 43 44 45 46
52 53 53 53 52 49 49 45 37 41 37 41 39 37 36 34 24 18 25 23 22 20 21 20 16 20 24 23 18 19 18 21 27 32 33 34 35 39 40 41 42 43 44 45 46
53 53 53 53 52 49 47 46 45 45 39 32 39 34 29 32 22 16 24 24 20 19 19 18 20 24 24 24 23 23 20 20 24 32 33 32 32 37 40 41 43 43 44 45 47
52 52 53 52 48 49 43 43 46 44 22 21 21 22 25 24 21 23 27 24 23 21 26 26 27 23 23 24 24 21 25 27 29 26 23 27 17 33 39 40 42 43 43 44 45
52 52 53 50 47 44 45 56 47 35 13 19 19 23 25 20 21 24 31 25 22 23 24 25 25 24 23 24 26 25 26 26 22 21 22 25 23 28 38 39 41 41 42 42 41
52 52 53 50 49 49 51 47 36 26 18 17 22 20 23 25 25 27 29 30 28 28 27 27 28 27 26 28 27 30 28 28 28 25 17 22 22 25 35 37 39 40 41 41 39
52 52 51 50 46 57 51 34 23 22 26 20 20 20 24 25 26 27 27 26 24 23 23 25 26 27 28 27 28 28 26 21 21 22 17 27 25 24 30 35 39 39 40 41 41
52 52 51 51 52 50 36 24 19 25 25 22 22 23 23 26 26 26 25 25 27 26 26 20 17 24 26 26 25 27 26 20 14 18 21 27 26 26 31 33 38 39 40 41 41
52 50 49 51 51 49 30 20 20 26 26 23 23 23 25 26 26 26 26 25 27 28 22 24 23 26 26 27 28 25 20 27 24 24 21 23 26 29 34 32 37 38 39 40 41
49 48 47 55 52 40 28 20 29 35 30 25 19 24 23 25 25 25 25 31 28 32 30 27 22 25 26 29 28 25 28 21 22 10 10 18 24 23 31 32 36 37 38 40 41
48 43 43 49 40 31 25 21 36 40 34 23 23 24 25 25 27 26 26 32 34 31 31 25 23 23 27 26 26 26 24 25 25 22 8 7 13 29 31 33 34 36 38 39 40
41 33 48 37 28 32 26 32 39 35 32 31 26 26 25 29 28 28 27 30 35 35 29 29 26 24 24 28 31 27 25 23 13 14 23 21 15 27 31 33 35 36 37 39 39
35 47 50 35 24 26 30 34 36 30 30 30 31 30 34 32 28 32 33 33 30 31 29 28 26 23 22 23 26 26 28 25 25 27 22 17 10 30 34 33 34 35 37 38 38
45 40 44 34 30 24 26 28 29 33 32 33 33 34 34 33 35 33 33 33 33 35 36 30 26 22 17 17 24 23 28 25 22 18 18 22 19 22 31 33 35 36 37 37 36
41 38 43 34 25 24 23 28 29 30 32 31 32 31 32 31 33 33 34 31 34 37 35 28 21 26 27 28 27 22 25 26 22 22 18 18 21 22 26 32 35 37 37 36 35
36 35 35 36 31 25 25 32 31 31 32 29 31 33 32 30 29 30 31 27 24 37 32 30 23 25 26 29 27 24 23 24 27 26 24 24 24 28 31 35 36 36 36 35 34
48 40 32 35 37 26 27 28 31 34 36 35 33 33 33 35 37 36 35 34 34 32 29 26 25 20 13 25 21 15 18 22 24 25 26 22 23 32 32 34 35 36 36 35 35

GFSSW_sfc_30mbdewp_021.txt.gz
Dewpoint
53 53 53 54 54 53 53 52 52 52 52 52 52 51 51 50 50 47 41 32 37 43 40 32 28 29 22 16 14 17 13 7 16 33 37 36 35 38 37 38 43 47 48 53 60
54 53 52 53 53 53 53 52 52 52 52 52 52 51 51 50 47 40 36 42 40 43 32 25 25 22 17 15 15 12 8 9 28 38 40 32 32 32 35 33 39 48 52 59 60
54 53 52 52 53 52 53 52 51 51 51 51 51 51 50 50 43 31 45 44 41 45 27 21 19 17 16 14 15 13 14 16 23 37 35 36 33 31 37 36 39 45 51 56 58
55 53 53 52 52 52 52 51 51 51 52 51 51 50 50 48 31 38 53 47 43 38 27 19 15 17 16 13 14 15 15 16 24 32 27 26 29 31 42 46 39 46 53 57 55
55 53 52 52 52 52 52 51 51 51 51 50 50 49 48 43 34 47 55 54 39 36 26 18 19 17 13 13 13 17 17 19 27 28 22 26 26 36 39 36 42 49 54 53 54
54 54 52 52 52 52 52 51 51 51 51 50 49 49 47 34 28 40 36 35 31 31 22 19 18 15 14 15 17 17 17 14 20 25 32 25 23 34 33 37 44 49 49 46 48
54 53 52 51 51 51 51 51 51 51 50 49 48 47 43 34 29 39 32 28 28 25 23 23 23 21 22 21 21 17 13 11 15 24 26 23 17 23 35 38 41 43 43 44 44
53 53 51 52 51 51 50 51 51 50 49 49 48 47 38 34 32 35 36 33 32 30 28 30 29 26 24 24 17 14 13 11 13 22 25 24 14 25 35 36 37 39 41 44 45
53 53 52 51 51 50 51 50 49 49 48 49 49 47 34 33 25 26 31 28 32 33 30 30 30 27 26 23 13 13 9 11 13 18 22 21 16 23 33 33 36 39 43 44 44
53 52 51 51 51 51 51 49 49 48 48 47 46 45 40 24 25 24 26 28 30 31 31 29 27 25 23 18 9 8 6 4 9 17 19 9 16 20 30 32 36 38 41 43 43
53 52 51 51 52 52 48 47 44 44 44 35 31 29 23 26 26 24 22 26 30 30 25 27 22 19 16 16 12 11 9 2 8 16 9 7 16 21 27 31 34 35 38 41 43
52 51 51 52 53 51 49 40 39 46 39 37 32 29 29 28 22 19 19 23 24 22 23 23 18 19 16 14 10 8 7 11 13 16 20 12 15 21 26 29 32 34 36 38 42
52 51 53 53 52 49 45 40 45 45 41 31 30 28 25 29 19 17 18 21 22 22 22 21 22 24 18 14 11 12 9 16 14 19 20 16 18 25 29 31 36 37 37 39 41
52 53 53 52 47 45 42 41 42 43 34 24 27 27 28 26 19 21 19 22 20 19 21 30 26 22 16 16 16 15 21 17 19 19 13 17 11 20 29 31 34 37 39 40 42
53 53 53 49 50 42 47 50 46 51 22 20 20 26 23 19 16 22 25 21 19 21 20 21 22 19 16 21 23 27 24 22 19 17 19 18 13 29 30 28 32 35 37 40 43
53 52 52 50 49 48 49 55 52 39 20 17 19 20 22 19 16 20 19 22 25 19 21 32 27 24 24 26 24 25 24 23 20 13 14 12 15 20 26 26 31 36 40 43 47
53 52 52 49 42 51 56 51 36 25 20 15 15 18 17 15 15 18 17 15 15 17 16 22 21 26 26 24 25 22 20 16 14 14 14 18 17 13 13 27 28 37 41 45 45
52 52 52 49 49 55 55 42 28 19 17 15 14 16 15 15 14 15 15 13 15 21 18 17 19 22 25 24 20 21 17 16 9 10 12 21 12 11 26 25 29 37 41 44 42
52 52 50 50 52 54 47 36 27 15 18 16 15 15 16 17 17 15 14 13 16 19 17 15 19 24 25 26 22 19 20 22 21 24 19 10 7 19 29 29 31 37 39 41 39
48 48 45 49 53 52 41 33 25 24 23 18 14 16 17 18 15 14 18 21 24 28 28 20 18 22 27 27 27 25 24 19 16 13 12 6 8 5 25 25 31 35 37 39 38
46 41 41 51 51 46 35 31 24 29 27 20 15 15 17 17 16 14 16 25 27 28 28 20 18 24 27 23 18 25 20 20 21 22 16 8 7 16 15 24 28 32 36 38 37
45 38 52 55 37 40 35 30 24 29 34 26 25 17 17 18 19 16 14 18 28 28 22 23 20 20 22 27 28 26 23 23 19 15 20 24 13 20 23 25 29 31 35 37 38
43 43 55 49 37 42 34 28 26 29 29 29 22 22 21 19 18 19 20 35 34 31 24 30 19 20 22 26 27 22 21 22 21 26 16 20 13 21 23 24 26 28 33 36 37
40 38 48 48 39 37 33 27 27 31 29 27 22 27 27 26 28 27 29 33 35 32 32 31 23 21 19 21 22 24 22 22 22 20 17 15 12 14 18 20 20 26 29 33 36
39 34 39 39 38 38 31 28 24 27 31 31 30 26 25 24 28 29 31 33 35 36 32 32 26 24 24 25 23 21 18 21 20 19 18 16 10 7 10 14 18 22 28 29 35
37 33 36 38 37 34 30 27 22 26 29 30 27 25 25 26 28 25 31 31 31 35 33 32 27 29 29 26 25 22 20 17 16 17 15 13 13 14 18 17 22 22 28 30 33
46 40 37 40 37 32 32 27 24 29 37 32 28 29 28 34 38 37 36 33 32 34 34 33 33 26 18 24 24 22 25 21 17 17 18 17 17 16 21 23 23 24 28 31 33

GFSSW_sfc_30mbdewp_024.txt.gz
Dewpoint
56 55 54 52 53 53 53 54 53 52 53 52 52 52 52 52 51 46 41 35 37 41 38 33 29 25 25 21 17 11 9 11 10 15 40 45 45 44 40 43 48 47 51 59 62
55 54 53 53 52 52 52 53 53 52 52 52 52 52 52 52 47 40 37 42 41 43 32 29 25 23 23 17 15 11 11 11 25 38 44 42 42 40 35 36 44 48 56 59 61
55 55 53 53 53 53 52 52 52 52 52 51 52 52 52 50 44 34 42 43 40 39 29 25 22 21 17 15 14 12 11 12 28 41 42 41 36 34 40 41 44 50 52 56 57
55 55 54 53 52 53 53 51 52 52 51 52 51 50 50 49 33 36 51 45 41 34 30 29 18 17 15 14 13 12 11 14 27 42 40 42 38 38 41 42 45 47 51 53 55
55 54 54 53 52 52 52 51 52 51 51 51 50 49 48 43 37 46 55 49 37 33 32 23 16 15 16 14 12 11 16 16 28 30 38 40 39 40 38 43 44 48 51 50 52
55 54 54 53 52 51 51 51 51 51 52 50 49 49 48 34 29 39 42 41 27 30 28 17 17 17 15 13 10 14 19 16 25 30 26 32 36 37 40 42 45 49 48 49 47
54 54 53 53 52 51 50 50 51 52 51 49 49 47 42 33 32 35 29 26 27 29 21 20 21 20 19 20 20 21 16 15 17 26 24 33 30 32 38 41 42 42 41 43 43
54 54 53 52 51 51 50 50 51 51 50 49 49 47 39 34 33 32 33 30 29 26 25 28 29 26 24 26 19 17 17 16 14 24 28 27 23 24 34 36 38 40 40 40 40
54 54 53 52 50 50 50 51 51 50 49 49 49 47 36 34 29 26 30 30 28 31 30 28 29 28 26 24 18 16 16 14 13 22 26 25 24 22 28 35 35 37 38 40 42
54 53 52 51 50 51 51 51 50 49 49 47 44 41 41 29 21 23 25 26 30 31 30 28 27 25 25 20 16 17 13 13 12 11 21 20 20 21 25 33 35 36 38 42 42
53 53 52 51 51 52 50 48 45 45 45 33 33 30 24 23 24 25 23 26 29 30 27 27 25 20 24 21 18 16 15 11 9 14 14 13 15 16 23 28 33 37 39 41 42
53 53 51 51 52 52 50 45 41 45 42 39 25 31 29 28 22 20 21 25 28 26 32 23 22 23 23 21 18 13 13 8 8 12 12 8 9 15 21 26 31 33 38 41 42
53 52 51 52 53 50 46 41 42 43 40 31 30 25 27 25 21 18 18 21 26 24 26 26 29 31 23 17 14 12 14 17 11 9 5 22 8 16 18 24 28 32 33 37 40
53 52 53 52 48 47 44 43 43 44 36 26 26 26 26 25 19 19 16 29 28 23 31 32 29 28 19 18 14 18 25 20 20 16 12 22 19 31 32 23 25 30 32 35 38
52 52 52 50 51 42 48 44 48 51 28 23 23 24 24 21 16 18 20 25 23 23 29 33 21 19 18 24 25 25 23 25 18 14 23 22 23 26 32 30 29 33 36 38 39
52 53 52 51 49 50 50 54 52 42 26 20 20 21 18 17 14 16 20 19 28 26 21 22 25 27 28 24 24 26 25 23 16 15 21 19 27 23 28 30 34 32 35 38 41
52 53 52 48 44 47 49 53 37 28 19 18 16 17 17 16 14 14 18 15 15 17 18 23 18 21 27 18 21 17 16 16 23 25 17 16 16 23 27 36 41 43 36 39 43
52 52 52 49 49 51 55 48 29 22 22 12 13 15 15 12 13 14 17 14 14 14 16 17 23 19 20 19 29 27 14 19 25 24 20 20 16 15 28 29 36 38 40 44 46
52 51 50 50 52 54 50 40 30 24 19 17 12 13 14 13 13 14 13 13 12 12 25 28 25 30 23 21 20 17 17 19 24 26 20 14 8 12 25 26 25 38 41 44 44
48 47 46 51 52 52 47 38 31 26 21 16 11 12 13 13 14 13 12 15 15 24 33 38 33 32 24 23 23 21 19 20 17 12 12 10 9 15 25 23 27 34 39 42 43
45 42 42 51 53 47 40 37 33 28 23 20 13 12 14 17 13 13 12 14 25 25 25 23 29 22 26 22 14 23 21 17 15 20 21 18 12 15 17 20 25 29 38 40 42
44 37 49 54 38 36 39 34 32 30 24 26 21 14 15 17 16 14 12 16 22 21 23 20 20 18 19 22 25 23 23 19 23 19 23 26 20 19 19 20 25 27 32 39 40
40 41 53 50 31 36 38 35 31 28 27 28 24 21 17 17 17 17 17 35 33 29 27 27 22 17 17 23 25 23 20 18 22 27 25 22 19 21 21 20 21 24 29 36 39
38 38 51 50 34 35 37 32 29 30 25 27 25 22 20 17 19 19 22 34 34 32 32 33 23 18 21 19 25 24 23 19 19 25 24 21 15 14 18 20 19 24 26 30 36
41 38 44 42 41 36 37 32 28 26 25 27 24 19 24 23 21 25 25 34 35 36 31 30 24 22 21 21 24 25 21 19 18 21 21 23 17 14 12 16 16 19 25 27 27
39 36 42 38 39 37 38 34 28 25 27 28 27 22 25 24 24 25 26 33 31 36 31 31 30 30 30 27 25 23 22 21 18 15 16 15 15 14 16 22 22 22 21 25 26
44 45 40 39 37 37 38 35 31 27 27 27 28 26 24 30 33 37 37 34 31 36 33 33 34 30 24 25 23 16 22 22 18 18 16 15 19 18 17 17 23 25 25 26 29

GFSSW_sfc_30mbdewp_027.txt.gz
Dewpoint
56 56 55 55 54 52 52 52 52 53 53 53 53 53 52 53 51 47 42 38 42 42 41 36 32 28 27 24 25 21 14 9 8 30 39 45 41 49 49 46 46 53 57 61 60
56 55 55 55 54 53 52 51 51 53 53 53 53 53 53 52 48 45 42 43 45 42 34 31 29 28 23 23 23 18 14 11 33 39 40 43 41 42 44 42 51 52 58 60 57
56 55 55 55 54 53 52 52 51 53 53 53 53 52 52 51 46 40 46 47 47 42 31 29 28 24 22 23 21 16 13 12 34 40 42 41 40 42 42 42 47 49 55 58 59
55 55 55 55 54 53 51 51 51 52 52 52 52 51 51 49 30 36 49 51 44 38 33 28 29 24 19 16 16 15 14 13 37 41 40 42 44 34 37 44 48 47 52 56 58
55 55 55 54 54 53 51 51 51 52 52 52 51 50 49 45 43 48 52 48 38 32 30 29 29 22 15 15 16 15 13 17 36 41 44 43 39 39 36 44 52 54 54 55 56
54 55 54 54 53 53 51 51 51 52 52 52 51 50 48 38 42 50 44 39 30 31 32 32 25 18 17 18 21 14 13 18 30 41 42 40 41 39 38 42 46 51 53 55 55
55 54 54 53 53 52 51 50 50 52 52 51 50 48 45 32 36 40 39 33 27 29 28 29 26 28 27 24 27 22 17 16 24 31 35 36 37 32 38 41 45 49 49 49 48
55 54 54 53 52 51 51 50 51 51 51 51 50 48 40 42 40 35 31 28 27 29 29 26 31 29 26 27 26 19 18 17 17 28 30 27 23 37 40 41 43 43 42 43 43
55 54 54 53 52 51 51 51 51 51 51 50 48 47 42 42 34 32 31 32 31 30 29 29 29 29 28 26 23 18 15 17 17 23 26 24 23 39 42 42 41 40 40 41 41
55 54 53 52 51 51 51 52 51 50 49 48 46 41 41 34 30 29 28 29 29 32 31 29 27 26 26 24 17 16 18 18 16 22 25 23 21 26 35 37 39 40 40 41 40
55 54 53 52 51 51 50 49 46 46 45 39 35 34 29 30 25 25 26 28 29 32 29 31 26 25 25 24 23 22 18 15 14 16 24 22 20 23 27 36 37 40 43 42 41
55 53 53 51 51 51 50 47 44 43 42 44 39 35 30 32 26 23 24 26 29 29 30 29 24 25 26 24 24 23 21 18 14 16 18 17 18 21 23 31 39 35 40 42 44
55 53 52 51 52 51 48 45 43 44 42 39 39 38 26 29 26 24 22 24 27 27 28 28 29 29 24 25 26 24 24 21 15 9 9 16 19 23 24 26 37 39 41 42 44
55 53 52 52 48 48 48 47 47 45 39 34 34 31 26 27 24 25 21 29 27 28 32 30 29 26 26 27 22 17 24 23 20 21 10 23 17 27 28 24 28 33 39 42 43
55 53 52 50 50 49 49 52 45 47 29 27 28 29 27 26 24 18 28 30 23 29 30 27 29 27 27 26 23 23 23 22 24 22 22 23 19 23 27 21 27 33 35 38 45
54 52 52 51 50 49 49 49 54 42 28 25 26 23 23 24 22 20 19 25 28 30 30 28 28 29 27 27 23 25 23 24 27 25 19 19 19 25 29 27 30 33 34 37 43
54 52 52 50 46 51 50 49 40 36 27 22 20 22 21 19 18 17 18 18 23 22 23 22 21 27 29 25 26 26 23 20 18 20 20 29 22 25 30 31 30 29 32 37 46
54 52 52 49 50 52 54 47 36 29 26 22 21 20 17 18 17 16 18 17 18 21 21 21 21 29 29 25 24 21 23 23 18 21 23 28 23 23 28 31 33 35 36 39 46
53 51 50 50 51 51 51 39 32 32 23 24 15 16 16 17 13 15 18 19 17 16 17 25 25 34 32 30 26 20 18 27 28 31 27 24 14 26 30 33 38 37 38 45 47
50 49 47 49 52 49 45 38 38 33 27 24 20 15 14 16 14 14 14 16 17 23 31 33 22 34 32 32 27 22 23 21 23 17 17 13 17 24 26 27 35 37 42 46 45
49 45 45 50 52 48 37 38 39 36 31 27 20 14 15 16 14 16 15 15 18 31 32 34 31 31 33 30 25 23 21 19 20 22 18 19 15 19 21 27 33 40 44 45 44
48 40 47 52 41 41 38 39 39 35 36 31 25 22 17 17 17 14 15 25 25 27 25 32 30 29 28 27 25 24 23 27 17 17 25 24 20 21 19 24 28 30 42 44 43
44 43 50 45 31 36 34 38 39 37 35 30 27 27 24 22 27 16 30 35 33 30 27 31 23 18 17 20 27 24 23 22 28 29 22 19 19 22 20 19 23 27 30 42 43
44 39 47 47 32 33 31 33 37 38 36 33 29 29 27 23 23 22 31 34 35 33 32 33 26 20 15 18 24 25 27 27 22 22 23 23 23 21 20 21 22 23 26 37 41
44 37 43 40 41 33 34 33 36 36 34 31 29 27 26 21 21 23 35 35 36 34 32 30 23 24 26 30 28 25 26 25 22 22 21 21 23 22 21 21 22 26 26 26 30
42 36 45 42 41 40 33 35 35 34 32 29 29 26 26 25 27 23 33 34 31 35 31 32 29 30 27 27 25 22 24 24 23 22 19 20 21 22 22 24 23 24 24 27 27
44 45 41 42 41 38 33 35 36 34 32 29 30 29 27 31 35 38 37 36 35 33 32 32 32 28 24 25 21 17 18 21 23 23 20 17 21 26 25 26 25 26 28 29 29

GFSSW_sfc_30mbdewp_030.txt.gz
Dewpoint
56 56 56 56 55 54 53 52 52 51 52 53 53 53 53 53 52 48 39 32 40 39 39 34 32 30 28 24 25 20 19 14 13 15 38 45 42 48 49 47 56 58 58 59 60
56 56 56 56 55 54 53 51 52 51 53 53 53 53 53 52 48 46 44 45 45 47 36 28 28 30 21 22 23 20 16 15 17 37 40 42 44 44 42 51 53 56 58 58 59
56 56 55 55 55 54 54 51 51 51 53 53 53 53 52 51 46 41 48 48 48 47 33 30 28 26 23 22 22 19 16 15 20 41 41 40 41 45 43 45 50 51 55 56 56
56 55 55 55 55 54 53 52 51 51 52 52 52 52 52 50 29 32 50 52 49 41 33 27 27 27 22 20 18 15 15 15 31 43 41 40 42 35 41 44 50 54 56 55 55
55 54 54 55 54 54 53 52 51 51 52 52 53 51 48 42 37 51 51 52 42 34 29 25 29 28 19 16 16 16 16 23 38 41 41 42 41 39 46 48 53 56 56 55 54
55 54 54 54 54 53 53 52 51 51 52 52 52 50 47 28 43 48 43 38 34 29 31 30 31 28 19 22 21 24 19 35 40 41 41 36 39 39 45 50 51 54 56 56 54
56 55 54 54 54 53 52 51 51 51 52 52 51 48 45 20 39 46 39 30 29 27 25 29 29 28 27 23 27 26 16 28 39 41 40 38 35 34 42 49 51 52 55 54 52
57 55 54 54 53 52 52 51 51 51 52 51 51 48 33 42 43 40 37 29 29 29 29 29 29 29 26 27 27 22 19 16 35 38 38 29 28 35 42 47 48 50 52 55 53
57 56 54 53 53 52 51 51 52 52 52 51 48 47 34 43 40 38 34 30 28 27 28 30 29 28 28 25 23 19 14 17 20 31 32 28 28 36 40 43 45 46 49 52 55
57 56 54 53 52 51 51 51 51 51 49 49 47 39 38 32 37 32 31 31 31 31 31 29 28 26 26 24 17 19 19 18 17 19 26 24 28 37 40 41 44 43 43 43 50
57 56 54 53 51 51 50 48 45 46 45 32 28 30 29 34 32 29 28 28 31 31 28 32 26 24 25 25 24 22 22 22 22 18 24 23 25 37 40 41 42 41 41 41 46
56 56 54 53 51 51 49 42 43 42 39 43 43 40 38 36 28 27 28 26 28 28 32 28 26 27 27 26 26 25 24 23 21 19 22 23 20 33 35 39 40 40 41 41 42
56 56 53 51 51 50 47 44 45 43 39 40 43 41 39 34 27 27 24 28 28 28 29 25 27 29 26 25 24 24 25 24 22 16 14 19 21 22 25 37 40 41 41 42 41
55 55 53 52 46 48 47 49 49 45 36 31 36 36 29 24 25 28 24 26 27 28 30 28 30 27 27 25 26 23 24 23 22 19 11 21 18 26 26 29 39 38 40 43 43
54 55 52 49 48 48 48 49 47 48 13 29 36 34 27 25 25 22 26 29 25 28 29 24 29 25 24 24 27 25 25 22 23 23 22 21 17 20 29 22 34 35 36 40 44
54 54 52 50 50 47 48 50 52 40 19 29 29 26 24 25 25 22 26 28 28 29 30 27 31 27 27 27 28 27 24 26 29 26 19 25 21 19 25 23 21 27 34 37 43
53 53 51 51 42 51 52 49 39 32 29 26 24 24 23 23 24 22 18 22 23 24 24 26 26 26 29 24 26 25 22 16 16 18 16 28 24 21 25 28 27 26 31 37 44
52 53 51 49 50 50 53 47 33 30 31 26 25 24 22 22 22 19 18 17 22 23 23 21 22 28 31 26 26 24 22 18 15 15 19 28 22 23 26 29 32 33 36 42 47
52 51 51 50 51 49 49 38 31 35 27 22 22 21 20 19 18 18 18 17 17 19 18 24 24 33 33 31 29 23 20 25 25 31 26 25 22 25 31 31 33 36 36 42 48
49 49 48 50 50 46 44 35 36 38 33 29 19 20 17 17 17 16 17 20 18 20 25 28 21 29 31 30 28 26 24 19 25 17 17 16 18 23 26 26 31 36 36 44 49
47 44 48 51 49 42 37 35 36 37 38 32 27 23 17 16 17 16 13 16 21 31 31 33 25 27 31 27 22 23 21 20 23 20 15 17 16 19 25 27 32 34 37 45 47
45 39 49 51 37 39 38 37 36 36 38 37 33 29 19 17 17 15 15 15 28 32 25 32 30 25 24 27 31 28 24 26 21 15 24 22 19 24 23 28 35 35 39 46 46
41 42 49 47 33 32 36 37 37 34 36 36 32 30 26 24 20 24 25 34 35 31 27 31 26 22 22 24 26 26 24 25 28 25 20 18 19 23 21 20 27 34 41 45 45
41 37 44 44 38 29 33 36 36 35 37 38 37 35 30 25 28 27 31 34 36 33 34 30 25 19 17 16 22 24 27 28 26 22 22 23 21 23 23 21 20 25 31 43 45
42 36 39 36 38 31 31 33 33 30 36 36 33 34 33 24 26 26 34 34 36 32 32 27 23 24 23 28 29 24 26 27 24 24 21 20 24 22 22 21 22 23 26 36 42
39 38 40 39 37 35 31 30 29 28 30 30 33 33 31 25 23 29 32 32 27 33 29 32 23 30 24 28 25 23 22 24 24 23 24 23 21 24 24 26 26 25 27 28 30
42 45 40 38 38 36 32 30 27 28 33 32 32 31 31 28 32 32 34 33 33 30 31 30 29 26 22 24 20 20 20 19 22 24 23 19 23 25 26 26 26 28 30 30 33

GFSSW_sfc_30mbdewp_033.txt.gz
Dewpoint
56 56 56 56 56 55 54 54 52 51 51 52 52 53 53 53 52 48 38 34 42 44 39 34 32 30 28 26 26 19 20 15 14 14 33 44 43 48 52 53 56 58 56 59 61
56 56 56 56 55 55 54 54 52 52 51 52 53 53 53 53 48 44 44 45 46 47 35 26 29 28 19 22 23 22 17 16 17 28 38 44 44 45 49 53 53 54 58 59 60
56 56 56 55 55 55 54 53 52 52 51 51 52 52 53 52 44 38 51 51 48 51 32 29 27 26 24 22 22 20 18 18 16 36 41 42 42 45 48 49 52 52 54 57 58
56 56 55 55 55 55 54 53 52 51 51 52 52 52 52 49 27 31 52 54 49 48 33 26 26 26 23 21 21 18 17 16 20 42 41 40 41 38 43 45 54 55 56 56 56
56 55 55 54 55 54 53 53 52 52 51 52 52 52 48 34 28 46 54 54 49 37 28 26 28 28 21 17 17 16 17 18 24 42 41 42 38 44 49 52 55 55 55 54 55
57 56 55 54 54 54 53 53 52 51 51 52 52 51 46 15 40 48 45 43 36 31 27 28 29 29 26 23 23 24 25 37 40 41 41 41 44 44 48 55 55 54 52 50 49
58 56 55 54 54 54 53 52 51 51 52 52 51 49 44 13 41 44 39 34 31 28 28 31 30 28 27 23 27 27 28 37 39 40 39 39 36 43 48 55 54 53 53 52 51
58 57 56 54 54 53 52 51 51 51 52 52 51 47 33 38 44 43 39 35 32 28 28 29 29 30 28 27 26 21 19 21 37 39 38 30 31 40 49 51 53 54 55 54 53
57 58 56 55 53 53 51 51 51 52 52 52 48 47 26 40 39 40 40 34 30 28 28 28 29 28 27 24 20 20 14 19 33 36 35 29 29 38 47 50 51 54 55 53 52
55 57 56 54 53 52 51 50 51 51 50 49 47 33 31 30 35 34 37 34 30 30 30 29 28 25 26 23 18 19 19 20 20 19 30 34 28 39 43 48 49 50 53 53 50
54 56 56 54 53 51 50 46 42 44 44 33 23 22 27 34 33 32 30 30 32 31 28 32 26 24 25 25 25 24 24 23 23 23 23 26 27 37 41 43 45 46 48 53 53
54 56 56 54 52 51 49 41 40 42 35 39 41 38 38 39 36 28 29 25 29 26 32 27 25 26 28 26 25 25 23 22 24 21 21 23 23 35 39 41 44 44 44 46 53
53 55 56 53 51 50 46 43 45 45 31 35 43 41 39 40 35 28 27 27 27 27 28 25 24 29 26 24 23 24 23 23 23 22 20 22 21 23 32 39 41 43 43 44 47
51 55 55 51 48 47 46 48 49 46 32 32 40 38 39 32 25 29 26 27 28 27 30 28 29 28 26 25 25 22 25 25 23 20 10 20 14 24 27 35 38 41 41 42 43
50 52 54 50 45 48 48 48 47 47 4 20 37 36 29 23 24 26 27 28 24 29 29 23 28 26 25 23 27 23 27 25 24 23 21 22 17 19 29 26 34 39 41 42 42
50 51 53 50 49 47 47 51 51 32 5 25 33 30 23 24 25 23 25 27 28 29 31 26 31 27 24 27 28 27 25 26 28 26 18 25 21 19 24 24 27 38 39 41 43
49 52 52 51 45 50 51 50 39 26 23 26 28 27 22 22 22 23 21 24 23 23 23 26 25 27 30 24 27 26 22 15 15 18 16 27 23 21 22 25 26 30 37 37 40
48 52 52 51 50 49 53 45 30 31 29 33 26 26 20 22 23 23 21 20 23 24 24 22 19 26 31 26 24 25 21 17 13 15 16 27 23 22 27 30 30 31 30 35 40
47 50 51 51 50 48 48 37 30 31 33 19 24 23 22 22 21 21 19 17 18 24 19 22 21 31 32 30 27 24 21 25 25 30 24 23 25 21 28 30 35 35 37 40 44
45 46 46 51 50 45 43 35 35 36 38 36 21 23 21 21 20 19 19 19 17 20 23 24 16 28 29 32 30 25 27 20 23 17 16 18 18 19 24 23 29 35 35 42 47
43 41 45 51 49 41 35 35 36 36 37 36 31 22 21 20 19 17 17 17 20 25 25 30 22 22 32 26 21 24 22 22 22 20 14 14 17 20 25 25 24 27 35 40 48
40 35 49 50 41 37 33 35 35 34 37 38 37 34 27 20 17 17 16 15 21 29 23 29 25 20 22 28 30 27 24 22 18 17 24 22 19 23 21 24 28 30 34 40 48
36 39 49 47 35 34 34 34 34 31 34 34 35 34 30 22 17 20 19 31 32 28 26 31 26 20 21 23 25 25 26 28 27 24 20 17 17 23 23 21 23 30 34 40 46
38 34 42 44 39 35 33 34 36 36 34 37 37 37 33 27 27 24 27 34 36 33 32 29 25 21 18 19 22 23 26 26 26 22 21 21 20 22 22 22 23 22 29 39 45
38 33 38 36 36 37 33 33 33 32 36 34 34 36 35 30 27 28 33 34 34 33 32 28 22 21 21 20 28 25 25 28 25 25 22 22 24 24 24 22 22 23 26 32 43
35 37 39 38 36 35 34 31 32 33 35 32 28 30 30 31 28 25 31 32 29 32 30 30 24 27 24 27 25 24 24 23 24 24 25 24 23 26 25 27 27 27 28 32 35
39 42 40 36 36 34 32 32 31 33 34 32 33 32 34 34 33 30 34 32 29 29 29 28 25 24 19 25 21 20 22 22 22 24 24 20 21 26 26 27 29 31 32 33 35

GFSSW_sfc_30mbdewp_036.txt.gz
Dewpoint
57 56 56 56 56 55 55 54 54 52 52 51 52 52 52 52 51 47 38 34 41 44 43 34 32 32 28 28 26 21 20 15 14 14 20 44 44 48 55 53 55 56 57 59 61
57 56 56 56 55 55 55 54 54 53 52 51 52 52 52 53 49 44 43 44 46 46 33 26 29 25 19 22 23 22 19 17 18 16 31 43 42 46 49 52 52 55 59 60 60
58 57 56 56 55 55 55 54 53 53 52 51 51 52 53 52 40 37 51 51 46 49 33 29 27 26 24 22 22 20 18 19 18 19 39 42 43 46 50 49 51 53 56 58 59
58 57 56 55 55 55 55 53 53 52 52 51 51 52 52 49 26 31 56 56 52 47 34 25 24 26 22 21 22 19 19 18 18 39 41 41 42 43 45 47 54 55 56 58 57
58 57 56 55 55 54 54 53 53 52 52 51 52 52 48 24 21 49 55 54 48 38 27 27 28 28 22 20 18 17 17 21 24 41 42 41 40 44 50 54 54 55 55 55 56
57 58 56 55 55 54 54 53 52 52 52 52 52 51 43 6 37 46 47 40 38 33 26 27 28 29 27 25 23 24 27 35 41 41 42 44 45 44 51 54 54 55 55 55 56
54 58 57 56 55 54 54 53 52 51 52 52 52 49 41 14 41 40 39 35 34 31 28 30 31 28 28 25 27 27 30 36 40 40 40 40 35 43 53 54 52 53 52 51 55
54 55 58 56 55 54 53 52 51 51 52 52 51 47 29 35 42 43 41 38 35 31 28 27 29 28 28 28 26 20 20 20 36 39 39 34 31 46 54 51 51 52 52 53 52
53 54 56 57 55 54 53 51 51 52 52 52 48 47 20 34 33 37 40 35 31 29 28 28 28 28 27 24 20 20 15 21 33 38 36 33 33 45 52 52 50 52 52 54 53
51 53 55 57 55 53 51 50 50 51 50 50 47 35 24 28 35 35 40 35 31 31 30 29 28 25 25 22 17 20 20 21 21 22 35 34 29 43 49 50 51 51 53 54 53
51 52 54 56 55 52 49 45 38 42 45 37 23 16 20 35 38 32 33 32 32 31 28 31 26 23 24 24 24 24 24 23 23 24 23 26 32 39 46 48 49 51 52 53 52
52 52 54 55 54 51 49 39 39 43 38 39 39 36 35 39 38 33 30 26 29 27 32 28 25 26 28 27 26 24 23 22 23 21 22 23 28 38 43 46 48 49 49 51 53
49 50 53 55 52 50 46 41 47 47 36 32 39 39 38 40 34 32 27 27 26 26 28 26 24 29 25 25 23 23 22 23 23 25 21 22 22 35 39 43 44 46 47 48 51
48 49 51 53 49 47 42 48 49 47 28 27 36 38 40 39 28 33 28 27 28 24 29 27 28 28 26 24 24 22 25 25 24 21 13 21 13 23 34 40 40 42 44 45 47
47 48 50 52 47 46 48 47 47 45 7 20 38 39 38 26 25 26 27 27 24 28 29 25 26 27 25 24 25 22 27 26 24 22 21 22 17 18 28 32 37 39 42 43 44
48 48 50 52 50 47 48 50 49 33 8 16 34 33 27 24 25 25 26 28 29 29 31 27 31 28 25 25 27 27 25 23 27 25 18 22 21 20 25 25 31 37 40 42 42
48 47 51 51 48 50 50 48 39 25 20 21 31 28 23 22 23 22 24 25 22 21 22 25 26 27 29 25 27 26 22 16 13 18 16 26 24 22 22 24 26 27 35 40 42
47 46 50 50 50 49 52 42 31 28 23 31 28 27 20 22 21 23 22 21 24 23 23 21 19 26 29 25 22 23 21 16 12 14 14 26 20 18 26 29 33 31 30 39 41
45 46 46 50 52 48 45 35 30 29 31 22 25 25 21 21 21 21 21 20 23 24 20 22 20 30 31 30 27 24 20 23 24 29 24 21 24 21 27 32 34 32 34 34 39
42 44 41 49 52 45 41 34 35 33 38 36 22 24 22 21 19 21 20 20 18 24 24 24 16 27 29 32 30 25 27 21 23 18 16 19 18 16 18 23 32 33 34 37 42
43 38 39 50 51 43 34 34 35 36 37 35 34 28 23 21 19 21 20 20 20 20 24 26 19 18 31 26 22 25 23 22 22 21 14 14 16 21 20 25 26 27 34 36 42
41 31 45 50 40 39 35 34 34 36 36 36 37 36 30 23 20 19 18 19 21 25 20 26 22 15 18 28 28 25 23 23 19 18 24 21 18 23 20 21 24 25 30 36 41
36 36 48 45 34 33 35 34 35 34 34 35 35 36 33 25 19 21 20 22 26 25 23 29 23 16 19 23 26 26 26 27 26 24 21 19 19 23 23 22 22 23 27 35 43
37 30 40 42 36 32 32 32 31 35 33 33 37 37 33 30 26 20 20 33 33 28 30 28 25 20 16 17 22 22 25 28 26 22 22 21 21 22 22 24 23 23 25 27 40
39 30 37 32 35 35 32 31 32 29 33 35 34 35 33 29 27 27 31 34 34 35 31 26 19 23 22 22 23 23 23 27 25 24 22 23 23 24 25 25 23 24 25 30 38
35 33 37 35 33 34 36 31 31 32 34 31 32 33 34 34 28 26 33 32 29 33 30 29 23 23 23 27 27 25 25 25 27 26 26 25 24 26 26 28 27 26 32 36 39
38 39 39 32 34 32 32 31 31 33 33 35 31 29 32 30 32 32 32 33 33 31 30 27 26 24 21 25 23 22 23 24 23 24 24 22 24 25 26 28 30 32 34 34 35

GFSSW_sfc_30mbdewp_039.txt.gz
Dewpoint
58 57 56 56 56 55 55 55 54 54 53 53 51 51 52 53 52 47 36 35 40 44 44 35 31 32 27 28 25 22 21 16 15 15 18 44 44 50 55 53 54 56 57 58 59
59 58 57 57 56 55 55 55 54 53 53 53 52 51 52 53 49 41 41 44 45 48 31 27 29 24 21 22 25 23 20 18 18 18 26 42 43 47 50 51 51 54 59 59 58
60 59 58 57 56 55 55 54 54 53 53 52 52 52 53 52 39 36 50 48 47 50 31 29 29 27 23 23 23 22 20 20 19 19 34 40 43 46 48 47 50 52 55 58 58
55 58 58 57 56 55 55 54 53 53 52 52 52 52 53 48 26 30 57 57 50 48 31 26 25 26 23 21 22 20 20 20 19 38 42 42 43 48 46 48 53 54 57 58 56
53 54 58 58 56 55 54 54 53 53 52 52 52 52 47 25 11 51 56 54 49 38 25 24 28 28 24 22 20 20 19 23 32 41 42 42 42 45 49 54 55 56 56 56 57
53 53 55 58 57 56 55 54 53 52 52 52 52 51 40 13 40 50 47 44 39 32 26 27 28 29 27 26 23 25 27 38 41 42 42 43 45 44 51 54 54 53 53 54 55
53 54 54 56 57 56 55 54 53 52 52 52 52 49 40 17 43 45 42 36 36 30 26 28 31 28 28 26 27 27 29 35 40 40 42 40 35 42 52 53 53 53 53 55 55
52 52 53 54 57 56 55 53 53 52 52 52 52 47 26 34 40 43 40 38 35 33 28 28 29 29 29 29 25 20 21 20 36 39 40 31 30 44 53 52 51 52 52 52 55
51 51 52 53 55 56 55 53 52 52 52 52 48 46 20 29 29 35 39 35 34 32 29 28 29 29 28 24 21 21 16 23 33 38 39 33 32 43 52 50 48 50 50 52 51
50 50 51 52 54 56 53 51 50 50 51 50 47 36 26 23 33 37 41 37 31 31 31 30 29 26 25 23 18 20 20 22 22 25 36 36 31 45 50 50 48 48 50 52 52
49 50 51 53 54 54 50 47 37 41 46 37 31 25 14 33 40 33 35 33 32 31 28 32 27 23 21 24 22 24 23 22 23 24 28 32 33 41 48 49 49 49 50 52 52
48 49 51 52 54 52 49 44 39 43 36 40 40 37 34 37 36 36 33 27 28 26 32 28 26 26 27 27 26 25 23 22 24 21 23 22 25 35 46 47 48 49 50 51 52
47 47 47 50 54 51 48 46 47 47 41 34 39 38 37 38 34 33 30 28 26 26 28 26 24 29 28 26 25 24 22 23 24 25 22 24 22 29 40 45 46 48 50 50 51
46 47 46 51 50 48 46 47 48 48 30 23 31 36 40 38 29 35 29 27 28 24 28 27 29 27 26 24 24 21 24 25 25 22 15 21 14 20 32 39 42 45 46 48 49
45 47 46 50 48 45 46 49 48 45 15 21 38 39 40 29 26 29 28 28 25 28 29 25 26 27 26 25 25 22 27 27 25 22 22 22 17 18 28 31 38 42 43 45 47
45 46 47 48 50 48 49 50 48 35 17 14 35 35 34 28 25 26 26 29 30 30 31 27 30 29 27 25 26 28 26 23 27 25 18 22 21 19 23 24 31 37 42 42 45
44 45 47 49 46 50 50 47 35 30 23 17 32 31 26 24 23 24 25 25 23 21 22 25 27 28 28 25 28 26 23 18 14 19 17 27 24 21 23 25 26 28 35 40 43
44 45 47 47 51 49 49 41 30 29 26 28 29 27 22 23 23 22 24 22 25 21 21 19 18 25 29 26 24 25 23 18 11 13 15 26 19 18 26 28 32 35 34 32 40
44 45 45 46 49 49 45 33 28 31 30 25 26 23 22 22 22 22 23 23 24 24 18 22 20 28 31 29 25 24 21 24 24 29 23 21 23 22 25 28 32 34 35 33 36
42 43 41 46 50 48 40 32 34 32 37 37 21 26 21 20 21 21 21 23 22 25 25 23 19 27 29 32 31 26 27 22 24 18 17 19 19 14 17 21 26 28 32 35 39
41 37 38 46 50 43 33 33 33 36 36 34 35 32 25 22 21 21 21 20 22 24 25 27 20 20 31 27 23 26 25 23 23 22 16 14 16 22 19 22 26 26 30 35 37
39 31 41 45 37 38 34 33 34 33 37 36 37 37 32 24 21 20 20 19 22 24 23 26 22 17 19 28 28 26 25 25 21 20 23 21 18 23 24 23 23 24 28 36 37
35 33 42 41 31 31 34 32 34 32 34 35 34 35 35 27 20 21 21 22 25 23 22 27 21 15 16 23 26 27 26 26 26 25 22 20 19 23 24 24 25 23 25 29 39
37 30 37 38 33 28 32 31 31 35 34 35 35 36 34 31 27 21 22 27 28 25 28 26 24 17 14 16 22 24 26 28 26 24 24 23 23 24 24 25 26 27 27 27 29
38 31 36 30 32 29 30 29 30 30 33 34 34 34 33 27 28 25 26 33 34 35 30 25 19 23 21 20 22 22 24 27 25 25 22 22 23 24 26 26 26 27 27 35 41
34 32 33 34 31 31 31 30 29 31 30 31 31 33 32 33 28 27 33 33 30 34 30 29 21 23 21 25 24 23 25 27 27 26 26 25 25 27 27 27 28 28 37 39 40
39 38 31 32 32 29 28 30 30 33 32 31 33 33 33 30 34 35 33 32 33 32 31 28 25 23 19 25 24 22 24 25 25 27 27 23 25 27 26 28 31 35 35 36 36

GFSSW_sfc_30mbdewp_042.txt.gz
Dewpoint
60 59 58 57 57 56 55 55 55 54 54 53 53 53 52 53 52 46 38 35 37 42 45 34 31 28 27 24 26 23 16 10 14 14 16 36 34 47 50 48 51 54 55 58 60
56 59 59 58 57 56 55 55 54 54 54 53 53 53 53 54 46 38 42 43 45 46 29 25 21 21 18 22 23 21 15 13 16 17 17 26 35 43 47 47 48 54 58 59 60
54 54 56 59 58 56 55 55 54 54 54 53 53 53 53 52 40 34 47 47 48 47 29 28 21 19 18 21 22 21 18 19 19 19 20 29 40 44 43 41 45 50 55 57 58
51 52 54 56 58 57 56 55 54 54 53 53 53 53 53 47 16 31 55 55 50 42 29 28 27 24 22 20 22 20 21 21 21 29 31 37 42 44 44 49 52 55 57 57 56
51 51 52 54 57 58 57 55 54 54 53 53 52 53 46 27 13 45 58 56 43 38 27 26 27 26 20 23 23 22 22 25 31 32 39 41 40 43 50 53 54 56 57 56 56
51 52 53 54 55 57 57 56 55 54 53 53 52 52 40 20 35 46 43 41 35 31 24 27 28 29 27 25 24 25 25 36 37 38 38 38 41 43 51 52 51 53 53 55 54
50 51 52 52 54 55 57 56 55 54 53 53 52 48 39 26 34 43 38 33 33 28 24 26 30 28 28 25 27 25 26 34 36 39 38 39 35 43 50 49 49 49 52 54 53
49 50 51 51 53 54 56 56 55 54 53 53 52 47 32 32 34 39 38 35 34 31 29 29 28 29 29 29 24 22 22 19 27 37 38 38 28 45 48 47 47 48 47 52 54
48 49 50 50 51 53 55 55 54 52 52 52 48 45 26 34 31 28 37 32 36 33 32 27 29 29 28 20 17 21 15 17 21 36 36 34 27 40 48 45 43 45 45 48 53
47 48 49 51 52 53 55 53 52 50 51 49 46 40 32 18 30 37 34 32 32 32 31 30 30 26 22 16 11 14 16 19 21 29 35 32 30 38 45 44 40 42 43 45 50
46 47 48 51 52 54 53 49 43 42 47 38 35 32 15 29 39 35 38 36 33 30 27 31 26 19 15 16 20 21 17 17 20 23 25 24 26 30 41 45 42 41 43 45 45
46 45 48 48 49 54 52 47 44 44 37 38 38 36 35 33 32 34 34 31 30 26 29 29 23 25 27 26 25 24 19 19 23 23 23 20 20 27 37 43 43 42 43 44 45
46 45 47 47 52 52 50 48 48 47 40 37 35 33 33 35 29 26 31 28 26 25 27 24 24 28 27 25 25 24 21 22 21 25 23 22 19 26 35 42 44 45 42 43 44
45 45 47 47 48 48 46 48 48 47 33 25 29 32 36 33 28 29 31 25 26 24 25 26 27 26 26 23 25 20 23 23 25 23 15 23 13 20 26 35 40 41 44 41 43
46 45 46 47 49 47 46 50 50 47 12 22 33 37 37 27 24 27 29 27 23 24 26 24 26 26 23 22 25 22 26 25 25 22 21 19 14 16 24 22 29 37 40 42 40
48 45 45 46 46 48 49 52 48 34 13 17 34 34 33 31 23 26 27 28 26 24 28 23 29 27 24 27 26 28 26 25 27 23 17 18 17 14 16 16 19 27 34 40 43
46 46 45 43 42 48 52 48 32 21 20 14 29 33 28 24 23 23 23 24 21 21 22 25 25 26 28 25 28 26 23 20 17 17 16 24 20 16 19 23 25 26 27 35 40
46 47 45 44 44 51 48 42 20 8 16 25 29 30 25 20 21 23 20 20 21 20 18 19 17 22 26 25 21 23 22 20 14 15 15 24 16 16 24 26 28 32 33 34 33
46 46 43 44 45 49 45 33 14 16 24 22 24 27 25 21 19 23 21 19 21 22 17 17 16 25 28 27 24 25 22 24 23 28 19 15 17 18 22 23 26 28 33 33 33
42 41 41 45 45 45 39 29 17 19 26 29 19 27 24 19 20 20 21 21 20 22 19 22 19 26 30 30 30 26 26 21 22 17 14 15 16 11 16 16 22 21 25 32 36
41 37 39 45 44 39 32 27 21 26 30 32 27 22 26 22 20 20 19 22 22 24 22 21 21 25 30 26 22 26 24 24 23 22 17 15 14 17 17 19 23 24 26 30 34
38 32 41 43 34 34 32 30 25 25 32 33 34 35 29 26 21 20 18 19 23 22 23 23 21 21 20 26 27 22 21 23 20 18 23 24 18 19 20 25 25 24 26 31 36
34 36 42 39 27 30 30 30 26 27 27 33 33 34 35 31 24 21 20 23 24 24 20 26 21 19 19 23 26 22 23 22 25 27 22 22 20 23 25 26 26 27 26 28 33
35 30 38 38 29 27 27 27 26 28 25 32 32 35 35 33 30 25 22 27 28 24 27 28 21 20 16 16 17 22 22 23 24 24 21 23 19 20 22 22 22 25 29 28 28
37 31 35 30 31 25 27 24 24 26 29 30 33 33 33 31 30 28 25 30 31 32 26 26 20 21 18 15 15 15 15 23 23 24 20 21 19 20 18 22 21 29 28 32 36
33 33 34 28 29 27 27 27 22 25 26 25 29 32 33 30 28 29 32 32 26 34 28 27 19 24 21 21 20 17 18 18 22 20 22 22 19 20 23 28 28 29 32 37 40
39 35 30 27 27 27 28 26 26 26 25 24 26 25 30 32 35 35 35 34 31 34 32 30 25 23 17 23 22 22 25 21 22 26 24 20 21 21 23 27 28 32 36 38 40

GFSSW_sfc_30mbdewp_048.txt.gz
Dewpoint
54 54 55 56 56 58 58 58 57 56 55 55 55 54 54 54 53 40 41 38 40 37 40 34 32 29 25 23 20 17 14 14 15 19 18 20 22 31 44 40 50 50 55 59 60
51 51 51 52 54 56 57 58 57 56 56 55 55 54 54 54 47 37 39 39 38 37 28 27 22 22 20 18 17 14 14 18 16 15 18 19 23 41 45 44 44 43 49 58 58
50 50 50 50 51 54 56 57 57 57 56 56 55 55 54 52 40 34 48 41 38 39 30 27 18 16 15 15 15 15 14 18 16 20 20 19 25 29 36 45 44 44 51 56 57
50 50 50 50 49 52 55 55 56 57 57 56 56 55 54 49 24 41 48 43 42 36 28 23 18 17 15 16 17 15 15 18 17 23 22 22 33 36 45 53 51 55 57 57 56
46 48 49 50 50 52 53 54 55 56 57 56 56 55 49 35 32 47 54 49 37 33 29 23 22 19 20 18 14 16 16 19 25 26 24 28 37 43 48 54 56 56 56 56 55
47 45 47 49 50 51 51 52 54 55 56 56 56 54 45 33 29 40 44 43 30 30 27 25 23 24 23 22 17 16 20 18 27 26 30 38 41 45 48 49 52 53 54 55 54
46 46 46 47 49 50 50 51 52 53 55 56 54 51 43 36 29 26 35 36 28 25 24 24 24 25 23 23 21 18 15 17 25 28 28 37 35 39 41 44 49 51 52 54 54
47 45 45 46 48 49 50 50 52 53 55 55 53 48 41 35 32 31 31 31 26 24 26 26 26 26 25 25 22 18 15 15 23 30 38 35 34 37 40 41 41 50 51 52 50
50 46 45 45 45 48 49 50 51 53 55 53 49 47 35 33 32 28 29 29 24 25 27 27 26 25 24 21 19 16 13 17 21 28 31 40 40 42 44 40 38 46 47 50 52
49 49 46 46 45 47 49 47 48 53 52 50 45 37 36 27 25 23 25 32 23 25 25 26 24 22 21 18 15 13 13 14 23 28 26 28 40 45 49 37 37 41 46 47 47
49 48 49 46 45 46 46 46 40 47 48 37 30 27 21 29 28 17 20 32 27 24 23 24 23 22 21 19 16 11 12 19 24 26 29 19 23 40 40 40 36 38 44 44 47
48 47 49 47 46 47 45 44 30 42 35 29 30 33 32 32 28 25 18 28 26 24 24 24 24 24 23 21 17 14 12 14 14 23 19 13 18 37 44 41 35 37 42 42 45
46 48 48 47 47 44 41 42 40 42 35 24 19 21 24 27 29 27 24 25 24 23 24 22 23 25 22 21 17 15 14 17 22 22 21 18 14 25 33 32 33 36 39 42 44
46 48 47 46 43 42 36 40 40 45 31 9 10 23 18 24 21 28 24 25 22 21 23 22 22 23 23 17 15 14 17 17 19 18 14 22 17 20 22 34 32 33 37 39 40
47 47 47 46 42 43 46 47 44 48 6 7 14 29 28 24 22 23 25 25 22 21 22 22 22 20 23 19 18 17 24 22 20 18 17 20 21 18 22 26 30 32 35 39 40
47 47 46 44 44 42 44 47 47 31 11 9 28 27 26 26 24 22 24 23 24 21 22 20 21 21 23 22 20 20 21 23 22 21 19 19 17 23 24 28 25 31 35 36 38
47 46 46 39 41 41 48 46 32 16 4 1 20 27 26 27 25 25 22 20 21 19 20 19 19 21 22 20 21 21 21 21 20 18 19 20 18 21 26 27 24 28 32 36 36
47 46 44 39 42 43 46 41 18 8 11 18 14 22 25 27 27 26 21 19 22 19 19 17 17 19 22 21 21 22 21 23 24 25 26 27 18 17 24 22 21 21 22 32 36
46 44 41 42 44 45 41 30 18 13 8 9 15 18 22 25 24 25 20 20 21 21 18 17 18 19 22 22 22 21 20 23 30 29 28 27 25 24 20 17 18 21 23 27 27
44 42 40 41 43 43 36 28 20 16 15 10 6 11 18 23 22 22 23 22 22 22 21 20 20 19 19 21 22 21 23 22 21 22 22 15 13 15 18 16 16 16 22 28 32
43 37 39 41 44 40 30 29 24 22 19 15 10 8 12 15 23 20 21 22 24 22 21 21 20 19 19 19 18 21 21 27 25 21 21 20 20 30 24 17 17 19 21 22 27
41 32 39 43 35 36 29 30 28 20 19 21 17 17 13 17 17 28 18 21 22 21 20 21 21 20 19 20 23 23 22 25 23 23 27 28 23 24 24 20 20 22 22 23 26
37 36 40 41 27 30 31 25 26 24 18 18 19 20 17 19 21 25 27 21 23 22 21 22 20 20 19 26 24 22 22 23 23 24 23 27 25 23 22 21 21 22 23 25 26
37 30 38 39 31 29 27 25 23 25 22 17 20 17 17 22 30 25 28 21 26 24 25 28 21 20 22 25 23 22 22 26 27 26 26 25 24 23 21 24 21 22 22 23 25
37 33 35 30 32 28 28 22 21 20 23 21 17 19 18 28 27 29 29 31 26 27 27 26 25 22 21 20 21 22 21 21 20 20 21 23 21 21 20 25 26 27 26 24 23
32 31 33 27 32 29 29 26 22 20 18 19 20 20 19 23 24 23 29 29 27 26 27 26 24 24 24 21 20 23 25 19 18 17 17 19 19 19 18 22 24 18 20 25 25
39 36 30 29 31 30 29 27 24 22 19 17 19 22 21 23 28 39 34 38 33 30 28 27 28 24 23 23 21 19 22 20 18 16 16 15 19 19 19 21 19 19 22 24 27

GFSSW_sfc_30mbdewp_051.txt.gz
Dewpoint
52 52 52 52 52 54 55 56 57 57 57 57 56 56 56 56 54 47 41 42 45 41 41 36 34 32 31 29 26 24 18 14 14 18 19 22 29 42 44 47 50 48 50 56 59
50 50 50 51 51 52 54 55 55 56 57 57 56 56 56 55 50 42 40 40 39 40 27 26 29 27 24 22 23 20 16 14 16 19 19 20 22 41 43 40 44 47 51 59 59
48 49 50 50 51 51 52 53 54 55 57 57 57 56 56 55 45 37 50 41 39 38 29 28 29 21 18 18 16 16 14 15 16 20 21 24 40 47 47 46 45 46 53 57 57
48 47 47 48 50 51 52 52 52 54 55 56 57 57 56 51 22 41 45 44 42 34 31 28 26 16 19 17 15 16 16 15 16 26 24 37 43 46 46 50 54 57 57 57 56
45 46 47 47 49 51 51 51 51 52 54 55 57 57 51 42 39 46 49 48 40 33 31 26 25 21 19 18 22 19 17 21 19 27 36 40 39 43 42 53 55 56 57 56 55
46 45 45 46 47 49 50 51 50 51 52 54 56 55 50 38 38 45 46 45 34 31 29 30 27 24 23 24 22 21 19 17 18 27 36 36 41 39 45 51 53 53 54 55 53
48 48 45 45 46 47 49 50 50 50 52 54 55 53 48 40 39 39 41 42 36 30 27 27 26 24 26 25 27 25 22 20 16 26 37 39 36 36 46 45 52 53 53 54 53
49 48 48 44 44 46 47 48 49 49 50 53 55 51 44 41 41 40 39 34 37 30 27 25 27 27 26 26 24 23 21 17 17 28 38 35 34 37 40 42 51 51 53 53 53
50 49 48 48 45 45 46 48 48 48 49 53 51 47 42 38 37 38 33 30 33 28 25 25 26 25 25 23 23 22 19 17 17 34 38 37 38 35 44 44 49 51 51 50 52
48 50 48 48 48 47 46 46 46 48 51 53 50 43 43 27 31 33 32 28 31 24 24 27 25 23 23 22 19 19 19 16 23 26 34 38 36 37 39 46 45 48 51 51 52
48 48 48 48 49 47 47 43 42 45 49 45 40 33 25 34 32 27 27 25 32 26 23 25 23 22 22 23 22 21 17 14 15 26 24 35 36 36 40 45 43 46 50 50 50
48 46 48 48 49 47 46 41 42 41 39 42 44 42 36 39 34 29 20 25 31 28 24 23 22 23 25 25 24 22 17 13 23 25 27 32 36 38 43 45 42 45 46 47 48
48 47 47 48 48 45 41 40 41 39 39 36 34 29 28 28 29 30 20 25 29 26 25 23 24 25 25 25 22 19 16 15 22 23 23 21 35 39 40 43 43 45 45 47 49
48 48 47 47 43 42 40 45 47 44 36 24 16 22 22 22 26 29 31 24 26 25 25 25 26 24 24 24 22 15 16 21 22 20 16 21 17 35 39 41 44 41 43 45 49
47 48 47 46 44 41 43 43 43 48 -7 7 14 17 18 20 22 22 28 28 22 23 23 23 23 24 23 23 23 17 21 24 24 22 21 20 21 21 37 39 41 40 43 42 50
48 48 47 45 44 44 43 43 48 34 22 12 27 26 21 17 22 23 22 26 26 23 23 22 25 24 23 24 24 23 23 23 24 23 20 21 21 23 24 27 35 37 39 43 44
48 48 46 42 38 43 45 45 34 26 9 -2 26 27 26 23 19 22 22 20 21 23 23 23 22 23 22 21 24 22 20 20 23 21 19 27 24 22 26 28 32 34 37 40 43
48 48 46 43 41 41 44 39 26 12 12 14 15 27 26 26 26 25 24 23 23 22 21 21 19 21 22 21 21 21 21 22 21 24 26 29 22 22 25 27 27 29 35 38 40
47 46 44 43 43 42 40 30 19 15 12 2 8 12 25 27 27 26 25 24 26 22 20 19 19 21 20 22 21 21 21 24 30 33 29 28 27 25 25 23 20 21 24 35 38
45 43 41 43 44 42 35 29 27 19 13 11 13 14 13 20 26 26 26 26 25 22 23 23 19 21 21 20 23 21 24 21 29 24 27 24 26 22 24 19 17 18 23 29 34
44 37 41 44 44 38 28 28 25 29 28 18 14 15 17 17 16 17 24 25 25 22 23 22 21 22 23 22 21 22 21 22 27 28 21 19 21 29 25 25 17 18 23 28 31
42 32 41 42 34 33 29 29 29 23 27 26 22 19 20 21 20 20 20 28 26 25 22 22 24 20 20 23 22 23 22 22 25 25 30 28 23 28 24 24 25 21 22 24 34
37 36 41 40 28 30 30 29 31 29 26 23 20 20 20 20 20 20 28 30 32 26 24 23 22 19 19 22 23 19 21 24 26 30 28 23 26 28 28 26 21 22 24 26 25
36 30 37 39 32 28 28 28 28 29 29 28 25 24 21 21 22 20 28 32 36 26 27 24 23 21 18 21 25 25 24 24 25 24 25 28 27 28 27 26 20 22 25 26 26
36 32 34 30 32 30 28 26 26 27 26 24 24 24 21 18 21 20 29 33 36 36 26 25 21 22 24 22 24 25 26 24 23 26 26 26 25 26 26 24 26 28 26 26 27
32 34 34 29 32 32 29 27 25 24 23 23 22 22 22 19 20 22 33 35 37 38 31 29 24 23 22 24 24 21 21 25 25 25 28 27 26 30 26 26 26 25 27 26 23
40 38 33 30 32 31 29 28 27 27 26 24 23 23 23 23 21 34 40 42 41 39 39 33 26 25 22 24 23 21 23 23 26 27 21 19 20 22 23 24 24 26 26 26 25

GFSSW_sfc_30mbdewp_054.txt.gz
Dewpoint
50 50 51 51 52 52 52 53 54 55 55 56 57 57 57 57 55 48 36 33 44 46 43 37 32 31 30 29 28 24 21 19 18 14 18 32 33 43 48 48 49 49 51 54 59
48 48 48 49 51 52 52 52 52 53 54 56 56 57 57 56 52 41 41 44 48 47 30 24 30 32 29 25 23 21 18 18 18 17 31 44 41 44 44 45 45 46 52 59 58
47 47 47 46 49 50 51 52 51 51 52 54 55 56 57 56 44 32 46 46 49 42 27 26 27 28 22 22 20 18 16 16 16 17 34 41 41 47 39 36 50 51 53 57 56
46 45 46 46 47 48 50 51 51 50 50 51 54 55 56 52 17 40 49 47 45 36 27 26 26 20 16 17 18 15 16 17 17 25 36 39 44 46 47 51 56 56 57 56 56
48 47 45 45 46 48 48 49 50 50 50 50 53 54 53 44 40 42 46 47 41 32 27 22 24 23 18 19 21 22 21 23 21 36 39 41 40 42 50 54 56 56 56 56 55
49 48 48 46 45 46 47 48 48 49 50 50 51 55 50 35 35 39 47 45 34 30 29 28 26 25 24 24 24 25 25 23 19 36 38 35 39 41 43 53 53 54 55 54 54
49 50 49 48 48 46 47 47 48 48 49 49 50 53 47 42 41 41 45 43 38 32 27 28 28 27 25 23 27 25 22 21 21 32 34 39 36 36 48 53 52 52 54 54 53
49 50 50 49 48 49 47 47 48 47 48 49 50 52 42 45 44 43 42 41 38 36 30 28 27 27 27 27 25 23 23 18 19 34 37 37 30 36 49 52 52 52 52 52 51
49 49 50 49 48 49 48 48 48 47 48 50 50 48 38 45 42 41 39 33 33 35 32 28 26 25 24 23 21 23 16 19 20 26 36 36 32 38 42 44 52 52 52 51 51
49 49 49 49 49 48 48 47 45 48 48 52 51 42 40 21 32 33 37 32 28 31 30 25 26 23 23 22 12 15 20 19 17 30 35 35 34 36 44 49 50 51 51 51 51
47 49 48 47 48 49 48 42 35 43 47 44 44 37 30 29 37 31 32 30 28 27 23 25 23 22 22 22 22 22 21 20 21 22 31 28 31 34 41 45 50 51 49 50 51
48 48 48 47 47 48 47 40 39 38 35 38 43 43 41 40 37 33 30 25 26 26 25 22 22 24 25 24 23 23 23 23 18 26 26 31 30 37 38 42 44 49 50 50 51
48 47 48 47 46 46 43 39 40 43 39 35 35 38 39 40 37 27 30 24 27 29 27 22 23 24 24 23 23 24 24 22 16 23 25 30 30 38 39 42 44 47 50 50 50
48 47 48 47 42 42 41 43 42 42 32 26 29 27 30 30 30 31 30 20 28 28 29 25 24 23 25 24 24 23 24 19 20 21 18 21 17 31 38 36 42 45 47 47 49
48 48 48 46 41 40 41 42 44 45 -23 -3 20 26 28 20 22 25 23 28 22 26 26 25 25 25 24 24 25 23 24 20 24 22 22 21 19 21 37 36 40 44 45 46 48
48 48 48 46 45 43 42 43 46 33 11 18 22 18 21 20 21 24 26 29 27 24 24 23 25 25 25 25 25 25 23 24 25 24 20 22 21 22 35 34 39 40 44 46 48
47 47 47 44 37 41 40 43 33 22 14 1 25 25 17 17 15 21 21 24 24 21 20 22 22 23 24 23 23 24 21 18 19 20 19 25 26 24 31 35 39 39 42 44 48
47 47 47 45 43 41 40 38 25 20 10 15 14 26 23 20 16 17 21 19 24 23 23 22 20 23 24 22 21 23 21 19 17 20 24 29 23 22 27 29 38 40 39 42 44
47 46 45 45 44 42 37 28 24 22 16 12 9 6 26 26 26 19 22 22 22 23 21 22 21 23 22 22 23 22 20 24 26 33 28 27 28 27 26 24 29 36 37 39 43
45 44 41 44 44 41 32 28 29 28 24 23 12 16 15 20 22 26 26 26 24 25 24 22 21 23 22 23 22 22 25 23 28 22 21 25 27 24 23 21 20 24 32 37 40
45 38 41 44 43 37 27 28 28 30 29 27 22 16 18 19 20 18 24 27 27 26 27 24 22 21 24 23 21 21 21 24 25 26 20 20 21 27 26 24 20 18 27 32 38
42 33 42 43 33 32 27 27 29 27 28 26 26 22 20 20 21 20 20 22 32 27 24 24 22 19 21 23 24 23 22 22 21 25 27 24 23 27 26 25 23 22 25 32 35
38 36 43 40 27 28 27 27 29 29 28 26 23 24 20 21 19 23 23 24 33 34 29 25 22 20 20 21 23 21 22 23 25 27 24 24 25 30 27 25 27 25 24 25 33
35 31 37 38 33 28 26 25 26 29 28 29 29 28 24 22 22 20 22 24 30 36 37 35 24 21 19 21 23 23 22 23 24 24 24 27 26 28 28 27 27 25 24 25 31
35 32 35 30 31 31 28 25 24 24 29 29 27 26 27 22 17 17 22 31 32 38 37 36 25 24 23 23 24 22 23 24 23 24 23 25 27 28 29 28 27 26 26 26 26
32 33 36 30 32 32 29 27 26 27 26 26 26 23 25 24 22 18 22 27 30 35 36 39 33 24 23 24 24 22 21 24 25 26 28 26 28 29 29 28 27 27 27 25 25
41 37 33 32 30 31 29 27 27 28 27 27 26 25 23 23 24 26 35 33 37 34 34 36 37 34 24 24 23 21 23 24 23 25 27 25 28 29 28 27 28 27 27 26 26

GFSSW_sfc_30mbdewp_057.txt.gz
Dewpoint
49 49 48 49 49 50 51 51 52 51 50 50 53 55 56 56 55 50 38 36 44 49 42 35 30 29 29 28 28 24 20 19 19 16 16 36 36 44 47 47 49 49 50 55 58
47 47 47 48 49 49 50 51 51 51 50 50 51 54 54 55 52 41 42 43 48 47 31 28 30 32 29 28 25 22 19 18 20 18 17 37 40 39 43 44 45 47 55 58 58
47 46 46 46 47 48 49 49 50 50 50 50 51 52 53 54 42 27 46 46 52 45 27 24 28 27 25 23 21 20 16 16 16 17 24 41 44 46 43 39 47 49 52 57 56
48 47 47 46 46 46 48 49 49 48 48 48 49 50 53 52 3 39 52 50 53 41 27 25 24 24 17 16 18 15 17 17 19 20 36 39 42 44 46 47 55 54 54 56 55
50 49 48 47 48 49 47 48 48 48 48 48 49 50 52 43 37 42 46 48 43 30 25 22 23 22 17 18 21 20 23 24 24 32 37 41 38 43 50 55 56 56 56 55 55
50 50 49 49 49 49 49 48 48 48 49 48 48 49 48 31 33 40 48 45 34 30 28 26 20 24 22 23 24 24 25 24 23 35 39 35 38 41 48 54 55 55 54 54 54
49 49 49 48 49 49 49 49 49 49 49 48 48 48 45 36 42 40 38 41 38 31 27 29 27 27 25 24 26 25 21 22 23 34 34 38 35 36 45 53 52 53 53 52 53
48 49 49 49 49 48 49 49 50 49 49 48 48 48 40 44 45 44 43 37 38 35 33 30 28 27 26 26 24 22 22 18 23 31 34 36 23 34 49 52 51 52 53 51 51
49 49 49 49 49 48 48 49 49 48 48 48 48 48 38 44 41 43 41 30 31 34 35 32 28 25 24 23 21 22 13 17 18 25 31 35 29 36 51 52 51 52 51 51 50
48 48 49 49 48 48 48 48 47 48 47 50 50 40 38 27 30 35 41 35 29 31 32 30 27 23 24 21 16 14 17 19 18 24 35 35 34 36 44 45 47 51 51 51 50
48 48 48 49 48 48 47 43 33 41 42 39 41 39 36 35 39 36 34 33 29 28 27 25 22 21 22 22 21 20 20 20 21 23 27 30 33 33 43 47 49 50 50 50 50
49 48 48 48 49 48 46 40 38 40 37 39 37 41 43 42 37 33 33 28 27 24 26 24 21 21 24 24 23 22 21 21 23 24 27 27 27 34 39 43 49 49 50 49 50
49 49 48 48 48 44 42 41 41 42 38 39 36 33 30 40 36 31 31 26 25 24 25 24 23 23 24 23 23 23 23 23 23 24 28 28 25 33 37 40 44 49 51 50 49
49 48 48 47 42 42 41 43 41 43 32 20 31 28 33 36 34 32 25 25 28 22 29 26 25 24 24 22 23 21 24 24 23 20 18 23 18 20 35 36 41 43 49 50 50
48 48 48 48 40 39 39 40 41 44 -10 -5 23 29 32 26 17 28 28 24 21 27 28 27 26 25 23 22 25 23 26 25 24 22 21 21 19 20 37 34 35 40 46 49 50
48 48 48 47 46 44 43 40 43 33 11 6 21 25 28 26 19 26 27 28 26 24 26 25 26 26 25 25 25 25 25 25 27 24 20 21 21 21 28 28 31 37 44 47 48
48 47 47 45 38 41 41 40 33 24 16 6 20 21 21 20 17 22 21 23 23 21 19 21 22 24 24 22 24 25 22 20 18 20 19 26 25 24 25 30 31 34 40 46 47
47 47 47 46 44 42 40 35 25 22 14 16 13 20 17 18 15 15 22 15 25 24 20 17 15 21 24 23 21 23 22 20 16 17 18 29 24 24 27 28 32 37 39 44 46
46 46 45 46 43 42 34 27 25 25 21 22 12 14 21 25 21 18 19 19 18 24 20 20 20 24 23 23 23 22 21 24 23 32 27 25 27 28 26 26 31 37 40 41 45
44 44 41 45 45 41 30 26 32 30 29 28 12 16 17 19 21 22 22 24 22 22 24 23 20 24 22 23 23 22 26 22 27 20 21 23 26 22 24 24 26 30 38 39 42
43 38 42 44 43 36 25 24 27 28 29 28 26 22 20 20 21 18 22 27 28 26 25 23 22 21 23 22 20 22 21 24 26 25 18 19 21 26 25 28 23 21 25 37 39
41 33 43 44 33 33 27 25 26 26 29 28 29 25 21 22 21 20 19 21 30 30 26 26 24 21 21 22 24 22 22 23 20 23 27 23 20 26 27 28 27 22 21 28 37
37 35 43 40 27 27 28 26 26 27 26 26 24 26 23 20 15 19 24 25 31 31 31 34 25 20 21 21 23 21 22 23 27 27 24 22 22 29 29 27 26 26 28 25 30
34 30 36 38 34 28 28 26 25 28 29 30 29 29 25 21 23 19 21 22 23 37 38 38 30 23 21 21 22 21 21 22 23 21 22 25 23 26 28 27 28 28 28 26 25
34 31 35 29 30 30 28 26 25 25 27 29 27 26 26 25 22 21 20 22 24 36 37 36 32 34 28 23 23 23 23 23 23 24 22 22 25 26 27 27 28 29 29 26 24
31 32 36 32 32 31 29 26 24 24 25 25 25 27 25 24 23 19 20 21 23 32 33 37 32 35 30 26 24 22 23 23 23 24 26 26 25 30 30 30 29 28 28 27 25
40 38 36 34 32 31 28 27 28 27 27 25 27 27 26 26 26 26 26 27 31 32 33 33 32 33 30 32 26 23 24 23 24 26 26 25 27 28 28 29 29 29 28 27 26

GFSSW_sfc_30mbdewp_060.txt.gz
Dewpoint
48 48 47 47 47 48 49 49 49 49 49 49 49 50 51 52 53 51 34 32 43 46 42 34 29 28 28 26 27 24 21 19 20 18 16 27 28 42 47 47 49 49 49 55 57
50 48 46 46 47 46 47 49 49 48 48 48 49 50 50 52 51 44 41 45 48 49 33 29 31 31 28 28 27 23 20 19 20 19 17 19 31 39 42 44 45 47 53 57 57
48 48 48 48 48 49 49 48 49 48 48 49 49 49 51 52 42 20 51 50 51 44 29 26 32 28 25 24 22 21 18 17 18 19 19 20 39 45 43 38 42 44 49 55 56
48 48 48 48 48 48 50 50 50 49 48 48 48 49 50 51 2 38 53 50 54 43 27 24 25 25 20 19 19 18 18 18 19 22 28 31 41 41 41 39 51 54 53 55 54
49 48 47 47 47 48 49 49 49 50 50 48 48 48 48 41 32 40 50 54 47 32 27 23 22 22 17 17 19 17 20 23 24 25 33 40 39 41 46 53 56 56 55 54 54
50 50 49 47 47 47 49 47 48 49 50 49 48 48 47 24 32 42 43 46 34 29 28 24 20 24 21 21 22 24 24 25 24 26 36 35 37 41 40 54 54 54 52 52 53
49 49 50 49 48 48 49 48 47 48 48 49 49 47 42 27 39 39 41 39 38 30 28 28 25 26 25 24 26 25 23 22 20 28 32 38 34 36 42 53 53 53 53 52 52
47 49 49 49 49 49 49 48 47 46 48 49 49 47 35 42 45 44 43 36 36 35 33 32 29 25 25 26 25 23 22 17 20 31 34 35 24 30 47 51 51 52 52 50 50
49 49 49 49 49 49 48 48 45 46 49 49 46 44 30 42 41 41 42 31 28 34 34 31 28 25 25 23 22 22 17 15 17 26 32 35 27 36 49 51 49 51 51 50 50
49 49 49 49 48 49 49 46 43 47 47 47 46 36 30 10 31 37 43 38 28 31 33 32 28 24 23 21 17 18 18 19 18 23 31 32 30 35 47 50 50 50 51 50 50
49 49 49 49 49 49 47 40 37 38 39 39 40 32 32 38 40 37 37 36 30 30 23 29 27 23 22 22 20 18 19 18 18 21 23 23 27 26 37 48 47 47 50 50 49
49 49 49 49 49 49 46 36 38 40 36 38 39 39 40 42 40 33 35 30 26 24 27 24 24 25 23 23 22 21 21 19 20 23 24 24 25 29 36 42 45 45 47 49 49
49 49 49 49 48 43 41 40 43 40 37 35 36 33 28 34 34 28 31 28 25 25 25 24 24 23 23 23 22 22 21 19 20 24 24 27 25 27 34 39 45 49 49 50 49
48 49 49 48 43 42 38 40 39 41 31 27 34 31 29 34 32 30 28 26 27 22 26 25 26 24 23 21 23 19 23 21 22 22 21 25 20 21 24 33 40 43 49 49 49
47 48 48 48 42 40 36 42 39 44 9 2 28 29 35 24 18 29 28 25 25 24 26 23 26 24 23 23 23 18 24 23 24 23 22 22 19 20 33 26 28 37 43 48 50
46 47 46 46 46 44 44 41 41 31 19 10 22 27 32 31 23 29 27 25 25 27 27 24 27 26 24 25 25 26 25 25 27 24 21 21 21 20 21 23 26 31 39 44 49
46 45 46 45 39 41 42 38 29 24 21 10 16 25 26 24 23 24 23 23 16 18 21 23 25 25 24 23 25 24 23 20 19 21 20 23 22 22 25 26 29 29 34 42 48
45 45 46 46 44 43 40 33 23 25 25 23 19 17 19 20 19 20 21 20 23 22 19 17 15 22 23 22 22 24 23 20 17 18 18 27 23 22 27 29 29 31 34 43 47
44 44 44 46 44 42 34 23 24 25 26 26 20 16 21 22 21 17 18 15 19 24 16 17 16 22 23 24 22 21 21 24 23 30 26 25 26 27 25 25 26 33 38 40 45
42 41 40 46 44 41 31 22 28 31 29 28 20 21 18 20 21 20 19 26 16 24 25 23 19 24 23 24 24 22 26 23 26 20 20 22 25 20 21 21 25 28 34 39 43
40 36 40 46 45 36 26 26 23 24 29 27 26 24 21 21 22 19 26 25 28 28 26 24 22 20 22 22 21 22 21 24 25 25 19 18 21 27 23 26 27 26 27 35 40
39 30 43 45 33 32 28 30 23 23 27 27 29 28 23 20 16 22 23 25 26 34 24 25 24 20 19 22 24 22 22 23 20 21 26 22 20 25 26 27 28 27 25 22 33
34 34 43 42 28 28 32 30 25 23 26 27 26 28 26 22 11 20 22 26 24 23 36 34 25 21 21 22 24 22 22 23 27 25 22 21 21 27 26 26 28 26 26 27 27
34 28 34 38 36 30 28 27 26 27 25 29 28 28 26 23 22 20 20 21 22 19 30 39 32 26 22 23 23 22 21 22 23 21 22 23 23 25 27 27 26 28 28 28 28
35 30 34 29 30 30 29 26 26 24 27 28 27 27 26 22 22 19 22 24 24 24 36 36 30 34 32 31 29 25 23 23 21 23 21 21 23 25 26 26 27 27 28 29 28
31 31 35 33 32 32 30 27 24 25 26 26 26 26 27 25 23 20 21 20 19 28 29 34 30 33 26 32 31 29 24 23 23 24 24 24 24 27 28 29 28 28 29 29 29
38 38 37 33 32 30 29 27 26 26 26 26 26 26 25 25 26 26 26 26 26 25 28 33 31 29 26 31 28 25 26 26 25 25 24 23 25 26 28 29 29 29 30 29 30

GFSSW_sfc_30mbdewp_063.txt.gz
Dewpoint
50 50 49 49 49 49 49 48 49 49 48 48 48 49 49 51 51 50 37 28 45 49 45 40 30 29 27 25 26 25 22 19 20 19 17 20 27 40 46 45 48 49 49 53 57
48 48 48 48 49 50 50 51 50 50 49 49 49 50 50 50 49 44 44 46 48 51 32 26 25 27 24 27 26 24 22 20 21 20 18 19 24 27 40 44 45 47 50 56 57
47 47 47 47 48 49 50 50 50 48 49 50 50 50 50 51 38 20 54 54 51 50 31 29 31 30 26 26 25 23 19 21 19 20 20 19 32 40 40 38 42 43 48 53 55
47 48 48 47 47 47 49 49 48 46 48 48 49 49 49 50 -12 35 54 52 55 47 28 29 31 26 24 22 23 20 20 19 18 20 24 24 38 42 43 41 50 51 52 54 53
48 48 48 48 49 49 49 49 49 47 47 48 49 49 47 36 21 38 46 56 54 37 26 23 25 24 22 18 18 19 18 20 20 24 26 38 36 39 42 49 55 55 55 54 53
49 49 48 48 47 47 48 49 48 48 47 46 48 48 44 18 27 41 40 45 39 31 28 24 20 23 21 19 19 23 20 22 25 23 31 32 35 40 39 53 54 54 53 52 53
48 49 49 48 48 47 48 48 48 48 47 46 48 47 41 18 34 37 39 39 38 31 29 27 25 24 24 23 26 25 24 24 23 23 28 38 32 34 42 53 52 51 52 52 51
47 49 50 50 49 49 49 49 48 47 47 48 48 45 36 38 43 43 41 36 36 33 34 30 29 25 23 26 25 23 23 20 18 31 34 34 19 29 45 50 51 51 52 51 50
48 49 50 50 50 49 49 48 47 46 49 49 46 42 29 37 40 40 41 31 31 31 33 32 29 25 26 20 22 23 17 17 16 26 32 33 24 32 49 49 49 51 51 50 49
48 49 49 49 49 49 49 47 44 47 47 47 44 31 30 14 31 38 43 38 27 30 32 31 27 24 24 18 11 18 20 20 18 25 29 29 29 29 43 49 47 49 51 50 49
47 48 49 49 49 49 47 39 36 35 38 38 38 30 29 42 42 38 40 38 31 29 31 31 27 22 18 22 20 20 19 18 18 20 21 23 25 25 32 46 47 49 50 50 49
47 48 49 49 49 48 43 36 40 39 34 36 37 37 39 39 37 34 36 31 28 20 29 27 26 27 24 23 21 21 20 20 21 23 22 24 24 25 32 37 44 45 47 49 50
47 48 48 49 48 42 41 40 40 40 34 33 34 34 33 34 31 27 30 31 25 25 24 24 23 27 24 23 22 22 21 21 18 23 24 25 23 23 29 38 42 45 45 48 50
45 46 47 47 41 42 37 42 42 40 31 28 32 34 30 32 30 29 25 26 27 22 26 21 24 25 24 22 22 20 23 22 21 18 19 24 19 23 23 27 35 40 46 48 49
45 46 46 45 43 40 39 44 41 43 13 15 29 31 32 23 20 30 28 24 20 25 26 23 25 24 22 21 23 18 23 23 22 21 23 23 20 21 26 24 25 30 42 47 49
44 45 46 43 46 43 44 41 41 30 16 21 25 29 29 28 26 30 26 25 23 25 28 22 29 25 20 24 23 24 23 26 27 25 22 22 21 19 22 23 25 28 36 44 48
44 46 45 44 40 42 42 37 27 21 23 17 20 21 21 22 28 26 24 21 17 21 25 24 24 25 26 23 25 24 22 20 21 22 21 24 21 20 24 25 27 28 30 40 47
44 43 43 44 45 43 40 31 21 18 25 26 24 22 19 22 23 23 23 18 19 19 20 20 18 24 25 24 23 23 21 21 18 19 19 26 21 20 27 29 30 30 31 36 46
43 41 42 43 46 44 35 23 19 20 27 27 25 19 21 22 22 21 21 20 16 23 16 18 18 21 24 24 25 25 22 25 24 29 24 24 26 26 25 24 26 27 36 39 45
40 39 38 45 46 42 31 24 21 29 28 28 23 25 20 22 22 22 23 24 23 22 26 22 18 23 22 24 24 24 26 21 24 19 20 22 24 20 21 21 24 28 28 38 43
38 34 37 45 44 36 26 27 23 23 23 27 26 25 24 22 20 25 25 20 23 30 25 26 21 22 24 21 21 22 22 25 25 24 19 18 20 28 24 24 25 29 29 29 39
35 28 42 45 32 32 29 30 26 22 26 27 28 28 26 22 18 20 23 25 26 23 27 25 24 18 21 23 24 23 22 24 20 23 26 23 20 24 27 28 28 28 29 28 26
33 31 42 41 26 27 31 30 27 24 24 27 26 29 28 23 17 21 22 23 24 21 21 36 24 20 20 20 24 22 22 25 27 25 21 21 21 26 27 26 28 28 29 28 29
34 27 33 37 35 29 29 28 26 28 25 25 28 28 25 24 23 19 19 20 25 25 31 38 34 25 18 25 30 24 22 23 23 22 22 24 23 24 24 26 27 28 29 30 29
34 29 32 27 27 30 30 27 25 24 26 27 25 26 24 21 22 19 19 22 20 30 30 36 31 34 33 31 32 30 28 25 22 23 20 21 23 24 25 26 27 30 30 30 29
31 30 34 31 33 29 31 27 25 25 25 25 26 27 27 25 23 19 23 22 21 26 26 27 29 32 27 30 29 28 28 26 24 24 24 24 24 26 26 28 28 28 29 29 29
37 37 34 27 29 30 30 28 26 26 27 25 27 26 25 25 27 27 28 27 26 25 25 27 32 29 21 30 27 25 24 25 27 26 26 24 26 28 27 27 29 29 31 31 31

GFSSW_sfc_30mbdewp_066.txt.gz
Dewpoint
48 48 48 48 49 49 50 50 49 48 49 50 50 50 51 51 49 36 33 30 39 49 46 42 35 29 27 23 26 24 15 11 10 13 16 19 23 24 34 32 42 44 44 48 53
48 48 48 48 48 49 49 49 49 48 47 48 49 50 51 51 43 28 29 42 48 53 36 35 29 25 20 19 22 20 13 10 14 15 17 20 21 24 30 28 35 42 47 51 53
47 47 48 49 48 49 49 50 49 48 47 47 49 50 51 49 26 12 52 56 53 52 35 33 26 21 14 17 18 17 13 11 17 18 18 20 22 29 28 23 27 34 43 49 53
47 48 48 48 47 48 50 50 49 47 46 47 47 49 50 43 -7 33 47 54 55 45 32 28 25 18 16 16 16 16 17 14 15 17 19 21 24 28 31 31 43 41 47 51 52
48 48 48 47 47 47 48 48 48 47 47 46 46 48 42 24 8 14 41 51 48 39 29 27 25 20 17 15 17 19 12 16 18 18 20 24 25 25 29 34 46 49 51 52 52
48 48 48 48 48 48 49 49 49 49 48 47 46 47 40 21 14 29 37 37 38 37 29 25 24 23 19 17 16 14 16 14 14 18 21 25 21 34 25 34 47 49 49 51 52
47 48 49 49 49 49 49 50 49 49 49 47 47 45 40 24 23 23 23 27 37 32 32 32 27 21 17 17 19 18 18 17 19 20 19 26 21 24 27 44 45 47 49 50 50
48 49 50 50 50 49 49 49 49 49 48 48 48 45 36 26 31 32 29 24 23 36 32 28 31 27 24 20 23 19 18 14 13 15 21 28 12 16 35 42 44 45 49 50 50
48 49 49 50 50 50 49 49 48 47 48 50 46 43 27 31 33 30 36 29 19 32 32 33 31 28 25 20 16 20 14 14 13 18 22 29 17 30 39 39 39 45 48 49 49
46 48 48 49 50 49 49 47 43 47 46 45 43 35 29 24 20 35 42 39 27 20 28 32 29 26 24 19 13 14 17 14 14 18 22 21 24 22 29 37 40 41 46 48 48
46 46 48 49 49 49 44 34 30 31 32 29 30 34 34 30 34 31 42 40 33 18 24 31 26 23 21 21 17 14 14 13 11 15 16 14 17 21 23 32 39 40 43 47 48
45 46 47 48 48 48 41 36 39 38 33 32 32 30 29 33 32 34 40 35 32 18 20 30 27 24 23 20 19 15 14 13 13 19 19 11 17 21 21 26 31 38 41 45 48
45 45 46 47 46 43 39 37 40 39 32 29 31 30 30 30 29 29 31 31 27 27 16 23 22 26 25 21 18 16 14 14 14 19 19 20 19 19 19 28 34 37 38 43 47
45 46 46 45 41 39 36 41 40 41 29 21 29 31 33 29 27 28 33 31 21 22 24 19 17 22 24 23 19 15 17 17 17 17 7 22 14 16 19 19 24 29 39 40 45
44 45 45 45 38 37 38 41 40 41 7 16 23 32 28 23 19 24 32 30 22 19 24 21 17 17 19 19 19 18 17 20 19 18 14 13 18 13 19 19 18 20 30 40 44
44 44 45 38 42 40 41 41 39 28 5 18 24 27 27 25 21 30 25 27 28 30 31 27 24 20 17 19 22 21 20 20 20 16 15 16 19 14 14 19 19 22 27 36 43
43 43 42 39 35 43 43 36 25 11 12 17 20 23 21 19 25 25 26 22 19 20 22 26 22 24 22 17 21 21 18 17 16 17 13 19 20 18 18 19 22 25 26 33 41
43 43 39 38 41 43 41 31 18 8 12 20 24 21 14 22 22 24 26 22 22 20 15 16 19 21 26 20 21 19 18 16 13 15 17 22 19 18 21 22 26 27 27 31 39
42 37 38 37 42 44 36 22 9 11 20 25 22 17 18 21 22 22 22 20 19 19 15 17 19 23 24 25 22 21 20 21 21 26 20 20 21 23 21 21 22 25 29 33 36
38 36 33 36 42 42 32 22 18 20 28 27 17 21 19 20 22 27 24 25 23 18 19 19 17 21 22 25 24 24 23 20 21 18 18 18 20 18 19 20 20 26 27 33 39
37 31 31 39 41 35 26 23 22 20 22 25 25 24 22 20 19 29 33 31 27 21 20 23 21 22 21 23 20 22 22 23 21 19 18 18 19 24 22 22 23 25 27 30 37
33 26 40 43 31 29 27 23 29 22 20 21 25 26 25 23 20 22 30 26 28 28 23 24 25 20 20 22 21 20 21 22 20 21 22 22 20 25 27 26 28 26 26 30 28
29 26 39 41 25 25 28 26 28 24 21 20 21 26 25 23 18 18 31 30 25 27 27 32 22 15 17 21 23 22 21 21 20 21 21 22 19 25 27 25 25 27 25 27 30
32 26 28 35 32 27 23 22 25 26 23 22 23 27 24 22 22 19 18 27 30 30 30 33 29 20 11 15 24 21 21 21 23 21 20 18 19 21 22 23 23 24 26 29 30
33 29 24 27 26 27 27 24 27 23 25 23 22 21 21 21 20 20 19 18 25 27 26 30 34 33 31 31 30 29 28 25 21 20 20 20 20 21 22 23 25 27 28 28 28
31 29 32 24 32 29 26 25 24 21 22 21 22 22 24 22 21 19 22 21 21 27 25 27 31 29 25 27 28 27 27 27 25 24 24 23 23 25 26 27 27 27 28 26 29
37 36 34 23 23 23 27 25 27 28 24 23 24 26 27 27 28 27 27 27 26 26 25 25 28 27 22 24 21 22 26 26 26 26 26 24 26 28 28 29 30 29 30 30 29

GFSSW_sfc_30mbdewp_069.txt.gz
Dewpoint
48 48 48 49 49 49 49 49 49 49 49 48 48 49 50 52 50 34 20 24 35 46 45 36 36 32 26 22 22 21 15 12 9 10 9 15 17 19 20 23 22 34 39 42 51
46 47 47 48 49 49 50 50 50 49 48 48 48 49 50 51 43 26 44 49 48 45 37 31 33 28 22 20 19 18 13 11 11 11 10 13 16 17 20 19 20 26 38 45 49
46 46 47 48 47 48 49 49 50 47 47 47 47 47 49 48 25 26 44 53 56 50 36 28 30 25 21 17 16 17 14 12 12 12 13 14 15 17 20 20 21 28 31 43 47
46 47 47 47 47 47 49 49 49 48 48 48 47 47 48 43 9 25 38 53 53 43 39 30 29 24 20 15 14 13 14 13 12 12 14 15 16 17 19 21 25 34 38 42 49
47 47 48 47 47 48 49 50 50 49 49 48 48 48 41 31 25 15 30 47 45 39 36 27 27 25 20 15 12 14 13 13 12 11 13 16 16 18 19 20 24 37 46 45 48
48 48 47 48 48 48 49 49 50 50 50 49 48 48 37 32 31 15 18 14 24 38 34 28 25 24 19 16 15 14 14 15 12 12 13 14 16 19 18 21 26 37 43 46 49
47 49 49 49 49 48 49 49 49 49 50 49 48 45 34 29 30 25 16 16 9 20 31 30 26 23 22 19 18 16 13 13 15 12 11 12 14 17 18 19 27 35 42 45 47
45 47 49 49 49 49 49 49 49 49 49 48 49 42 29 28 29 27 25 22 20 13 16 28 31 29 24 19 17 17 14 13 14 14 15 15 15 15 19 26 30 37 40 44 46
45 46 48 49 49 49 49 49 48 48 48 49 46 40 27 29 27 24 26 23 27 26 15 24 26 27 28 22 18 18 14 14 15 15 14 16 16 17 28 28 30 34 38 43 45
44 45 47 48 48 48 48 47 44 45 46 42 39 36 33 21 25 24 36 37 33 29 18 24 26 24 24 22 16 15 14 16 15 16 15 13 20 18 23 29 30 32 37 42 45
42 44 46 47 47 46 45 36 29 36 31 21 23 29 23 22 30 28 30 35 36 33 28 15 20 21 21 22 20 16 14 14 17 15 16 16 14 16 17 23 27 32 34 40 44
43 44 44 46 46 45 44 33 35 37 33 30 28 27 26 25 20 26 37 34 34 33 30 10 15 19 21 22 20 18 15 15 16 14 15 14 10 11 15 18 22 28 32 36 44
44 44 44 45 44 42 36 36 38 39 31 24 26 26 26 27 23 21 32 36 35 34 35 21 13 20 22 22 21 20 19 17 16 16 18 16 14 14 15 18 20 24 27 32 40
44 44 46 44 39 38 32 36 38 40 28 19 21 27 30 29 25 23 26 33 34 32 33 29 20 22 23 23 22 18 19 18 16 16 15 15 9 15 15 17 20 23 27 29 37
44 44 45 44 35 31 33 37 39 39 5 14 22 30 28 24 19 23 25 32 32 32 32 32 27 18 22 23 23 22 20 18 17 17 17 16 12 13 16 13 15 16 21 32 35
43 43 44 35 38 36 36 41 39 31 5 12 20 22 26 24 24 26 22 27 31 34 34 30 31 30 20 18 22 20 20 19 19 19 16 17 16 14 15 15 16 16 19 29 35
42 43 41 35 34 40 40 38 24 11 -1 4 16 20 17 14 20 21 24 26 29 29 29 30 29 29 28 16 21 17 18 17 17 16 16 18 16 16 15 16 17 20 20 28 34
42 43 36 34 36 37 38 31 16 -3 4 3 14 14 4 8 22 23 25 22 27 28 29 30 26 26 25 19 18 19 19 18 17 18 17 19 17 19 20 19 22 23 25 25 32
41 33 33 35 36 39 35 23 8 4 2 11 16 3 4 16 20 22 23 24 25 25 28 25 23 26 30 24 21 19 17 19 18 25 22 19 20 22 23 20 19 20 25 28 31
32 30 32 35 36 39 32 21 14 12 20 19 9 5 9 14 20 25 24 29 29 28 27 27 22 25 31 27 25 25 22 18 17 21 21 21 20 19 19 19 18 22 26 30 33
31 30 28 34 38 35 26 21 18 16 15 18 14 12 15 15 18 26 31 34 33 30 29 22 20 26 26 29 24 22 21 21 20 20 19 19 22 23 22 23 21 24 26 30 36
28 28 34 36 32 29 27 23 21 19 18 16 16 17 18 18 18 20 33 28 33 30 28 21 21 23 24 26 28 25 22 23 21 21 21 22 26 23 24 25 25 24 25 27 28
28 26 34 39 26 24 24 20 20 18 18 17 15 14 18 17 19 18 29 35 32 29 29 33 24 18 23 27 23 25 25 23 24 25 30 25 22 26 25 24 24 24 24 26 28
33 26 25 34 32 25 22 22 18 22 19 19 20 16 16 21 24 19 20 28 29 30 31 30 30 26 21 23 21 21 21 22 23 23 23 25 24 23 23 22 23 23 25 26 28
32 27 26 24 25 23 24 25 18 15 21 18 18 18 20 20 21 20 19 20 22 29 30 30 32 33 25 30 26 24 22 22 21 22 21 21 20 20 22 23 23 25 27 27 26
29 24 24 23 23 23 21 21 21 18 19 20 17 15 17 15 17 16 18 21 23 24 28 30 31 34 30 25 26 24 23 23 23 24 23 23 23 24 24 26 27 27 28 27 27
33 30 29 25 22 24 23 19 18 19 18 23 22 17 17 21 27 29 28 28 25 25 26 25 30 30 30 30 27 24 26 27 28 26 27 24 28 30 27 29 31 32 33 35 35

GFSSW_sfc_30mbdewp_072.txt.gz
Dewpoint
47 47 47 47 48 49 49 49 49 48 48 48 48 49 49 50 48 38 28 27 33 41 38 31 36 37 34 26 22 21 17 16 14 12 9 11 16 17 17 17 20 20 28 37 51
45 46 46 47 48 48 48 48 49 49 48 49 49 50 50 49 42 35 35 46 48 45 25 23 30 32 29 24 20 18 18 16 14 10 10 11 11 16 17 18 19 19 28 45 47
46 46 47 47 47 48 49 50 50 49 49 49 50 50 50 48 38 30 38 39 44 54 38 17 25 29 27 23 20 18 17 16 13 11 12 11 11 14 15 15 20 22 30 36 46
45 46 45 46 46 48 50 50 50 48 48 48 49 49 50 43 25 22 37 47 50 46 39 28 24 23 25 21 18 14 14 15 15 13 12 11 13 14 14 18 20 21 32 37 41
46 48 48 47 48 48 49 50 49 48 48 48 49 49 44 27 30 29 32 45 41 40 34 30 27 24 23 22 19 15 12 12 12 13 12 12 12 14 15 17 19 19 40 43 42
46 46 47 48 48 48 48 49 49 49 49 48 48 49 42 27 25 26 21 14 9 18 35 31 28 25 23 22 19 16 12 10 12 12 13 11 12 13 15 17 18 20 35 43 44
44 46 46 47 47 47 47 48 48 49 49 48 48 46 39 25 19 21 26 22 13 12 14 32 29 24 22 21 20 16 14 15 13 13 14 13 12 12 12 16 17 17 28 40 44
43 45 47 48 49 48 47 47 47 48 49 49 49 45 34 30 25 25 27 27 29 20 13 11 24 28 29 24 21 18 16 14 14 13 13 14 12 13 15 17 16 23 29 39 43
42 44 46 47 48 47 46 46 45 46 49 49 46 42 32 27 28 24 23 24 24 23 17 17 17 28 28 25 22 18 15 13 13 13 13 14 13 16 17 22 22 25 32 37 42
42 41 45 46 47 46 45 44 43 46 43 43 42 35 34 26 23 27 28 35 30 28 26 18 16 24 25 24 22 19 15 14 15 15 15 15 13 15 21 25 25 25 27 36 42
41 41 44 46 46 45 42 39 28 34 38 28 26 29 25 25 19 19 26 29 33 31 27 18 21 21 22 23 24 21 17 15 14 16 16 16 15 15 16 18 24 26 29 34 42
42 43 44 44 45 44 40 38 33 34 32 31 29 26 25 24 22 20 23 30 30 30 30 28 20 25 22 22 21 21 21 19 17 17 16 16 15 16 14 16 19 25 28 31 41
42 43 44 45 45 39 40 34 34 37 32 27 22 21 21 25 23 22 17 27 29 28 31 33 29 23 23 16 21 21 21 20 17 17 18 15 15 17 16 14 14 19 24 29 40
42 43 45 45 38 37 33 34 35 41 30 22 25 26 29 27 24 22 20 23 35 32 30 37 39 25 28 27 18 19 22 22 19 19 17 17 14 16 16 16 15 18 23 24 32
42 42 44 44 35 31 31 35 36 38 17 19 20 29 26 24 23 22 21 22 28 31 35 32 35 31 29 28 22 21 27 28 22 19 19 16 16 16 15 16 16 19 22 27 28
41 41 43 35 36 36 36 38 40 31 16 12 21 25 25 25 23 25 20 26 31 28 31 30 32 34 34 33 27 26 26 32 26 21 18 18 18 17 17 17 16 18 17 27 31
41 41 41 34 32 36 39 36 29 18 -0 -3 8 16 17 12 5 21 22 22 23 27 25 30 29 34 34 32 29 27 32 29 24 19 19 19 18 19 19 17 17 17 18 26 33
40 41 37 33 33 35 36 30 21 7 9 3 10 5 7 1 -1 21 22 22 22 27 25 27 27 30 35 32 30 25 30 23 21 19 19 19 17 18 19 17 19 21 20 26 31
39 37 35 34 36 38 37 24 13 11 5 -2 -0 9 7 -5 13 14 23 22 23 24 26 27 27 30 33 34 34 30 24 25 23 26 27 22 18 24 21 19 19 19 22 24 28
35 34 33 32 38 37 32 24 19 15 11 15 11 8 -1 3 16 18 24 33 33 30 26 28 29 30 32 32 36 33 31 27 22 22 26 25 22 20 22 20 18 19 25 28 29
36 32 28 36 37 34 26 23 20 20 18 11 13 12 7 7 10 12 22 36 33 30 30 29 32 29 33 35 32 30 25 27 24 20 24 25 25 34 27 21 20 25 27 30 34
36 27 28 37 31 32 27 25 23 18 16 14 14 15 15 16 15 17 18 32 32 30 29 34 32 25 24 24 34 30 28 26 25 24 21 24 25 31 26 24 25 24 25 28 30
32 24 29 40 25 26 24 23 22 19 16 15 15 14 13 12 12 16 20 32 32 34 32 30 30 21 22 24 35 33 32 31 29 32 28 28 23 29 26 25 24 24 25 27 28
34 24 23 35 32 27 22 24 19 20 16 17 15 15 15 10 12 21 26 31 31 30 34 34 29 28 23 28 34 32 30 30 31 32 31 33 29 31 28 23 23 25 27 28 30
34 26 29 22 27 26 26 30 21 17 16 16 15 14 14 18 13 19 16 24 30 31 32 34 30 34 34 32 33 35 31 31 31 31 28 27 29 31 32 31 25 28 27 27 27
31 23 22 30 27 22 20 20 20 23 19 17 16 13 12 12 14 17 16 20 27 29 28 32 29 30 27 29 31 35 31 31 33 31 28 24 27 29 28 29 32 35 36 36 36
33 30 27 26 25 22 26 22 15 16 20 26 25 23 22 20 25 28 28 32 31 28 29 26 29 30 26 33 33 26 31 31 29 27 29 29 34 32 30 29 35 36 37 37 37

GFSSW_sfc_30mbdewp_075.txt.gz
Dewpoint
46 46 47 47 48 48 48 49 50 49 49 49 50 50 50 51 50 41 35 35 41 41 38 33 29 36 37 36 31 27 23 20 19 17 17 17 17 18 19 16 20 21 23 44 54
47 46 47 47 48 49 49 50 51 50 49 49 49 50 51 51 47 38 39 41 42 43 31 24 21 30 35 33 31 25 20 19 19 18 17 14 13 17 18 17 19 23 50 53 53
44 46 46 46 46 47 49 50 50 49 49 49 49 49 50 50 39 33 41 38 38 51 43 34 20 19 31 32 30 25 20 19 19 20 19 17 13 13 15 17 20 27 44 48 48
44 46 47 47 48 48 49 50 49 48 47 47 48 49 49 46 5 25 30 41 47 51 46 37 28 17 21 27 28 24 22 21 19 19 17 16 14 13 14 16 21 20 29 47 47
45 45 46 46 46 47 48 49 49 47 47 47 48 49 46 33 30 33 37 48 51 42 37 35 28 21 22 23 26 24 22 19 17 16 16 15 13 13 13 16 17 20 38 39 45
45 45 45 45 46 46 47 48 47 47 47 47 48 49 44 27 24 23 23 25 22 16 19 29 31 27 26 26 23 24 23 20 19 15 13 12 13 15 14 17 17 17 39 43 43
44 44 44 45 45 45 47 47 46 46 47 46 48 47 42 30 25 25 28 26 26 27 17 14 13 16 27 27 25 24 22 21 19 17 14 12 13 14 15 15 15 17 28 44 44
42 44 44 45 46 47 46 45 45 45 45 46 50 47 38 37 36 34 30 27 27 29 28 19 15 13 25 29 28 26 22 18 19 18 17 16 13 15 15 14 13 14 20 42 45
43 44 43 45 47 46 46 45 44 43 46 48 47 45 39 36 34 33 31 26 26 26 25 20 20 15 26 28 26 24 20 20 18 18 16 15 12 14 16 15 18 21 26 39 45
43 43 44 45 46 46 45 44 40 44 44 44 43 42 42 31 22 21 23 33 33 28 26 23 21 14 27 27 23 23 22 20 17 17 16 14 13 14 18 19 21 24 26 38 43
42 42 44 45 45 45 43 37 32 34 32 34 36 38 36 30 24 17 18 29 33 32 28 27 16 14 16 26 27 26 24 23 21 18 18 18 15 15 16 17 24 25 25 33 42
42 43 44 45 45 44 41 37 34 34 32 34 33 31 30 27 22 23 20 23 28 29 31 29 19 21 22 25 25 25 23 21 22 23 22 21 24 17 17 18 19 25 26 30 43
43 43 43 45 44 41 37 38 39 37 33 29 28 28 28 28 25 24 23 18 28 28 29 28 30 32 31 21 24 23 22 21 21 22 24 20 18 15 17 18 19 24 27 30 43
43 44 44 45 38 36 33 33 39 39 30 25 25 22 25 27 25 25 24 17 33 31 33 35 36 34 35 28 23 24 26 24 22 23 27 29 19 18 17 18 19 18 26 30 43
43 43 43 44 38 34 34 38 39 38 10 24 23 26 28 26 23 21 23 17 30 31 33 28 34 33 35 31 26 25 30 30 31 32 32 29 21 19 19 18 19 18 24 30 43
42 43 42 40 38 37 36 37 40 28 16 20 24 23 23 24 25 24 20 24 29 30 32 31 31 34 35 33 30 34 33 30 34 33 29 30 25 18 18 19 20 19 23 26 43
42 42 40 40 33 35 35 36 28 21 18 10 23 25 25 21 24 25 19 23 26 25 26 27 28 31 35 32 33 32 32 29 28 28 27 26 23 20 21 21 21 21 23 28 44
42 40 40 38 38 36 36 32 21 18 6 7 13 13 8 9 9 18 20 20 25 26 26 24 24 31 33 33 31 30 35 30 24 25 22 23 19 19 22 22 20 19 25 33 43
42 39 36 38 38 38 34 23 18 12 13 12 11 4 7 10 9 18 22 23 23 23 24 25 26 32 32 34 35 33 33 34 32 29 30 30 20 21 22 22 22 22 24 32 42
38 37 36 36 38 36 30 22 20 19 20 19 13 10 7 5 13 17 26 36 33 31 29 28 26 29 31 38 38 35 35 30 32 25 25 26 28 19 20 20 20 20 23 28 38
37 33 33 36 37 32 24 23 23 23 23 19 14 13 14 14 17 12 29 35 33 30 30 30 32 29 34 36 35 35 34 36 34 33 26 28 30 36 30 27 24 28 30 33 37
36 26 31 36 28 31 24 24 24 24 23 22 20 15 15 15 15 15 20 31 33 31 32 36 35 28 27 31 35 33 37 36 31 29 29 26 29 38 32 28 26 29 28 30 36
31 31 30 33 25 25 27 25 25 24 24 21 18 16 17 13 13 14 27 32 32 32 30 31 32 27 23 25 26 32 36 36 36 36 32 30 29 39 31 28 27 28 30 31 36
31 23 28 32 32 28 25 24 23 24 23 21 19 18 17 17 17 12 18 32 32 33 35 34 30 27 25 29 33 32 37 36 35 32 31 32 32 37 37 32 30 32 33 35 36
30 28 29 23 28 29 29 29 25 22 23 22 21 16 17 15 17 19 19 32 32 33 33 34 29 30 31 30 33 32 33 36 34 35 34 35 32 38 37 39 37 37 38 38 39
30 28 28 30 30 30 26 24 25 26 28 26 20 18 22 18 14 18 22 25 27 34 33 34 28 30 27 28 31 31 34 36 38 35 36 37 37 41 40 42 37 37 37 38 39
35 33 31 26 24 27 29 28 23 21 20 25 30 30 27 28 31 30 31 30 30 30 34 32 28 26 25 30 31 29 34 37 37 38 37 36 38 40 42 38 37 37 38 38 41

GFSSW_sfc_30mbdewp_078.txt.gz
Dewpoint
46 46 46 46 46 47 47 48 49 49 49 48 48 48 49 51 50 45 31 32 42 43 45 35 36 37 38 36 34 28 25 22 23 22 22 22 19 17 20 18 26 25 39 42 55
44 44 46 47 47 47 48 49 50 49 48 48 48 48 50 50 47 37 37 39 44 43 32 26 24 26 35 35 34 31 24 24 25 23 21 21 19 17 16 18 18 39 52 54 55
44 44 45 46 46 47 48 49 49 47 47 47 47 48 50 50 37 23 39 43 48 49 36 33 24 20 29 34 33 29 27 25 23 21 20 20 20 21 16 15 19 28 51 53 54
44 44 43 45 45 46 47 48 47 46 46 46 46 47 49 46 -18 26 39 43 46 52 46 38 33 18 17 25 32 29 28 26 25 23 21 19 19 18 16 15 20 33 49 53 52
44 43 43 43 44 45 47 47 47 46 45 45 45 47 46 35 29 30 32 39 50 45 39 37 30 19 16 21 23 27 28 27 27 24 22 20 19 18 17 16 17 26 48 50 48
45 44 44 42 41 43 45 46 46 46 45 44 45 47 45 24 27 25 25 27 40 36 29 28 32 29 23 24 24 25 25 25 25 23 21 18 17 16 15 17 16 28 42 47 47
43 44 44 43 42 43 44 46 46 45 44 43 44 46 40 32 32 26 31 31 29 26 26 22 16 13 17 22 28 28 25 24 24 23 21 19 16 16 15 16 16 16 31 41 46
42 44 46 44 45 45 46 45 45 44 44 43 45 46 38 38 39 37 36 30 29 27 27 28 24 16 15 26 28 26 26 23 24 22 21 19 16 18 18 16 15 15 15 38 43
43 44 45 45 45 45 45 44 44 44 44 45 47 45 35 41 40 35 34 28 29 28 27 27 22 18 16 21 26 26 23 23 22 22 21 19 17 17 17 16 15 15 15 32 43
43 43 44 45 45 45 45 43 41 44 45 46 45 42 41 28 29 22 25 29 31 32 26 22 20 16 25 23 22 23 23 23 22 22 20 22 18 17 17 17 16 16 22 35 44
43 42 42 44 44 44 43 39 35 32 34 35 38 38 38 37 30 25 23 18 32 32 29 26 21 18 15 20 26 27 26 25 25 25 25 25 23 22 23 24 16 17 22 38 44
44 42 42 43 43 43 41 36 35 38 33 34 34 33 33 32 30 29 25 17 30 29 31 30 25 24 20 21 22 24 25 24 25 25 23 22 21 24 25 24 21 20 24 34 44
43 42 42 44 42 40 33 34 37 39 32 31 30 29 29 31 28 21 25 21 26 28 29 29 30 29 23 28 31 25 23 24 23 27 26 23 23 26 27 26 18 21 25 30 44
43 43 43 44 33 36 33 34 36 38 29 25 28 29 28 29 23 26 26 18 20 27 32 32 36 34 33 32 32 31 23 24 27 28 26 29 23 26 27 27 22 19 22 29 45
42 42 43 43 39 34 32 36 35 39 0 14 24 27 28 25 24 25 24 20 25 31 32 28 29 31 32 34 34 32 25 27 31 30 32 27 26 25 27 24 21 21 21 31 45
42 42 43 40 37 38 36 35 38 25 7 17 25 21 26 26 25 21 19 24 30 32 32 29 32 32 32 33 34 31 29 29 31 31 25 25 28 25 25 23 22 22 22 30 45
41 43 41 40 34 37 37 36 24 19 15 16 23 23 25 23 23 19 18 23 22 22 25 27 27 30 34 32 33 33 31 26 24 25 23 24 27 25 27 25 23 22 21 30 45
41 43 40 39 39 38 37 32 18 14 15 17 19 21 21 22 23 22 19 20 27 26 26 22 19 30 34 31 32 33 34 30 21 23 24 26 24 23 25 26 25 23 24 38 46
41 38 37 37 37 38 33 22 16 17 17 22 20 12 19 8 9 22 20 20 24 26 21 24 25 30 32 33 33 35 32 35 31 34 29 30 28 23 23 22 23 23 33 43 45
37 36 32 36 38 36 29 22 20 19 21 21 20 18 15 16 15 16 25 35 32 29 28 28 24 28 34 34 37 35 39 31 31 24 24 26 26 24 31 31 24 22 33 43 45
37 31 31 36 38 33 21 20 19 21 20 23 23 21 17 16 15 14 30 34 32 30 31 32 29 28 34 34 34 35 34 36 34 32 28 27 30 35 38 38 31 26 30 41 44
33 25 33 38 28 28 22 21 21 20 23 21 23 23 19 17 14 14 22 30 33 31 30 36 32 27 27 29 37 38 35 36 29 29 31 30 29 43 43 40 32 30 33 34 43
30 29 32 32 23 23 26 23 23 21 21 23 25 22 20 18 13 15 29 33 32 32 31 32 30 24 22 27 35 32 34 36 38 36 31 28 29 43 42 41 37 36 38 38 41
31 24 28 32 28 26 24 22 23 24 25 22 19 23 22 18 20 17 24 32 32 34 33 33 30 25 21 26 32 31 34 34 35 30 30 31 32 38 41 41 41 38 40 42 43
30 24 26 22 27 27 26 25 25 22 23 24 23 23 22 17 15 16 21 32 33 34 34 33 26 29 29 30 29 28 33 33 32 34 32 30 33 40 43 43 41 39 41 43 45
27 27 28 28 30 28 29 25 27 25 30 26 26 25 27 23 24 24 23 25 27 32 33 34 26 29 26 27 29 30 32 31 31 35 34 34 36 42 46 45 40 38 40 44 45
34 34 31 25 24 24 24 26 29 32 31 29 29 30 28 28 32 32 31 30 30 32 32 32 31 27 21 26 26 27 31 31 30 36 36 34 35 42 44 43 42 38 42 45 44

GFSSW_sfc_30mbdewp_081.txt.gz
Dewpoint
45 44 45 46 47 47 49 49 49 48 48 47 47 47 47 50 50 44 27 22 37 41 45 38 41 40 39 35 33 27 22 19 20 20 18 22 21 21 20 19 19 29 46 45 54
44 44 44 44 45 46 46 47 48 47 47 46 46 46 48 50 46 36 34 38 45 50 37 30 27 33 34 34 34 30 24 21 23 20 20 23 22 22 20 20 20 25 47 55 56
45 44 43 43 43 44 45 47 47 46 45 45 45 45 48 49 36 6 37 44 47 50 38 32 25 24 28 35 32 31 23 23 24 24 25 24 21 21 20 19 19 19 29 54 55
45 44 43 43 43 42 44 46 45 45 44 44 44 45 47 46 -25 30 43 47 49 52 41 42 30 18 16 22 32 30 29 27 26 27 26 24 24 22 20 19 21 20 32 54 54
45 44 43 43 43 43 44 45 45 44 44 44 44 44 44 37 28 27 32 27 47 47 44 39 29 21 15 18 21 27 30 29 28 28 26 25 23 22 22 21 20 19 38 51 53
45 43 43 43 43 43 43 45 46 45 44 43 43 44 41 28 26 27 26 26 29 42 38 33 34 29 24 22 19 22 24 25 25 26 26 25 24 22 22 20 19 18 23 50 52
44 44 44 43 43 42 44 45 45 45 44 43 44 43 40 34 35 33 34 29 28 27 24 24 18 17 17 15 24 28 27 27 26 25 24 24 22 20 21 19 18 16 23 41 50
45 44 45 45 44 44 45 45 44 45 45 45 45 43 37 40 39 38 37 34 33 31 27 27 26 21 14 17 23 26 26 24 24 25 24 23 21 22 22 19 18 17 17 36 46
45 44 45 44 45 45 44 43 44 46 47 45 45 43 34 40 41 40 36 28 27 29 26 27 24 21 17 17 18 25 21 23 24 24 23 20 19 21 20 19 18 17 17 18 36
44 44 44 44 44 44 43 43 44 45 45 46 45 40 38 27 35 31 32 31 28 32 28 23 21 17 22 20 17 22 24 24 23 23 24 24 24 26 25 24 23 21 19 17 30
44 44 43 43 42 44 42 39 35 34 37 33 37 38 37 37 33 26 25 22 28 32 27 25 19 16 16 21 21 24 24 24 26 26 25 24 24 24 26 24 25 25 24 20 25
42 42 42 43 43 44 34 34 33 36 32 36 37 35 35 34 30 29 27 18 26 28 31 30 25 24 22 20 18 18 21 22 24 25 25 24 24 25 25 25 25 26 25 21 37
42 42 43 44 44 37 34 33 35 35 34 32 30 29 31 32 29 24 27 22 24 29 29 28 30 31 28 25 22 24 28 24 23 25 25 25 23 22 23 26 28 29 25 22 37
42 42 43 44 33 37 30 35 34 36 28 24 28 29 27 30 26 25 23 20 19 25 28 30 33 32 31 31 32 29 31 29 23 26 23 31 22 27 28 27 27 28 25 26 41
42 42 44 42 39 34 33 37 37 38 1 7 24 29 29 22 24 22 26 19 19 30 30 27 31 31 31 31 33 29 34 30 29 28 28 27 27 26 26 25 26 27 25 24 37
41 41 42 39 38 36 37 38 37 25 9 10 24 24 25 26 25 22 22 23 31 31 32 28 32 32 30 32 32 34 31 29 29 29 24 26 26 24 24 25 25 26 25 23 35
42 42 41 41 34 38 37 35 22 17 11 13 18 21 23 25 24 20 21 23 24 25 26 28 29 31 34 31 33 33 30 24 23 23 21 24 24 23 24 27 27 27 25 25 36
41 42 40 39 39 38 35 29 15 7 10 16 21 21 19 24 24 21 18 20 27 25 25 21 17 27 34 31 29 32 31 26 20 21 24 23 21 22 27 28 28 29 28 26 33
40 37 36 36 38 37 30 20 14 14 19 20 19 23 24 23 19 21 18 17 23 26 19 23 23 30 33 33 32 33 31 34 30 31 29 28 30 29 40 28 35 35 34 28 36
37 33 33 36 38 35 26 18 21 20 20 18 19 28 24 25 18 18 21 34 30 27 26 27 21 28 34 33 34 33 38 31 31 22 21 25 27 33 40 39 37 33 32 31 45
34 27 30 37 37 32 20 17 20 19 20 22 23 26 28 26 19 15 30 34 32 31 30 31 26 27 34 32 31 34 31 33 34 32 26 26 31 39 40 41 40 38 38 39 45
32 23 34 38 27 28 22 22 22 20 23 22 21 22 27 29 22 19 28 34 35 33 31 35 31 25 25 29 35 35 33 35 29 29 31 29 26 42 39 40 41 39 42 41 46
29 28 32 33 21 23 24 24 23 21 20 19 21 25 30 28 24 21 30 34 33 31 31 33 27 21 14 29 37 34 35 35 35 34 29 26 25 40 38 39 42 40 44 44 46
30 22 24 31 26 21 20 22 23 22 23 24 23 20 17 26 28 20 22 32 33 33 33 31 28 24 17 20 31 27 31 32 31 28 30 30 30 38 38 38 41 42 46 47 48
31 23 25 19 24 26 24 22 20 19 23 21 22 25 23 26 26 16 26 32 33 35 34 31 24 28 27 28 28 28 28 28 28 30 29 26 33 35 41 40 41 44 45 44 44
28 27 28 26 25 26 24 26 25 23 29 24 24 25 27 28 25 24 25 27 28 32 33 34 25 29 24 24 26 26 23 26 29 31 31 31 32 40 44 44 44 44 43 42 42
34 33 31 24 22 22 23 25 25 29 31 29 29 30 29 27 31 31 31 31 31 30 32 31 29 27 20 22 23 18 29 31 32 33 30 29 33 43 43 45 43 45 42 39 40

GFSSW_sfc_30mbdewp_084.txt.gz
Dewpoint
45 45 44 44 44 44 44 45 46 46 46 46 45 46 46 48 49 45 27 22 39 39 48 44 41 40 37 33 32 27 19 17 17 17 15 22 21 22 21 21 21 23 30 42 53
45 44 44 44 44 44 44 44 44 45 45 45 45 45 45 48 46 36 34 40 48 48 37 32 29 37 34 33 33 27 22 18 21 19 16 19 22 22 22 21 21 22 31 51 56
45 45 44 43 43 44 44 45 44 44 44 44 44 44 46 47 36 2 51 47 45 52 39 32 26 30 29 35 33 30 22 22 23 22 22 21 23 23 21 21 22 21 22 46 53
45 45 44 44 43 43 44 45 43 43 44 44 44 44 45 44 -28 32 38 41 51 50 41 39 30 19 21 23 32 27 30 27 24 24 25 23 24 24 23 23 24 23 23 36 49
46 45 44 44 43 43 43 44 44 43 43 43 44 44 43 35 24 28 34 28 44 48 40 40 29 20 16 16 19 25 30 30 29 28 28 27 26 26 25 24 24 24 22 27 41
46 45 44 43 43 42 43 44 45 44 44 44 44 44 41 19 28 27 31 30 26 44 39 40 34 27 22 21 19 19 22 23 25 25 26 26 26 26 26 25 24 22 20 24 36
45 45 45 44 43 42 42 44 44 44 45 45 46 44 39 27 34 36 38 33 27 37 33 25 25 16 17 15 20 23 24 27 27 26 25 25 23 23 25 24 23 22 20 19 31
45 45 46 45 44 44 43 42 44 45 47 48 47 43 35 38 40 40 38 36 35 32 28 27 24 23 18 17 18 22 23 21 24 25 25 24 17 22 24 23 23 21 20 19 24
43 44 45 45 45 44 43 43 42 46 46 46 43 42 30 38 39 40 39 33 30 31 29 27 25 23 17 17 15 22 18 21 22 25 24 23 21 23 22 21 20 20 20 20 20
42 43 43 44 44 44 44 38 41 46 45 45 43 39 35 28 37 35 35 34 27 31 26 25 22 19 19 17 10 16 19 24 24 24 26 25 25 25 26 26 26 26 25 24 22
42 42 42 42 43 44 38 35 33 32 34 31 33 38 38 37 35 28 30 27 23 31 27 23 21 19 18 20 17 20 21 20 20 23 23 20 22 24 26 25 25 25 25 25 26
42 42 42 41 42 42 34 33 32 33 30 33 34 34 33 32 29 29 29 24 26 28 29 28 21 21 19 18 17 18 18 18 21 22 23 24 24 25 26 26 26 25 25 26 26
41 42 42 43 42 36 35 33 36 35 31 31 31 31 32 35 31 27 27 22 21 27 30 26 28 31 26 25 23 23 23 24 26 30 26 25 22 21 22 24 24 26 27 28 27
42 42 42 43 32 38 28 34 36 37 27 24 26 29 28 30 29 29 26 23 20 21 29 28 30 29 29 27 25 26 31 31 29 27 23 29 22 21 24 26 29 29 28 28 27
42 42 42 42 39 34 32 37 37 37 8 3 20 29 29 26 22 24 25 21 19 25 28 25 32 33 30 30 32 30 33 31 31 29 27 26 24 22 24 23 26 28 28 28 27
40 42 42 38 38 36 37 36 37 23 9 9 17 19 21 25 26 23 21 27 27 31 32 25 32 31 27 31 33 33 30 30 29 27 23 23 23 22 23 24 26 27 27 27 25
40 42 41 41 33 38 37 33 18 16 11 3 18 19 20 19 21 20 23 28 25 22 24 28 29 32 33 28 33 31 29 22 21 24 21 22 24 23 25 26 25 27 27 28 27
40 40 40 40 38 38 34 27 13 4 11 17 18 21 24 29 25 22 22 21 26 23 25 20 15 28 33 28 28 31 30 22 18 20 23 29 20 22 40 40 40 39 36 32 28
40 35 35 36 38 37 25 16 11 17 20 19 17 25 24 28 30 22 19 20 22 25 19 21 21 31 33 33 31 32 30 33 29 28 26 27 28 34 40 40 41 41 40 40 37
35 34 32 35 38 33 24 16 18 20 19 20 17 26 23 25 27 26 24 29 25 27 26 26 21 29 34 33 33 32 37 30 30 21 20 23 27 31 37 38 40 41 41 44 43
32 26 27 36 37 29 19 18 18 18 19 20 21 19 22 23 27 27 26 34 32 30 30 29 25 27 33 31 30 33 32 33 32 31 24 22 25 39 38 38 38 41 44 46 42
30 19 33 37 26 27 22 21 22 21 22 20 22 20 20 25 23 27 28 34 36 34 31 34 29 24 25 28 35 34 30 31 28 27 30 29 25 41 41 38 38 40 44 47 47
27 27 31 32 17 22 25 22 23 23 21 20 18 17 30 22 20 27 30 36 36 34 33 33 27 16 13 27 35 33 34 35 33 32 28 27 25 38 36 37 38 39 44 45 48
28 21 22 30 26 23 22 20 20 25 25 23 21 23 21 21 23 23 28 34 34 34 34 29 28 20 13 18 27 24 27 29 31 26 24 27 28 27 36 39 39 43 44 44 46
29 22 24 19 21 24 24 24 21 20 21 21 21 21 20 22 26 26 30 33 33 34 33 28 23 27 26 26 27 26 26 26 27 27 25 23 26 29 33 40 42 44 42 43 43
26 25 28 26 25 24 24 20 22 24 27 23 23 21 23 26 25 27 29 26 28 32 32 33 25 28 24 24 22 23 21 21 22 23 27 27 28 32 34 44 44 41 39 40 40
34 33 29 23 23 20 20 22 24 27 27 28 27 29 28 29 28 31 33 31 30 30 31 30 27 26 20 21 21 12 23 27 28 30 30 28 30 34 39 43 44 40 37 37 37

GFSSW_sfc_30mbdewp_087.txt.gz
Dewpoint
45 45 45 44 44 44 44 45 45 44 44 45 45 45 45 45 47 44 30 23 41 42 47 45 40 40 36 33 30 26 17 16 15 16 13 21 20 22 22 21 21 23 31 35 54
45 45 45 44 44 44 44 44 44 44 44 44 45 45 45 45 44 36 36 41 45 49 38 38 36 38 34 32 32 26 21 18 20 17 14 17 19 20 21 21 21 22 26 40 56
45 45 44 44 44 44 44 43 43 43 43 44 44 44 45 46 30 3 49 49 46 51 37 31 31 34 29 35 33 29 22 22 21 21 21 18 19 20 18 19 21 19 24 38 44
46 46 45 44 44 44 43 44 42 42 43 44 44 44 44 43 -28 32 40 39 50 49 40 36 24 24 22 26 33 25 30 25 21 23 24 22 19 21 22 22 24 26 27 26 34
47 46 45 44 44 43 43 43 42 42 43 44 45 45 43 28 9 28 35 33 41 46 38 38 25 19 16 18 21 29 29 29 29 28 27 27 26 26 27 26 27 27 26 26 26
46 46 45 44 43 43 42 43 43 43 44 45 46 45 41 16 20 29 34 33 24 45 40 41 34 25 21 18 18 20 22 23 24 24 24 24 24 25 24 28 27 27 26 25 26
42 43 44 44 44 43 41 43 43 45 45 48 48 44 39 28 29 31 34 32 30 28 37 38 36 22 23 18 21 21 19 24 26 26 26 26 20 22 25 27 26 26 26 26 25
42 42 44 44 44 43 43 43 44 43 47 48 48 43 36 38 38 39 39 37 37 35 28 28 25 21 20 20 20 19 22 17 23 26 26 25 16 21 22 24 24 24 24 25 24
42 41 42 43 43 43 43 44 42 44 47 47 43 42 31 36 38 38 40 36 31 34 31 28 26 24 18 19 14 19 10 20 20 25 25 23 19 24 27 27 26 26 25 24 24
42 41 41 42 43 43 44 41 41 46 41 45 42 36 33 34 37 35 37 37 30 29 27 26 24 21 20 16 4 7 15 21 19 24 23 20 20 20 24 25 26 27 27 28 28
41 41 42 42 42 43 39 34 30 28 30 26 25 29 27 22 30 30 32 29 26 30 18 24 22 19 18 18 13 20 21 20 20 20 18 16 17 20 23 23 24 25 26 27 28
41 42 42 42 42 41 35 31 31 32 29 32 31 30 31 29 27 25 28 25 24 26 28 26 21 22 21 21 20 17 15 15 20 21 24 25 25 24 24 23 23 24 26 26 27
41 42 42 42 41 37 34 32 36 36 30 30 31 30 30 33 30 27 25 21 22 26 28 26 26 28 20 20 18 19 18 21 22 27 28 26 21 20 22 23 24 24 26 26 26
40 42 42 43 32 37 28 36 37 37 24 17 21 27 29 31 29 32 26 22 22 21 29 28 28 30 26 25 25 22 26 26 29 27 19 28 15 17 22 24 25 27 28 27 27
39 40 42 42 37 33 33 38 37 37 -11 7 16 29 27 25 23 25 28 23 20 24 27 24 30 30 28 28 28 28 33 30 29 28 27 25 24 21 22 21 24 27 28 30 31
39 40 41 39 37 36 38 37 36 16 -8 7 15 16 11 19 25 23 24 24 22 28 31 23 33 33 31 32 33 33 29 29 30 27 23 23 22 19 21 25 33 37 36 32 31
40 40 39 41 31 37 37 32 16 2 8 8 17 17 13 29 29 27 21 19 24 19 22 29 28 32 33 29 33 30 28 22 22 21 17 24 23 21 26 38 40 41 41 40 38
40 39 37 38 38 38 34 22 -2 3 8 19 18 16 11 29 28 30 30 16 26 21 18 18 19 29 33 28 28 30 28 21 13 19 21 28 22 22 39 40 41 42 43 45 46
39 34 33 34 37 36 24 12 4 19 21 18 17 15 22 24 24 27 27 26 23 26 20 19 23 31 32 32 32 32 28 32 28 28 23 22 26 30 38 38 38 40 42 44 46
33 32 30 35 38 32 22 14 14 17 17 17 14 20 18 18 12 21 26 29 22 26 27 25 25 30 32 33 33 32 35 29 29 20 19 21 22 23 36 37 38 39 41 44 47
31 24 28 37 36 27 17 18 18 18 20 18 16 16 14 14 18 20 24 32 35 30 29 28 25 28 33 31 30 32 31 32 32 30 23 21 20 38 37 35 38 40 42 46 47
29 16 31 35 22 26 21 23 24 20 21 19 19 19 16 16 24 23 24 28 33 36 29 32 26 23 25 29 34 34 30 29 26 26 29 28 24 38 31 35 39 42 43 45 46
26 25 31 31 14 19 21 21 20 20 21 20 18 16 16 20 19 18 26 31 33 33 32 31 25 15 27 30 34 32 34 32 30 30 26 25 23 36 26 30 36 42 43 44 44
26 16 21 28 25 23 22 19 19 21 23 23 21 22 19 19 19 20 23 29 33 36 35 30 27 18 9 18 25 22 26 25 28 23 19 20 21 22 23 27 35 41 42 41 41
27 21 24 16 19 24 24 22 20 20 23 23 22 21 17 18 23 23 28 31 34 35 33 28 22 26 25 26 26 24 24 24 23 22 19 16 18 21 26 29 39 40 39 38 38
26 23 28 23 25 23 23 20 19 23 26 22 24 22 21 22 22 25 30 30 29 33 31 32 25 27 19 24 23 20 20 20 20 22 22 23 25 30 33 35 40 38 36 35 35
33 33 28 22 23 21 19 21 23 27 25 24 26 27 24 26 31 32 32 34 33 30 28 29 28 25 17 21 20 13 20 21 22 27 29 25 27 30 36 38 39 36 35 33 33

GFSSW_sfc_30mbdewp_090.txt.gz
Dewpoint
45 44 45 44 45 45 45 44 44 44 44 45 45 45 46 46 46 33 26 28 32 48 45 42 34 30 28 27 29 25 17 12 10 11 9 12 12 12 15 14 16 20 22 27 40
45 45 45 45 44 44 44 44 43 43 43 44 45 45 45 46 38 25 29 42 43 48 27 32 29 32 25 23 26 23 19 17 17 16 12 10 11 10 15 13 15 18 18 21 31
46 46 45 45 44 44 44 43 43 42 42 43 44 45 46 45 28 0 42 49 48 46 38 27 26 31 26 27 26 24 19 20 20 20 17 15 14 14 13 13 13 14 15 18 30
47 46 45 45 44 44 43 44 42 41 42 44 45 46 46 37 -15 29 39 39 47 45 35 29 25 27 23 23 24 24 23 22 21 20 18 18 17 15 15 17 17 16 17 20 23
46 45 45 44 43 43 43 43 42 41 43 45 46 46 40 18 4 16 34 30 35 40 33 28 22 20 18 15 18 23 19 19 22 21 21 20 19 18 19 21 22 22 24 25 25
42 43 43 43 43 43 42 43 43 43 44 46 48 45 38 14 11 24 27 24 20 34 33 31 27 21 18 17 16 17 19 19 21 21 22 21 21 22 22 23 23 24 24 24 26
42 42 42 42 42 42 42 42 43 44 44 48 49 44 38 20 27 26 25 24 23 20 28 31 33 31 24 24 24 24 23 22 22 22 23 23 22 21 21 22 22 22 24 24 25
42 42 42 42 42 42 43 44 44 44 47 49 48 42 29 34 33 35 36 34 31 24 22 23 30 30 26 19 19 18 17 15 12 19 21 23 13 12 19 20 21 22 23 24 25
42 42 41 42 43 44 45 44 43 45 48 47 43 40 25 32 34 37 37 34 33 33 27 20 25 24 19 16 12 12 8 6 10 22 21 22 12 17 23 23 22 23 23 24 25
41 41 42 42 42 44 43 40 41 45 39 40 40 34 30 21 19 33 25 35 31 31 28 18 19 19 19 13 4 2 3 8 10 11 20 16 15 16 17 16 15 16 19 22 24
41 42 42 42 42 42 34 27 20 23 22 19 15 19 18 16 19 18 18 27 28 26 18 16 15 15 13 16 13 7 9 8 12 16 14 11 8 8 13 16 17 17 16 17 20
41 42 42 42 42 39 30 27 30 31 27 26 25 25 26 27 27 25 21 23 20 21 21 20 14 11 16 16 17 14 8 5 7 14 17 15 17 20 19 19 18 17 17 18 19
40 42 42 42 40 34 30 32 35 35 30 21 24 26 26 30 27 24 24 17 18 18 24 17 17 17 17 21 21 17 14 14 13 16 21 22 16 10 19 19 19 20 21 22 22
40 40 42 42 33 33 25 32 35 38 21 5 15 27 20 28 27 19 27 23 12 10 19 25 24 25 23 20 19 14 16 18 17 21 16 23 6 7 12 15 21 26 29 30 29
39 40 40 40 32 27 29 34 35 39 -7 4 11 28 17 12 12 15 26 26 21 10 19 21 24 22 22 20 20 17 27 25 25 24 20 18 18 7 14 17 24 31 36 37 35
39 39 39 34 33 31 34 36 37 18 -12 -1 6 14 9 -1 13 19 23 24 22 16 17 18 29 26 23 23 27 27 29 27 24 21 18 16 15 3 16 24 32 36 38 40 40
40 39 35 34 27 36 36 30 13 -4 -6 -1 12 12 5 1 15 25 23 21 20 15 15 17 22 29 30 30 29 27 22 18 19 19 11 19 18 12 23 36 38 38 38 40 42
39 38 36 34 36 37 33 18 -2 -11 -2 14 14 8 2 18 16 24 24 20 20 18 11 17 16 25 30 25 24 24 22 14 7 9 11 21 19 20 35 38 37 37 38 39 41
38 32 32 37 39 37 24 9 -5 9 17 15 11 4 6 19 13 12 15 20 20 19 10 9 12 23 28 25 25 27 26 26 24 22 20 13 18 30 33 34 34 36 37 39 42
31 28 32 38 40 33 21 10 7 10 12 12 7 7 12 11 10 10 13 31 31 29 26 22 14 27 30 30 32 29 27 26 26 19 15 12 15 19 33 31 32 34 38 41 44
31 23 34 38 38 24 16 11 14 16 17 14 10 9 9 10 7 8 15 21 31 31 30 31 23 28 30 28 26 30 28 30 29 27 22 14 17 35 31 29 28 34 38 42 46
29 22 34 36 22 22 15 15 19 14 17 17 17 14 13 15 18 17 20 21 31 32 27 29 25 23 25 31 29 28 26 28 23 26 25 26 20 32 30 22 22 30 39 42 44
26 22 31 34 16 15 17 16 18 17 16 16 15 14 14 11 14 17 19 25 28 30 31 29 22 21 24 26 30 27 33 31 29 27 24 22 19 33 23 19 25 30 40 41 42
29 22 22 27 28 22 19 15 15 16 19 20 19 19 18 15 14 16 16 25 30 31 33 36 24 16 12 19 25 26 25 25 25 22 18 19 17 15 18 26 31 35 40 40 39
29 24 25 19 18 21 22 21 18 18 20 20 21 21 21 18 13 16 24 30 32 35 33 29 22 21 19 20 19 18 18 20 20 19 15 12 13 19 25 31 31 39 39 38 36
28 21 26 22 22 25 21 18 19 20 24 20 23 21 21 23 17 19 26 27 30 32 32 27 23 22 16 19 18 16 15 15 15 16 19 19 21 22 29 31 39 37 36 35 34
31 30 26 20 17 18 17 18 19 26 22 25 28 27 23 21 24 26 27 31 31 31 30 26 23 16 14 14 14 9 15 17 18 20 23 21 26 30 33 37 37 36 34 33 33

GFSSW_sfc_30mbdewp_093.txt.gz
Dewpoint
45 44 45 45 45 45 45 45 44 44 44 44 45 45 46 47 47 34 25 25 28 39 42 22 36 34 28 23 30 26 21 17 15 12 12 10 8 8 10 9 8 13 13 26 32
46 46 45 45 45 45 45 44 44 43 43 43 44 46 47 48 41 29 36 42 49 41 30 17 24 23 24 25 27 25 22 19 16 14 13 12 11 10 11 11 11 11 17 18 21
46 46 46 45 45 44 44 44 44 42 42 43 45 46 47 47 30 15 38 48 52 46 33 18 20 20 22 20 21 23 22 21 18 17 18 16 14 14 12 11 12 12 16 16 16
47 46 46 45 44 44 44 44 43 42 42 44 46 47 47 41 5 29 36 38 48 41 36 30 21 17 20 18 20 21 21 23 21 20 20 19 19 17 16 16 16 15 15 15 17
43 43 43 43 43 42 42 42 42 43 44 45 46 48 44 25 11 27 28 30 33 37 32 27 25 21 17 18 16 19 20 21 23 21 22 20 18 17 18 18 18 19 19 19 19
43 42 42 42 42 42 42 42 43 43 44 46 48 48 40 20 8 14 19 16 13 25 26 27 24 22 19 16 14 12 12 14 16 17 19 20 20 21 21 22 21 20 22 23 24
43 42 42 42 43 43 43 43 44 44 45 47 49 45 32 22 20 22 22 20 14 13 14 20 25 26 26 22 21 21 19 21 20 19 19 21 20 21 22 21 21 21 22 23 23
43 42 42 42 43 43 44 45 44 45 46 49 50 39 30 24 26 25 29 29 26 17 13 15 22 26 26 26 22 16 15 10 9 10 13 18 17 17 15 17 20 19 20 21 22
42 42 42 43 43 44 44 44 43 45 48 48 45 37 26 30 30 28 28 28 28 29 25 14 15 17 16 17 15 14 8 6 5 7 13 14 13 13 16 18 19 20 20 20 21
41 42 42 42 43 44 42 42 40 46 43 36 35 33 29 16 14 11 15 24 27 27 27 17 11 11 12 12 7 2 2 3 3 4 8 16 16 14 13 17 16 15 14 15 18
41 42 43 43 42 42 38 24 19 27 17 11 10 12 10 16 25 23 16 7 13 25 22 20 8 8 9 10 8 7 5 4 1 0 11 12 11 7 7 7 7 9 11 11 11
40 41 42 42 42 39 32 22 27 30 24 20 18 17 20 24 25 22 22 10 12 16 19 17 13 9 12 11 11 12 8 12 7 2 1 3 10 10 9 10 13 14 13 12 12
40 40 41 41 41 36 27 27 30 32 25 17 17 22 24 26 24 22 24 20 14 8 9 14 13 13 12 10 12 13 13 10 6 7 11 12 11 12 12 13 13 13 14 17 19
40 40 40 40 36 27 24 27 30 37 22 12 10 22 22 21 18 23 10 22 20 14 5 11 15 14 18 12 14 14 13 11 13 12 8 18 8 9 9 9 13 18 27 32 34
39 39 39 40 27 23 25 30 32 38 2 -1 8 27 17 8 3 5 17 19 17 18 17 7 2 14 19 16 15 16 16 14 14 16 17 16 13 9 9 6 17 26 32 34 37
40 39 38 34 30 27 29 33 34 24 -6 -1 1 10 10 7 1 -3 7 19 19 17 18 15 5 16 18 22 20 17 19 22 22 21 16 15 11 6 8 19 28 33 34 36 38
39 39 34 31 27 31 33 30 15 1 -7 -3 8 10 9 2 -7 2 12 14 12 11 15 13 7 28 21 18 21 21 23 19 16 12 9 9 9 9 20 31 33 33 35 37 39
39 36 33 32 35 35 31 19 3 -8 -10 5 10 8 3 -2 -1 10 10 9 13 11 15 14 6 19 23 21 20 20 20 14 7 8 9 12 13 9 27 32 32 35 36 37 39
37 32 31 36 38 34 24 13 2 4 7 8 7 4 2 10 25 11 8 7 12 29 21 13 11 15 21 20 21 20 20 19 18 21 20 19 15 29 28 33 32 32 35 37 40
29 27 30 37 38 31 21 13 5 8 9 10 6 5 3 5 6 7 6 19 26 33 32 31 20 22 18 20 20 22 20 21 21 14 9 6 5 24 31 29 27 27 34 37 42
30 23 32 35 35 21 18 8 9 10 10 10 8 6 6 5 7 7 6 9 33 32 32 30 28 23 20 20 16 20 26 23 22 17 14 10 17 32 27 23 22 25 33 38 42
27 24 31 34 22 18 13 12 15 11 11 11 12 11 10 12 11 9 11 18 31 28 27 27 32 25 18 21 18 21 22 25 21 21 19 24 25 30 27 20 24 29 34 38 41
23 21 29 33 18 13 11 10 12 13 11 12 11 11 14 12 12 10 13 20 21 30 29 31 31 27 27 29 30 23 23 22 27 27 24 18 18 27 18 20 27 29 36 38 40
29 23 20 20 25 21 17 12 11 14 14 16 16 15 15 16 15 11 12 15 28 32 34 33 29 28 23 21 27 27 28 27 26 22 18 18 15 16 18 24 27 36 37 38 38
30 23 22 18 18 20 21 20 16 16 20 18 19 18 22 20 15 13 21 28 30 34 33 32 27 24 26 23 21 23 23 22 22 22 14 14 11 15 25 30 32 37 37 37 36
30 21 22 21 21 24 21 18 16 18 20 19 20 20 22 20 15 18 20 22 29 33 32 34 26 17 14 14 13 14 15 15 14 14 13 15 16 28 28 32 36 37 35 34 33
27 27 23 17 16 17 16 17 18 28 22 23 26 27 23 24 27 27 27 27 30 32 31 30 17 13 12 10 9 8 10 12 13 19 26 23 27 27 28 32 32 32 33 32 32

GFSSW_sfc_30mbdewp_096.txt.gz
Dewpoint
46 46 45 45 46 46 46 46 45 45 44 44 44 45 47 48 48 38 30 31 29 35 28 15 13 33 29 27 31 30 24 22 20 19 18 17 14 13 9 8 7 11 11 22 39
46 46 46 46 46 46 45 45 45 45 44 44 44 46 47 49 44 36 37 44 46 43 27 15 7 26 26 26 24 23 26 23 22 20 17 15 14 13 10 10 9 10 14 15 28
46 47 46 46 46 45 45 45 44 44 44 43 44 46 48 48 37 27 42 42 43 49 32 28 12 14 18 18 20 21 23 25 23 21 19 17 17 16 12 10 12 13 16 17 19
47 45 43 43 44 43 43 44 43 43 43 44 45 47 49 45 14 28 36 37 46 40 31 28 26 14 13 14 18 16 19 21 22 22 20 20 20 19 18 19 20 19 18 17 20
43 43 43 42 42 43 43 43 44 44 44 44 46 47 46 35 26 34 35 32 30 38 35 29 24 21 13 11 11 16 15 16 19 20 21 22 20 21 20 19 18 19 19 19 19
43 43 43 42 42 43 43 44 44 44 44 45 47 49 42 27 12 14 16 13 11 11 26 25 22 21 19 16 15 14 14 12 12 16 16 18 18 18 20 22 21 21 20 21 21
43 43 43 42 42 43 43 44 45 45 45 47 48 47 35 27 18 20 18 18 15 8 6 13 20 21 20 20 21 16 14 12 13 11 12 16 16 17 19 21 21 22 21 22 22
43 43 42 42 43 43 43 45 45 45 46 48 49 43 34 27 24 21 20 23 26 23 13 9 11 15 20 22 20 19 18 15 16 17 17 18 16 18 20 21 20 22 21 22 23
43 42 42 43 44 45 45 44 45 45 47 47 47 44 29 27 16 27 26 24 26 26 27 22 8 11 18 21 20 18 16 15 14 10 8 6 7 10 14 16 16 14 20 21 22
41 41 43 43 44 44 44 43 42 43 46 40 39 31 31 18 13 16 15 10 18 16 22 25 15 10 10 12 12 13 10 11 9 8 7 9 9 10 13 15 16 19 20 19 20
41 41 42 42 42 43 42 29 21 30 33 14 13 27 17 9 14 19 21 19 12 7 13 22 17 9 7 8 9 8 9 8 8 4 4 7 10 7 14 15 10 11 15 15 16
40 40 40 41 41 43 40 23 25 27 22 20 15 13 12 12 16 18 22 15 7 4 4 14 16 17 12 4 7 9 10 9 9 9 7 5 4 3 5 5 8 8 8 10 12
40 40 40 40 40 38 27 23 26 31 24 17 16 14 16 20 19 18 17 18 16 13 8 6 10 14 14 11 5 9 10 9 10 9 8 7 4 7 10 12 12 12 13 15 16
39 40 40 40 37 26 27 25 28 35 23 16 12 16 22 22 14 16 18 15 8 10 15 14 11 3 5 11 9 7 10 11 13 12 8 7 6 7 11 12 12 13 15 18 30
39 40 39 40 37 24 24 27 29 36 16 8 13 25 18 14 9 4 4 -2 -3 7 12 12 11 12 4 9 12 12 11 13 15 12 11 12 10 10 13 9 11 23 30 33 35
40 39 39 35 37 29 29 32 33 29 16 -0 2 8 9 9 7 3 -3 -5 -2 5 12 11 11 11 12 5 13 21 13 15 16 14 13 13 13 11 13 11 21 32 33 36 39
39 39 37 32 30 32 34 31 23 15 -5 -3 4 7 7 5 2 -0 -4 -7 -5 12 14 19 15 18 14 1 21 21 20 21 20 17 16 15 11 12 15 30 32 31 34 38 41
38 38 34 32 36 36 34 25 11 1 -2 6 6 5 3 2 7 14 11 7 8 20 23 22 14 14 18 18 25 25 21 21 16 15 15 14 11 18 20 30 31 35 36 39 42
38 36 35 36 37 35 30 19 9 6 6 6 6 4 1 3 4 11 9 6 7 27 25 21 17 19 18 26 28 26 23 27 25 21 23 29 13 28 30 33 31 32 35 40 41
34 31 29 36 35 36 26 20 7 8 8 7 5 5 4 4 3 4 5 5 8 29 28 25 22 23 21 24 29 28 26 19 21 23 21 28 24 31 34 29 25 25 35 40 41
34 26 35 34 36 32 22 12 9 8 7 6 7 6 6 7 13 12 13 13 30 25 25 22 26 22 30 27 24 18 25 24 25 22 22 13 24 36 33 26 25 31 35 40 41
31 27 30 32 28 19 17 11 10 9 9 7 7 8 10 11 11 12 10 9 22 24 22 25 30 23 29 27 29 14 22 28 22 20 18 25 30 38 31 25 32 34 36 39 39
28 24 25 34 25 16 13 10 9 10 9 10 11 12 11 9 13 11 11 12 27 26 25 31 25 23 25 28 24 14 15 23 29 26 28 23 29 38 34 32 36 36 36 38 37
31 26 22 25 20 20 16 12 11 12 13 17 16 14 20 20 20 19 16 17 27 31 30 34 26 22 20 24 21 16 18 27 29 24 25 25 29 30 28 31 35 35 35 36 36
32 29 23 21 19 19 20 20 17 16 19 17 18 15 16 16 15 12 22 24 27 30 34 32 26 29 30 30 30 31 31 33 30 26 20 18 23 27 28 33 34 34 34 34 33
31 26 15 20 23 22 23 19 16 19 21 19 22 20 21 22 20 17 21 23 29 31 33 33 29 31 28 30 27 30 32 31 20 20 17 19 21 27 29 32 31 31 31 30 30
26 24 23 17 17 18 21 16 17 23 23 21 23 24 22 28 29 29 30 28 29 28 32 31 30 20 10 8 11 13 13 14 27 27 26 25 26 27 29 28 27 27 27 27 27

GFSSW_sfc_30mbdewp_099.txt.gz
Dewpoint
46 46 47 46 47 47 47 47 46 47 46 46 45 45 46 48 49 44 36 36 39 41 29 25 14 11 29 28 28 32 29 28 27 24 23 23 22 21 18 9 9 10 12 42 47
45 46 47 47 47 47 46 46 46 45 45 45 45 45 46 49 46 41 41 40 40 39 30 23 10 8 29 28 26 24 26 28 27 26 24 22 21 20 20 17 10 12 17 41 44
46 47 47 46 44 44 45 44 44 44 45 44 44 45 48 50 42 34 46 44 44 49 35 31 28 11 13 27 27 24 21 23 23 27 27 24 22 21 21 19 14 15 17 18 31
47 46 44 43 43 43 43 45 44 44 45 45 44 46 48 48 4 31 42 45 43 43 38 29 27 25 12 13 19 19 22 21 21 21 23 23 22 21 22 22 23 21 20 20 21
44 43 43 43 43 42 43 45 44 44 44 44 45 47 48 38 37 36 35 34 41 38 35 32 29 27 22 14 13 13 14 17 18 19 19 20 19 20 21 22 21 22 22 21 23
43 43 43 43 43 42 43 44 45 44 45 46 46 48 45 20 25 27 25 25 21 21 29 33 28 24 22 21 18 15 14 13 13 16 14 14 18 17 19 18 18 19 20 22 23
43 43 43 43 42 43 43 44 45 45 45 46 48 48 41 29 31 28 21 16 16 16 13 10 10 11 18 19 22 20 18 19 16 15 13 13 11 12 17 18 18 18 20 20 21
44 43 43 42 43 44 44 45 46 45 45 47 49 46 37 37 32 25 20 18 18 19 18 16 13 10 10 16 18 19 20 18 19 17 17 14 12 13 18 18 18 19 20 21 22
44 43 42 43 44 45 45 45 45 45 45 47 46 45 40 30 25 16 16 16 14 24 25 23 22 12 8 10 14 19 17 18 18 19 17 14 13 15 17 17 18 19 20 21 21
43 42 41 42 43 43 44 44 44 45 43 43 41 41 41 26 12 16 17 18 16 10 8 15 23 21 11 8 9 15 18 19 18 18 17 15 12 10 11 13 12 14 18 19 22
41 41 41 41 41 42 42 38 25 32 35 32 31 29 27 20 6 9 16 18 20 14 8 7 14 21 14 10 10 11 13 10 10 11 13 11 7 8 9 10 9 11 14 11 16
41 40 40 40 40 42 40 27 24 26 24 23 21 19 17 12 11 11 17 18 14 12 8 6 6 12 21 16 11 10 8 7 8 11 11 10 8 9 8 7 7 7 8 8 9
40 40 40 40 41 39 32 24 30 34 27 21 19 17 17 14 10 15 19 19 17 15 15 14 10 11 11 14 16 15 10 6 7 12 12 12 11 9 9 8 7 8 4 7 9
39 39 40 41 40 36 27 28 30 36 27 19 14 15 22 21 17 15 16 13 14 12 10 12 14 14 13 13 8 3 12 11 7 8 11 13 10 10 7 7 8 8 12 13 14
39 40 40 40 36 30 30 32 31 36 7 16 16 22 20 14 14 9 8 4 1 -0 -2 -2 1 7 10 11 12 12 8 17 11 10 14 13 11 10 12 11 13 18 13 13 19
40 40 39 37 39 33 35 35 35 29 16 0 15 14 8 10 8 7 5 5 3 -1 -5 -6 7 15 18 19 14 11 13 20 25 17 13 15 14 12 12 13 15 33 40 43 44
39 39 38 36 33 37 37 34 27 22 1 4 6 7 6 5 4 5 12 11 9 6 10 16 17 18 19 17 19 20 14 19 19 19 17 16 15 15 16 16 28 40 41 43 44
38 39 38 36 38 39 36 29 17 10 6 7 7 6 4 4 5 6 7 9 9 19 21 19 17 19 21 20 24 18 16 22 14 16 17 18 15 15 17 23 44 42 42 43 44
38 36 38 38 38 39 33 24 13 6 7 6 6 4 4 6 6 7 10 6 11 26 19 19 13 19 19 25 27 26 24 22 27 24 25 24 25 30 37 39 41 41 41 41 41
35 36 34 36 37 37 31 23 11 8 7 6 4 6 6 6 7 12 14 14 18 23 27 24 18 16 16 28 31 27 29 24 29 21 19 27 30 29 34 36 40 40 39 39 39
34 31 35 35 38 34 24 21 10 7 7 6 6 5 7 7 10 12 12 16 18 23 24 22 22 19 24 26 27 30 27 28 30 24 24 23 27 33 35 40 39 38 37 37 36
35 29 33 34 31 29 22 12 10 9 10 10 8 10 11 12 12 12 13 12 15 24 20 29 27 22 20 22 32 31 29 29 23 21 23 26 27 36 39 40 36 36 36 35 34
33 28 31 35 27 23 13 10 9 9 10 12 16 18 16 17 16 19 21 22 28 27 22 30 25 18 15 26 29 28 27 27 28 31 26 24 26 38 38 34 33 33 34 33 32
35 23 25 31 22 21 19 17 13 17 17 19 17 17 18 20 20 21 21 21 26 28 28 33 27 21 15 18 23 26 27 27 27 24 29 29 29 31 31 30 30 30 31 30 30
35 29 24 22 21 20 20 21 19 17 21 20 18 22 21 19 20 19 21 26 26 27 30 31 25 26 25 24 26 27 28 32 31 32 29 27 25 30 29 28 28 28 28 27 27
26 28 15 27 25 14 22 21 17 19 23 21 23 22 23 22 23 26 27 26 28 32 32 32 26 31 29 32 32 30 32 32 31 30 30 28 25 30 27 26 25 25 25 25 25
31 26 26 21 18 23 26 20 17 23 23 22 25 27 23 24 31 31 30 30 29 28 27 30 29 28 25 30 29 27 29 26 26 26 26 23 25 28 24 23 24 24 24 24 24

GFSSW_sfc_30mbdewp_102.txt.gz
Dewpoint
46 46 47 47 47 48 48 47 46 47 46 46 46 46 46 47 49 45 30 21 41 43 35 27 19 14 24 28 31 33 30 26 27 26 26 27 26 26 22 21 21 16 14 28 51
46 46 47 47 47 46 45 45 45 45 45 46 46 46 46 48 48 41 38 40 46 37 27 24 20 9 16 28 27 26 28 30 31 29 28 28 27 26 23 22 21 20 24 47 51
46 47 48 46 44 44 44 44 45 45 45 45 45 45 47 49 41 33 46 45 47 45 35 31 29 27 9 25 28 24 25 28 27 26 25 25 26 27 25 22 22 22 23 23 40
47 47 45 44 43 43 43 45 44 45 45 45 45 45 47 48 -18 31 49 48 48 44 37 30 27 26 17 10 17 26 26 24 23 23 22 21 21 22 23 23 23 23 22 22 23
47 45 44 44 44 43 43 44 44 45 45 45 46 46 47 37 26 37 42 45 39 34 30 29 29 29 27 23 16 12 13 15 18 21 21 21 21 22 21 21 23 21 20 20 23
45 43 44 44 44 43 43 44 45 45 45 46 46 48 45 15 17 35 35 29 24 33 29 33 34 28 22 21 21 20 18 18 16 14 13 15 15 17 17 20 19 18 17 19 20
44 44 44 44 43 43 43 44 45 45 46 46 48 48 43 19 30 30 29 19 17 13 13 14 13 11 10 8 16 16 16 19 20 20 18 15 14 13 14 15 15 17 17 18 20
44 44 44 44 43 44 44 44 45 45 45 46 48 47 30 36 38 36 27 19 18 18 18 18 18 15 10 11 8 11 15 16 19 20 20 17 15 16 16 15 15 16 16 17 19
45 44 43 43 43 44 43 44 44 44 46 46 46 45 35 43 35 33 25 16 16 16 17 15 21 18 16 10 5 15 9 12 15 20 20 19 17 18 17 17 17 17 18 19 19
45 44 42 42 43 43 43 43 43 45 44 44 41 39 40 26 11 13 16 15 15 16 14 9 15 21 15 15 5 5 13 15 15 15 18 18 18 18 18 16 12 12 12 15 19
44 42 41 41 41 42 43 36 22 28 37 35 35 35 27 25 12 10 12 18 19 14 13 11 4 5 18 16 16 11 6 5 6 9 11 9 8 11 15 11 10 11 12 13 15
42 41 40 40 40 42 42 25 25 26 18 24 24 30 31 26 19 16 14 13 17 13 13 10 7 7 11 19 17 15 11 9 10 11 10 8 8 10 11 10 9 9 9 10 12
41 40 40 40 41 40 31 26 34 32 20 20 22 20 19 20 15 12 16 19 16 15 16 14 14 15 14 13 12 13 15 15 14 14 13 9 8 9 12 11 11 11 10 9 8
40 39 40 41 38 37 30 31 30 35 20 16 19 19 22 21 16 15 8 10 5 3 5 10 13 11 7 6 10 10 12 13 11 8 10 16 9 9 13 13 13 12 11 10 10
39 39 40 40 36 30 31 33 33 36 -12 18 20 21 22 12 10 11 8 6 3 3 2 1 0 -3 -2 -1 0 3 16 15 12 11 22 14 16 12 14 12 12 12 34 38 38
39 40 39 38 39 36 36 36 35 26 -5 7 13 8 8 7 6 7 8 14 11 6 5 3 4 1 4 16 19 19 18 16 17 21 19 18 21 14 14 15 15 40 44 45 44
40 39 38 38 33 37 38 33 24 13 10 6 7 7 7 5 6 7 8 6 9 6 7 14 16 17 18 18 20 19 18 14 16 17 15 16 17 15 24 25 19 39 42 43 43
38 38 37 38 37 39 36 27 10 11 6 8 6 6 5 8 7 7 10 12 7 19 21 18 12 17 19 16 14 14 25 17 12 14 17 18 15 23 39 41 43 43 43 40 39
38 36 36 38 38 39 32 19 13 7 7 6 5 5 6 7 8 10 13 12 16 23 19 19 17 20 19 18 28 24 23 24 21 19 17 24 23 33 38 39 39 39 38 37 35
35 36 35 37 38 37 28 23 7 7 6 6 4 6 5 6 8 11 12 13 14 19 26 22 16 17 16 20 24 28 26 21 24 14 14 22 26 30 32 37 38 35 34 34 33
34 32 35 35 38 33 21 22 9 7 8 6 6 7 6 9 10 12 11 12 15 19 23 21 21 16 20 22 24 29 29 27 25 25 16 19 25 32 32 33 33 34 32 31 30
35 29 35 36 29 30 23 13 10 9 10 11 11 13 15 16 15 15 14 15 21 24 19 29 25 19 19 21 21 29 31 27 21 16 26 26 26 33 32 32 32 30 30 29 29
31 27 32 35 23 23 16 11 10 16 17 18 18 18 17 17 18 23 21 24 25 25 22 27 20 17 14 25 30 30 33 33 32 32 26 25 25 33 31 29 27 27 27 27 26
34 19 26 31 25 21 19 17 16 19 19 21 19 20 23 21 21 20 20 21 26 26 26 32 26 20 16 16 20 22 29 32 30 26 26 24 25 27 26 25 25 25 25 25 25
33 26 25 22 22 21 20 20 18 17 22 21 20 23 22 19 21 20 24 26 27 28 30 31 24 26 25 24 23 23 30 31 29 30 25 24 24 25 24 24 23 23 24 24 24
28 19 26 26 17 11 22 20 17 19 21 21 22 23 24 23 21 20 26 26 24 30 31 27 24 28 25 28 27 27 29 27 26 28 27 25 24 25 23 21 21 22 22 22 23
32 29 25 26 22 23 25 20 18 21 23 24 23 27 27 26 27 30 31 30 27 26 24 26 27 27 25 29 29 21 25 24 23 24 23 21 25 22 20 20 21 21 21 21 22

GFSSW_sfc_30mbdewp_105.txt.gz
Dewpoint
48 47 46 47 48 48 47 46 46 46 46 46 47 47 47 47 49 46 28 21 40 38 36 30 20 17 26 27 30 32 27 24 21 21 23 26 27 28 26 22 24 22 21 31 52
48 46 46 48 48 46 45 45 45 45 46 46 46 46 46 48 46 36 38 40 47 45 29 22 20 11 13 27 27 27 29 27 29 27 28 30 29 29 27 26 25 24 24 24 38
47 47 47 48 46 45 44 44 45 45 45 45 46 46 47 49 33 18 47 47 47 43 32 30 28 27 12 24 27 25 27 29 29 29 28 26 26 27 26 25 25 24 23 22 22
47 47 47 46 44 44 44 45 44 45 45 45 46 47 48 48 -26 30 49 45 49 43 34 30 27 25 22 13 13 22 23 25 25 25 24 22 23 21 22 22 25 24 24 22 21
48 48 46 44 44 44 44 44 44 45 45 45 46 47 46 32 20 31 49 51 44 37 25 25 26 27 26 26 23 20 20 17 15 15 16 18 18 19 19 21 23 24 24 24 22
48 47 45 44 44 44 44 43 44 45 45 46 46 48 43 10 14 31 37 32 26 32 29 32 31 30 13 12 12 19 17 17 19 19 17 16 16 16 17 18 18 22 22 21 23
48 46 44 44 44 44 43 44 44 44 44 46 47 48 43 14 27 27 31 25 21 23 15 13 15 11 11 9 11 11 11 12 16 18 19 18 18 17 18 16 15 15 17 18 18
47 46 45 45 44 44 43 43 43 43 44 45 47 47 27 35 38 39 35 26 22 17 16 18 17 16 12 11 9 7 8 10 18 16 17 18 16 18 19 18 17 16 16 16 17
47 46 45 44 44 43 43 43 43 44 45 46 46 44 24 40 39 34 35 24 17 18 18 14 19 18 16 17 17 11 3 7 9 14 17 18 15 18 18 19 18 18 18 18 18
47 46 45 43 43 43 43 43 44 45 45 45 42 37 33 23 18 12 19 16 14 17 17 10 20 18 16 17 6 3 8 12 12 14 9 7 7 8 10 10 10 14 17 16 15
46 46 43 42 41 42 42 36 20 27 38 31 33 30 31 28 19 12 15 11 18 16 15 13 6 6 10 16 19 18 18 17 16 15 12 11 11 11 11 11 9 11 13 12 13
47 44 42 40 40 41 42 26 25 27 12 24 29 34 35 34 28 19 16 10 18 14 15 12 10 9 8 11 15 16 16 15 14 14 14 14 14 14 13 11 10 11 12 12 12
47 43 40 40 41 40 32 28 34 29 12 12 23 20 17 20 15 15 14 16 17 16 16 15 14 14 12 12 12 13 13 13 13 12 12 11 11 11 12 13 12 11 12 15 32
44 41 40 40 35 37 31 32 32 35 16 10 20 20 21 19 15 15 7 7 5 3 3 4 7 3 1 0 1 -4 2 5 7 12 10 14 10 13 16 15 16 15 37 44 44
42 39 40 40 36 32 31 34 34 36 -19 19 20 14 11 12 9 10 11 6 4 6 4 3 3 3 1 -0 -2 -4 1 11 17 17 15 13 13 14 16 14 15 26 42 42 43
40 39 40 40 38 35 37 36 35 22 -8 11 9 8 8 8 7 9 10 12 13 8 7 7 10 9 7 12 15 17 17 14 15 16 14 11 14 13 15 16 21 40 40 40 39
39 40 38 37 33 37 38 34 21 15 10 7 7 8 10 7 8 8 10 9 5 7 9 16 14 17 18 18 18 19 17 13 10 9 10 12 12 13 35 37 39 39 39 38 36
39 39 37 37 37 39 35 26 9 13 7 8 6 7 7 7 7 9 12 7 14 19 20 16 9 16 20 17 15 15 14 10 7 10 12 19 18 29 38 38 37 36 35 35 35
38 35 35 37 38 39 31 14 8 7 7 6 6 6 7 7 6 9 11 11 15 17 13 16 16 17 16 16 18 22 16 17 16 17 17 15 16 33 34 33 33 32 33 33 32
34 35 35 38 39 36 27 20 7 8 8 8 3 6 4 5 8 11 11 11 12 13 25 19 14 15 14 19 17 21 22 21 23 15 13 13 21 24 27 28 31 30 30 31 31
36 31 34 36 38 31 18 23 8 10 10 7 7 7 6 12 13 13 13 13 16 19 23 23 21 16 18 15 13 25 27 27 24 21 14 10 21 29 27 28 28 29 29 30 28
34 27 35 37 29 29 23 19 10 9 11 13 13 16 16 16 16 15 14 14 16 23 21 23 24 19 15 17 18 18 20 30 24 21 21 20 20 30 29 29 29 26 26 26 28
28 29 32 35 23 24 21 12 17 17 18 18 18 18 19 17 16 21 21 23 25 24 23 26 21 15 11 26 28 28 31 30 32 31 23 20 20 30 29 25 26 25 25 24 25
27 19 27 32 26 20 17 16 19 19 21 20 19 21 22 21 21 19 22 20 26 26 27 28 24 19 11 13 18 24 26 28 30 26 23 23 21 23 23 22 23 24 25 24 23
31 23 26 23 19 20 20 19 17 16 22 20 20 23 22 20 20 20 20 23 24 26 29 29 23 25 24 22 24 27 28 29 27 30 22 22 20 21 21 21 22 23 21 21 21
28 22 29 23 22 19 21 19 16 18 20 20 21 23 24 23 20 18 20 22 24 27 30 31 21 26 23 26 28 23 24 22 26 27 26 23 19 22 21 20 19 20 20 20 21
32 29 24 21 16 20 19 20 19 21 24 22 23 24 25 25 27 28 28 28 28 27 27 27 24 24 23 27 22 14 22 22 22 23 22 20 21 21 19 18 19 19 20 20 21

GFSSW_sfc_30mbdewp_108.txt.gz
Dewpoint
49 49 47 47 48 49 46 45 46 46 46 46 47 46 47 47 48 45 22 19 37 40 40 31 20 18 27 26 30 32 25 23 20 19 20 26 28 30 28 26 26 26 26 25 42
50 49 47 47 48 47 46 45 45 45 46 46 46 46 47 48 46 34 34 40 43 46 30 22 18 13 12 24 27 27 30 26 27 24 26 29 29 29 27 27 26 28 29 27 38
50 49 48 48 48 46 45 45 45 45 45 45 45 47 48 49 25 2 47 48 47 48 31 30 27 25 8 26 27 26 21 27 29 30 30 28 27 27 25 24 26 25 25 25 24
51 50 48 48 46 45 45 45 45 44 45 45 46 47 48 46 -26 23 50 47 49 41 34 29 27 25 21 12 14 24 24 25 24 23 23 21 23 21 22 21 23 23 24 25 24
51 49 48 47 45 45 45 45 44 44 45 45 46 48 44 20 3 26 50 50 48 38 23 23 24 26 24 25 22 21 21 17 16 16 17 16 16 17 17 19 20 22 23 23 24
51 49 48 46 45 45 45 44 44 44 44 45 46 48 41 -3 13 31 39 40 30 31 29 31 33 30 14 13 11 16 11 12 14 14 17 17 18 18 18 20 18 18 19 20 23
51 49 48 46 45 45 44 44 43 44 43 45 46 48 42 8 30 29 35 27 22 26 18 20 17 10 11 13 11 9 8 8 11 17 18 19 15 17 19 18 17 17 18 18 18
50 50 48 46 45 45 44 43 43 42 43 44 46 46 25 34 38 38 36 31 28 21 16 16 14 16 15 14 17 14 9 4 15 9 10 17 6 13 17 13 12 13 14 17 19
50 49 47 46 45 44 43 42 42 44 46 45 46 42 18 34 36 37 38 26 21 19 18 18 18 17 15 16 16 12 2 6 8 15 12 12 11 15 14 11 12 12 11 12 14
50 49 47 46 44 43 43 42 44 45 45 45 43 35 27 23 25 14 36 18 15 16 17 12 19 18 16 16 6 2 3 11 14 15 16 15 13 13 14 14 13 13 13 12 12
49 48 47 45 43 42 42 34 22 25 40 22 26 24 27 33 27 15 19 14 17 16 13 13 9 10 15 17 17 14 16 17 17 18 17 15 13 14 15 15 14 14 14 13 12
50 49 48 44 41 41 41 27 23 26 11 23 34 35 36 34 29 26 17 10 15 9 15 13 10 11 7 9 11 12 12 13 15 15 13 12 9 9 11 13 14 14 14 13 14
49 48 46 43 41 39 35 27 33 27 9 4 22 19 13 24 17 13 15 14 16 14 14 13 15 14 12 10 11 13 13 12 8 7 8 5 6 4 8 11 14 17 17 30 40
47 48 45 41 29 37 31 31 32 33 4 6 18 20 20 18 14 15 10 9 5 8 4 3 7 4 2 1 1 -2 1 2 -0 -1 -2 13 3 4 8 12 13 13 16 43 42
48 46 43 39 35 33 31 34 36 33 -15 17 18 13 12 14 10 9 13 7 6 7 5 5 4 9 7 6 2 0 2 2 3 12 15 6 5 1 7 9 23 37 40 38 38
46 43 40 40 38 35 36 36 35 18 -14 11 9 8 9 10 8 9 10 11 12 9 7 7 13 10 9 9 12 13 15 15 14 13 8 5 2 3 15 33 35 38 37 37 36
44 41 38 39 32 37 37 34 15 8 10 7 5 9 8 8 9 8 8 6 2 1 9 16 13 16 18 17 17 16 13 9 8 12 6 5 7 12 32 32 32 32 33 34 33
42 41 40 39 37 39 36 29 8 10 7 7 6 9 6 6 8 11 9 5 19 16 14 14 6 17 18 16 15 14 13 9 6 7 10 10 10 28 33 32 34 34 33 32 30
40 36 35 36 38 38 30 16 -3 9 8 6 6 6 8 7 6 9 10 10 14 14 7 11 16 17 13 13 15 17 13 13 10 10 11 14 18 30 27 28 30 31 31 30 29
33 34 34 38 39 35 27 14 8 9 8 7 5 6 5 5 7 11 10 13 12 15 19 20 14 13 14 18 18 17 22 18 20 13 13 13 19 21 24 26 27 28 28 27 28
35 30 36 38 38 31 18 20 8 10 10 8 6 7 6 11 12 12 12 12 15 18 23 22 20 13 18 15 10 20 22 20 19 21 16 12 18 28 25 26 25 26 27 27 27
34 24 36 38 30 29 22 21 11 11 15 15 15 13 13 16 14 15 14 11 20 22 19 22 23 18 15 17 22 17 19 20 18 22 22 19 19 29 27 26 25 23 24 24 27
30 30 34 35 24 25 24 16 18 17 18 17 19 18 18 16 12 18 20 22 25 23 21 26 21 14 10 24 28 25 29 30 28 27 25 19 19 27 26 21 21 22 23 23 23
27 24 29 32 28 24 17 18 17 21 21 19 19 21 22 21 21 18 21 22 26 25 26 27 22 16 7 7 13 20 24 28 27 22 22 21 20 21 21 19 19 21 22 23 23
29 23 27 26 20 21 19 19 17 17 22 20 19 22 20 19 20 20 20 22 23 24 27 27 22 23 23 21 23 26 24 24 28 28 23 21 18 19 20 20 20 22 21 21 21
27 24 28 24 24 20 20 18 16 19 20 19 19 22 23 22 19 17 22 22 22 25 30 31 22 25 21 23 27 21 23 22 21 24 22 20 17 22 22 22 20 19 19 19 20
31 29 22 20 21 17 18 19 18 20 22 22 22 23 24 25 26 25 25 28 28 27 28 27 25 22 20 24 23 17 21 21 20 21 23 19 20 22 19 18 18 18 19 19 20

GFSSW_sfc_30mbdewp_111.txt.gz
Dewpoint
51 50 49 48 48 49 47 46 46 46 46 47 46 46 47 48 48 44 20 20 35 42 40 30 19 24 26 25 33 31 21 20 16 17 17 26 28 30 30 28 28 28 28 30 29
51 50 50 48 48 48 47 46 46 45 46 46 46 47 48 49 45 31 32 39 45 45 31 24 16 15 16 23 27 31 28 22 24 22 23 29 29 29 28 28 28 28 30 29 26
51 50 51 49 48 47 46 46 46 45 45 45 46 47 49 49 14 2 50 46 44 49 31 29 25 13 11 28 26 26 14 26 30 29 30 28 26 26 24 22 24 23 23 25 26
52 51 51 49 48 46 46 46 46 44 45 45 46 47 49 45 -17 20 50 49 48 44 32 28 26 24 18 10 20 23 26 26 26 24 22 21 22 19 20 19 21 21 24 25 25
52 52 51 49 48 46 46 46 45 44 45 45 46 48 42 10 -5 25 48 51 48 36 23 23 23 25 20 23 23 21 20 18 17 14 16 17 17 18 18 20 20 21 22 22 23
52 52 50 49 47 46 46 45 45 44 44 44 46 48 37 -6 18 30 37 43 32 30 27 31 30 28 17 15 15 19 13 11 12 12 13 15 16 19 20 19 17 16 16 17 18
52 52 50 49 47 46 46 45 44 43 43 44 46 47 39 1 32 34 35 27 22 29 20 26 22 11 11 13 13 10 9 10 9 15 16 19 10 17 18 15 12 13 14 15 16
53 52 50 49 46 46 45 45 43 42 43 44 45 45 16 32 37 35 36 31 31 24 19 16 15 17 17 17 19 16 12 6 13 14 12 15 -1 17 16 14 13 15 15 15 15
53 52 51 48 46 45 45 43 41 45 47 46 45 40 11 31 31 36 37 25 23 21 20 19 18 18 15 17 16 14 2 5 6 15 15 14 9 13 15 14 15 14 14 15 16
54 52 50 48 46 44 43 42 44 45 46 46 44 31 22 19 28 19 39 25 16 17 16 15 20 18 17 16 -2 1 5 9 9 15 14 14 13 14 15 14 12 14 16 16 16
54 52 49 47 45 43 39 33 25 25 40 21 20 15 23 33 31 17 20 15 17 17 15 13 11 12 12 17 17 16 13 13 16 15 17 15 10 7 9 9 11 13 11 13 15
53 51 49 47 45 42 40 29 22 27 16 24 33 34 35 34 24 26 18 12 14 10 16 13 11 12 10 11 12 12 11 11 13 15 10 3 1 1 4 10 7 8 12 14 18
52 50 48 45 42 37 33 28 33 26 14 5 21 21 17 28 23 17 14 11 12 12 14 10 12 14 12 11 10 11 10 8 4 5 3 1 -0 -0 0 4 10 25 38 40 40
51 49 46 41 33 35 33 31 34 32 4 -0 12 19 20 19 13 16 11 15 9 14 15 12 8 7 5 2 3 1 5 3 3 1 -4 6 -3 -0 2 10 34 37 37 36 36
50 47 45 39 35 35 35 34 36 32 5 16 20 16 18 15 12 9 13 8 5 4 6 7 6 9 8 7 4 6 6 8 9 8 10 6 6 -1 1 20 31 32 32 33 32
49 46 42 39 38 36 36 36 35 16 0 12 9 9 10 10 9 9 9 11 12 9 8 8 16 12 10 10 11 16 16 15 16 13 3 2 2 0 25 30 31 31 31 31 30
48 45 41 37 30 38 37 34 13 5 9 8 6 10 8 9 8 9 7 5 3 2 6 13 10 17 19 15 18 14 11 8 6 10 2 10 8 10 31 32 31 30 30 30 28
46 42 39 38 38 39 38 26 4 7 8 12 9 9 6 7 8 11 7 6 18 13 12 7 2 17 18 16 12 12 11 5 2 3 5 6 1 19 29 29 29 29 28 27 27
43 39 39 39 40 38 29 8 7 8 9 6 8 7 7 8 6 9 10 8 16 12 6 8 12 18 17 14 12 15 13 13 9 8 7 5 17 27 26 26 26 27 26 26 27
35 35 32 39 41 34 26 10 9 9 8 8 5 7 7 5 7 10 8 13 13 16 15 17 13 15 13 18 18 13 18 17 15 12 10 11 12 21 24 24 24 24 25 25 26
35 31 36 39 38 30 19 15 9 10 10 8 7 7 7 8 10 11 8 11 14 22 23 21 15 10 17 14 12 19 17 17 16 14 15 13 18 27 24 24 23 23 24 25 26
34 28 38 39 30 28 20 21 12 11 16 14 14 11 11 15 14 13 12 14 20 21 17 22 23 17 15 17 24 18 17 24 18 16 21 21 19 26 25 24 24 21 23 23 26
32 32 36 36 23 24 25 18 16 15 17 18 18 18 18 16 11 17 18 24 22 22 21 27 21 12 14 25 27 21 23 27 28 24 18 17 19 24 24 22 21 21 21 21 22
30 25 31 33 30 20 20 17 17 22 20 19 19 21 20 18 20 18 20 23 25 23 27 28 22 15 2 1 10 18 22 25 27 21 17 22 19 19 20 19 19 20 20 22 22
28 27 27 24 27 24 19 18 17 18 21 19 20 20 19 18 20 19 21 21 22 24 25 26 20 21 21 20 21 25 24 24 20 23 22 20 17 19 20 19 19 19 20 20 20
27 26 28 25 25 22 20 19 16 20 20 18 18 22 21 19 18 18 21 22 22 25 29 30 22 25 20 21 24 21 23 23 21 23 21 19 17 20 20 19 18 19 19 18 19
32 30 27 26 23 18 18 20 18 20 22 22 22 23 23 24 25 23 24 26 26 25 29 27 25 22 19 23 22 19 21 21 21 22 24 20 19 20 18 17 17 18 19 18 19

GFSSW_sfc_30mbdewp_114.txt.gz
Dewpoint
52 51 50 50 48 49 48 47 47 46 46 47 47 47 48 49 48 33 21 24 31 40 41 28 22 24 22 20 29 24 13 12 14 15 15 17 21 21 28 26 25 28 28 29 29
53 52 51 50 49 49 47 47 47 46 45 46 46 47 49 50 38 20 31 37 44 45 27 19 14 16 11 14 18 16 11 12 15 15 14 15 19 20 23 22 22 24 25 24 22
54 52 51 51 49 48 47 47 47 46 45 46 46 47 49 47 22 17 51 46 47 45 26 21 16 10 8 16 16 14 13 10 19 19 20 19 21 19 17 16 18 18 18 19 23
55 53 52 51 49 48 46 47 46 45 44 45 45 47 49 36 3 22 51 49 46 41 25 18 15 11 2 5 15 16 15 14 15 20 20 17 13 13 14 15 18 18 21 22 22
55 53 52 51 50 48 46 46 46 45 44 44 45 47 38 8 -3 23 47 50 41 31 17 14 12 9 5 7 12 16 10 13 18 17 15 14 14 14 14 15 16 20 20 19 19
55 53 52 51 50 48 46 46 46 45 44 43 45 48 30 9 13 23 34 40 30 25 18 18 14 14 13 13 13 15 18 15 13 12 10 9 9 11 14 18 17 14 13 14 15
55 54 53 51 50 47 46 46 46 44 42 43 45 42 29 14 21 28 31 27 25 23 21 22 22 18 13 10 14 12 10 6 6 5 9 14 11 12 13 16 14 12 10 10 11
55 54 53 51 49 47 46 45 45 42 43 45 45 40 18 22 27 28 20 26 28 24 22 18 18 18 17 18 17 14 11 2 8 12 11 10 -3 1 16 14 11 9 9 9 9
56 54 53 51 49 46 45 44 42 46 47 47 43 39 14 27 25 29 24 17 23 23 23 18 19 19 19 15 9 11 -6 -5 -0 9 10 7 1 5 8 10 11 11 8 7 9
56 55 52 50 48 45 42 40 41 46 43 43 41 31 21 6 28 23 36 26 18 19 18 18 17 15 15 11 -2 -5 -0 -1 1 3 9 8 6 5 9 9 9 10 7 9 6
56 54 52 50 47 43 38 32 29 31 37 24 19 16 16 30 30 17 21 18 18 17 14 16 12 10 8 10 10 9 7 4 3 8 10 8 6 2 -1 -1 -0 1 5 6 21
55 54 51 48 45 43 33 26 22 28 25 23 22 22 23 32 22 17 20 13 14 10 13 15 10 11 13 12 10 9 6 4 6 11 7 0 -3 -4 -4 0 5 5 21 34 35
55 52 50 47 43 36 29 29 32 29 19 18 12 15 19 26 10 11 16 12 11 7 9 7 4 13 11 9 10 8 8 6 5 1 -0 -2 -5 -7 1 3 19 33 33 33 34
54 51 47 43 39 32 23 32 35 33 22 25 7 11 18 17 11 14 12 10 7 4 5 8 7 11 10 9 8 4 5 3 2 1 -5 -1 -4 1 -1 8 26 29 31 32 32
52 49 44 45 37 32 31 37 40 35 24 16 15 20 17 10 10 9 12 11 8 9 12 7 8 9 9 8 7 4 8 7 7 5 5 2 1 2 -3 4 26 31 32 31 31
51 46 44 39 38 38 38 38 35 24 20 13 13 14 13 10 10 9 9 13 12 9 9 9 12 9 8 9 9 9 9 7 8 7 3 1 -2 -1 11 28 30 31 30 30 29
48 45 43 40 37 40 39 35 22 18 10 10 11 11 14 9 8 8 8 8 7 6 7 8 9 11 14 8 12 12 8 1 1 8 2 3 4 -1 28 29 28 28 28 28 28
47 44 40 39 41 41 37 28 22 19 10 10 10 11 12 10 9 9 7 8 13 8 8 4 2 10 16 11 8 12 10 1 -9 -9 -6 7 3 9 28 27 27 27 27 27 27
44 40 40 40 42 38 31 23 23 20 11 8 9 10 9 8 8 8 8 7 8 11 5 5 2 13 17 15 12 8 9 8 5 6 5 3 2 23 26 26 25 25 26 26 26
39 37 39 42 42 36 29 25 20 9 9 6 3 8 7 8 7 7 6 7 11 12 10 10 4 8 12 15 13 9 13 14 10 9 6 4 6 20 25 25 25 25 24 25 25
37 33 35 42 40 34 25 24 16 9 9 8 6 8 7 7 7 7 4 9 12 14 14 15 12 6 13 10 7 13 12 13 15 14 12 11 20 27 25 25 23 23 23 25 25
37 29 36 41 30 31 26 21 15 9 11 11 10 10 8 9 9 8 9 9 14 18 13 16 18 12 11 15 18 13 12 14 14 15 15 18 17 25 24 23 23 21 22 22 24
32 31 40 39 27 26 23 19 13 10 11 12 12 13 16 12 12 12 15 21 22 18 15 22 16 11 14 26 25 26 20 16 22 25 18 17 19 25 25 22 22 22 21 22 23
34 27 31 34 34 26 22 17 14 16 15 17 18 18 17 15 14 13 15 22 25 23 25 26 19 15 7 5 10 15 23 25 25 21 17 21 22 21 22 21 21 21 22 23 24
35 29 29 26 29 24 20 16 12 14 18 18 19 16 14 13 14 14 16 22 23 25 23 25 17 19 20 18 18 20 22 23 23 22 21 23 20 20 21 21 21 23 22 22 22
33 26 26 26 26 25 20 15 13 18 17 15 15 16 16 12 12 15 19 20 24 22 21 23 18 24 21 22 22 25 23 25 24 22 23 22 18 23 20 22 21 21 21 20 21
34 28 27 24 25 23 21 16 17 24 21 18 17 19 18 17 20 20 21 25 25 25 26 29 24 23 20 21 23 20 23 23 23 24 25 23 21 23 20 19 19 20 21 20 20

GFSSW_sfc_30mbdewp_117.txt.gz
Dewpoint
54 52 51 50 49 49 49 47 47 47 46 46 47 47 47 50 48 29 22 23 29 36 37 24 22 21 17 18 24 22 14 14 14 14 15 17 16 20 21 25 22 24 26 27 28
54 53 52 51 50 49 48 47 47 47 46 45 47 47 48 50 39 23 38 37 36 43 24 18 12 14 13 13 16 19 14 13 14 13 15 15 14 16 18 19 21 22 24 24 23
55 54 52 51 50 49 48 47 47 46 45 45 46 46 48 47 28 23 49 43 46 42 26 17 14 11 9 10 13 14 14 14 14 13 18 15 16 16 18 16 16 17 19 19 21
56 55 54 52 51 50 48 47 47 46 45 44 45 46 48 39 20 28 51 46 46 42 24 17 13 9 5 3 9 9 12 11 11 10 15 15 16 13 11 13 14 15 16 20 21
56 55 54 52 52 50 48 47 47 46 45 43 44 46 40 25 20 35 47 44 38 29 16 11 10 10 7 5 5 3 7 4 4 9 13 11 9 8 8 9 9 11 18 18 18
56 55 54 53 52 50 48 47 47 46 45 43 44 46 31 27 13 12 23 29 26 20 11 8 4 6 6 5 7 7 7 10 7 8 6 6 4 3 2 7 13 13 12 12 12
56 55 54 53 52 50 48 47 46 46 44 43 44 38 30 30 21 19 21 14 19 15 13 17 18 18 9 7 7 8 5 2 1 1 2 7 6 3 7 11 15 12 10 10 9
57 56 55 54 52 50 47 46 45 45 43 47 46 35 31 23 18 17 13 16 17 15 18 17 17 14 11 9 11 7 7 5 3 6 3 7 2 -1 8 10 10 7 7 7 7
57 56 55 54 52 49 47 45 44 42 47 47 43 37 30 24 17 21 17 9 15 19 20 19 16 12 12 14 9 6 6 7 3 5 4 5 1 1 3 9 6 7 9 7 6
57 56 55 53 51 49 45 42 40 45 45 40 37 34 28 13 22 19 26 16 13 17 18 17 12 11 12 9 5 7 4 2 2 2 2 3 4 5 3 4 7 8 5 7 7
57 56 54 52 50 46 43 34 35 38 37 35 31 28 20 24 25 17 28 25 13 12 13 11 10 9 9 9 8 9 9 5 2 1 0 3 6 3 1 -1 -2 -2 -1 1 17
57 56 53 51 48 45 40 32 30 31 35 34 30 27 25 22 20 18 17 15 15 12 13 12 13 13 9 8 11 11 6 3 3 2 5 6 4 -1 -2 -2 -2 1 4 26 31
56 55 52 49 46 42 36 27 31 28 32 33 31 28 25 21 20 14 17 14 10 12 11 9 12 9 9 9 9 6 4 4 4 5 3 -0 -1 0 2 1 2 24 28 28 29
56 53 49 46 43 37 29 30 31 33 33 27 20 16 16 18 16 16 10 16 10 8 8 6 7 7 6 8 7 3 4 4 4 3 2 6 3 5 6 4 13 25 29 31 31
54 50 46 47 40 33 36 33 35 36 21 19 13 14 16 11 11 10 9 6 5 6 8 7 5 9 6 4 7 7 7 7 6 5 5 4 2 4 6 3 18 28 29 29 29
52 48 47 40 38 35 35 34 33 29 22 18 15 16 14 10 10 10 9 10 11 7 8 10 10 9 7 7 8 8 7 8 7 6 4 6 4 3 16 26 26 27 28 28 28
51 47 47 42 38 38 38 33 31 24 18 15 14 14 13 11 10 9 10 10 9 8 9 9 9 9 11 9 9 10 10 7 6 5 4 7 4 2 24 26 26 26 27 28 28
50 47 45 43 40 41 35 33 26 19 19 12 12 12 13 13 11 11 10 8 10 10 8 10 11 9 10 12 6 5 8 7 3 2 1 -1 1 13 25 25 26 27 27 27 27
48 43 41 43 43 39 35 29 25 24 21 13 11 11 13 13 12 12 11 10 10 13 10 5 4 9 13 11 11 4 4 8 6 6 5 3 1 19 26 27 26 26 26 26 26
42 40 40 43 43 39 34 31 29 25 17 13 12 13 12 12 11 11 11 10 10 12 12 9 6 5 5 12 12 10 7 7 8 7 4 2 2 20 26 25 25 26 25 25 26
41 35 40 44 41 36 30 29 27 20 14 14 14 12 13 12 11 11 7 8 12 13 11 7 11 7 7 7 7 6 9 8 8 15 12 11 22 27 24 25 25 24 24 25 26
39 31 41 42 31 32 31 30 27 19 12 12 13 12 11 11 9 7 8 7 13 12 13 12 15 10 5 6 10 10 9 10 11 9 17 11 14 25 25 25 24 24 26 23 24
33 31 40 40 29 30 29 29 24 18 12 12 12 13 11 10 9 9 13 17 16 15 12 15 12 8 8 13 21 22 18 11 16 21 18 19 19 25 25 23 23 24 24 24 24
33 27 31 33 35 32 29 25 21 18 15 14 13 13 13 10 13 14 14 20 20 16 23 21 19 15 11 18 17 19 19 20 17 16 14 16 25 24 24 23 23 25 26 26 24
36 30 29 26 29 32 29 25 21 16 14 14 15 14 11 11 12 15 14 17 23 24 22 18 17 16 17 16 15 15 17 21 23 23 23 22 23 22 23 23 24 25 25 24 24
34 33 30 28 29 30 30 25 23 18 17 15 13 12 14 14 14 12 14 19 21 18 19 20 18 22 20 20 21 22 23 23 25 26 23 25 22 25 25 25 24 24 24 22 22
39 36 31 29 29 29 29 26 23 19 17 15 14 16 17 17 14 15 16 19 21 23 19 20 23 23 19 20 21 22 25 24 27 24 27 22 23 25 23 22 22 22 23 21 21

GFSSW_sfc_30mbdewp_123.txt.gz
Dewpoint
56 55 54 53 52 51 50 50 49 48 48 47 47 47 48 49 48 39 34 26 29 33 26 16 21 23 23 19 17 20 20 19 19 17 15 14 16 18 16 16 21 24 23 25 27
57 56 55 54 53 52 51 50 49 48 48 47 47 47 48 48 43 37 38 39 35 36 15 14 20 18 16 17 17 16 19 20 21 17 14 12 12 14 15 16 16 20 22 20 23
57 56 56 55 54 53 51 51 49 48 48 48 48 47 47 48 39 33 44 40 38 35 23 28 23 15 12 11 10 11 15 17 16 15 14 11 11 14 14 14 18 14 15 17 23
58 57 56 56 55 53 52 51 49 48 47 47 46 46 46 45 28 35 43 40 40 41 39 31 17 13 11 10 10 9 9 12 12 13 9 7 6 8 10 11 11 9 10 16 19
57 57 57 56 55 54 53 51 49 48 47 47 46 44 43 35 34 38 44 40 37 34 29 17 9 9 8 8 6 6 8 7 8 8 8 9 7 7 8 9 8 8 9 12 16
57 57 57 57 56 55 53 51 49 48 47 46 45 45 35 33 29 36 35 34 30 28 26 16 9 8 7 8 12 10 10 10 9 7 6 5 3 6 6 6 6 7 6 13 16
58 58 58 57 57 56 54 51 49 48 47 46 45 43 33 34 36 30 21 18 15 13 15 16 15 16 17 13 15 11 8 8 9 10 8 6 3 1 4 7 8 7 13 14 12
58 58 58 57 57 56 55 51 50 48 47 45 48 43 34 36 35 25 19 20 19 18 13 13 14 16 16 15 12 9 11 8 10 10 11 6 4 4 6 8 8 13 14 13 11
58 58 57 57 56 55 53 51 49 49 47 45 44 41 38 33 25 27 13 16 15 15 15 14 15 15 15 13 10 11 11 13 14 14 6 3 3 5 9 7 8 9 12 9 13
57 58 57 57 56 54 52 50 48 45 39 39 42 38 38 30 24 24 20 18 18 12 17 17 17 14 12 10 7 8 11 12 12 11 13 10 7 7 7 5 7 10 10 10 31
57 57 57 56 54 52 48 45 38 39 37 39 38 35 35 36 23 24 23 20 21 11 15 17 16 14 12 11 11 11 13 11 11 14 12 9 7 7 7 8 8 9 14 29 31
56 55 56 55 52 50 46 44 39 35 38 40 39 38 38 38 34 29 26 23 23 14 10 13 15 16 16 15 14 16 12 10 11 13 12 9 7 6 7 8 10 19 30 30 30
56 55 56 53 50 47 44 45 37 35 33 35 38 39 39 38 34 31 27 23 19 19 19 15 15 18 16 15 14 12 9 9 9 10 8 7 6 7 8 8 30 29 29 29 29
56 56 53 50 48 46 44 45 41 36 32 29 27 31 34 31 28 26 29 25 19 16 16 16 17 17 13 11 11 8 10 10 10 8 6 9 5 8 8 17 29 28 28 28 28
55 52 49 50 45 44 45 44 40 40 8 17 17 19 26 26 14 14 22 23 20 17 17 16 13 12 10 10 9 9 11 9 9 7 7 6 7 7 9 25 26 26 27 27 27
54 51 49 48 44 44 44 39 36 32 20 18 15 15 17 20 16 11 17 11 11 10 15 15 11 8 8 10 10 11 9 10 10 10 6 7 7 12 25 25 26 27 27 27 27
52 51 50 43 43 40 38 37 32 28 21 14 16 14 15 15 16 12 9 9 8 8 10 11 11 11 8 10 10 10 9 7 9 10 8 10 10 27 26 27 26 27 27 26 27
52 50 50 45 42 38 38 37 26 24 20 21 18 17 15 16 13 12 10 10 10 10 10 10 9 11 13 11 9 11 11 9 11 9 9 9 9 24 26 27 27 27 27 27 27
50 49 46 49 44 41 38 30 25 22 23 20 19 14 15 16 16 13 11 11 12 13 11 10 10 13 11 12 12 11 9 11 8 9 7 8 21 28 27 26 27 26 26 26 27
45 43 42 46 47 41 37 29 30 27 25 24 23 19 14 14 13 14 14 15 14 16 16 14 12 13 11 12 12 10 11 9 11 6 6 7 13 23 26 26 28 26 26 27 27
43 39 43 46 44 37 31 33 31 31 29 25 25 21 16 14 15 14 14 13 13 14 13 11 11 10 10 9 10 10 9 12 11 10 7 6 9 27 25 26 25 24 25 26 27
41 33 43 44 33 32 31 34 32 30 31 30 31 19 19 18 15 16 16 17 13 14 11 15 15 12 13 14 15 13 9 11 10 9 10 11 14 27 26 26 24 23 24 25 26
37 34 42 42 29 30 32 33 35 32 30 33 31 20 16 17 16 16 19 19 15 15 15 17 13 10 11 13 19 21 24 26 23 20 14 16 17 29 28 24 24 24 24 24 24
34 28 33 36 35 32 28 31 32 33 33 35 29 19 16 17 19 15 19 21 19 21 20 18 18 14 9 14 17 13 15 19 26 24 18 18 20 25 24 22 23 24 24 24 24
36 30 31 27 30 32 32 30 30 32 30 31 31 16 17 16 15 16 20 22 22 24 19 18 16 17 17 18 16 17 14 13 17 19 19 22 25 24 24 24 25 24 24 23 22
33 32 30 29 30 32 33 33 32 33 31 25 23 17 16 17 16 14 17 22 20 23 21 21 15 19 18 19 19 19 19 19 17 18 23 26 24 25 26 26 24 24 23 22 21
39 34 29 27 29 30 29 30 33 33 31 26 22 18 18 19 19 20 19 19 24 21 22 20 18 19 15 19 23 19 18 20 20 22 25 24 25 25 24 23 23 23 22 20 19

GFSSW_sfc_30mbdewp_126.txt.gz
Dewpoint
56 55 54 54 53 52 51 51 51 50 49 49 49 49 50 49 48 39 31 30 38 34 33 14 19 22 26 22 18 22 19 19 19 18 16 15 12 15 17 16 18 23 20 26 27
57 56 55 55 54 53 52 51 51 50 50 49 49 49 49 48 45 38 38 38 35 38 15 15 21 20 17 18 17 17 19 19 21 20 16 15 10 12 13 14 17 13 16 20 26
57 57 56 56 55 54 53 52 51 50 50 49 49 49 48 49 38 33 43 39 39 37 29 35 33 21 12 11 10 11 11 13 17 17 18 12 8 10 9 11 13 10 10 11 22
58 57 57 56 55 54 53 52 51 50 49 48 48 47 48 45 32 34 40 38 40 37 30 28 17 13 12 10 11 9 10 11 12 10 7 7 7 5 7 8 13 10 10 11 15
57 57 57 57 56 55 54 53 51 50 49 48 47 46 41 36 36 36 39 38 35 32 29 24 13 6 6 6 5 6 8 10 10 9 9 7 6 6 7 8 9 8 8 9 16
58 57 57 57 57 56 54 53 52 49 48 48 47 48 33 38 34 33 37 35 32 29 25 22 15 15 11 12 14 13 12 9 9 9 10 9 7 6 6 7 6 6 6 7 18
58 58 58 58 57 57 56 55 52 49 49 48 47 46 34 40 36 34 32 21 19 16 12 13 14 15 18 15 16 12 8 9 9 9 9 9 8 8 7 5 7 8 6 15 36
58 58 58 58 57 57 56 55 52 50 50 48 45 44 38 38 37 36 27 22 21 20 18 15 13 14 15 16 14 11 11 9 11 11 13 10 9 9 6 6 8 9 13 30 35
58 58 58 57 57 57 56 54 51 51 50 48 43 40 40 41 28 29 31 19 18 18 16 16 16 15 15 12 10 11 8 11 12 15 11 9 5 7 8 8 7 11 14 33 33
57 58 57 57 57 56 54 52 49 47 43 40 42 39 39 37 29 21 23 14 13 14 14 17 17 14 14 10 8 8 10 11 12 12 13 12 11 9 9 8 8 10 28 32 31
56 57 57 57 56 53 51 49 45 40 37 42 40 38 35 35 23 22 23 17 20 16 12 17 15 14 15 13 11 10 10 10 13 12 12 12 11 8 7 18 26 30 30 30 29
56 55 56 56 54 51 48 46 42 35 38 39 40 40 39 39 37 35 25 19 20 18 11 10 13 16 17 17 16 15 14 14 11 12 11 9 8 7 19 29 29 29 28 28 28
56 55 56 55 51 49 47 47 38 34 36 36 38 39 40 40 38 36 34 25 22 21 20 11 11 15 16 16 15 15 14 11 10 10 9 8 7 8 23 28 28 28 28 27 27
55 55 55 51 49 47 46 48 46 38 29 28 34 34 39 38 36 39 36 29 21 19 18 17 17 17 17 17 14 9 11 11 9 7 6 8 5 7 22 26 27 27 27 27 27
54 54 51 51 47 46 47 47 44 38 9 13 26 31 34 35 20 21 28 28 26 18 17 17 16 14 12 11 10 10 10 9 9 8 8 7 5 6 22 25 26 26 26 26 26
53 52 51 47 46 46 45 42 37 31 12 20 16 18 25 22 13 14 19 14 15 19 17 17 17 14 12 11 11 11 9 11 11 9 6 7 7 7 24 25 26 26 26 26 26
52 52 51 46 46 44 42 38 32 26 23 20 15 16 21 20 18 10 12 13 10 10 9 11 10 11 11 8 10 10 9 7 6 8 7 11 9 23 26 27 26 26 26 26 26
51 51 51 46 48 41 41 37 26 26 23 22 17 15 15 16 15 16 10 9 10 10 10 9 9 11 12 11 9 10 10 8 7 10 10 12 8 23 26 27 27 27 27 27 27
49 49 47 49 47 45 39 30 26 26 25 21 18 15 15 16 14 14 11 10 11 10 8 11 10 14 11 11 13 11 9 12 9 11 10 11 25 26 27 27 28 27 27 26 26
45 45 43 48 47 42 37 30 31 29 26 26 23 20 16 16 16 14 13 14 12 14 14 14 12 14 11 12 12 10 12 8 12 7 7 8 11 18 26 27 26 25 26 26 25
42 40 43 47 44 39 31 33 32 31 29 28 27 27 21 16 15 14 14 15 17 14 15 12 13 12 10 9 9 11 9 11 12 11 6 6 7 25 25 26 24 24 25 26 24
41 32 44 45 35 32 31 33 34 32 31 30 30 29 21 19 17 16 15 17 17 14 11 13 13 9 10 14 13 14 13 14 9 9 10 9 10 28 26 26 24 23 24 24 24
36 35 43 42 30 30 33 32 34 33 31 30 32 30 23 17 16 19 18 21 18 15 14 16 13 8 8 12 22 19 22 23 24 21 13 9 10 28 28 24 24 24 24 24 23
35 29 35 37 35 30 29 30 30 33 33 33 34 32 28 17 20 18 17 21 22 22 23 18 16 11 9 10 18 15 15 15 19 21 18 17 17 26 27 23 24 24 25 24 24
36 30 32 28 30 32 29 28 28 29 33 32 31 33 25 19 20 21 23 21 23 21 18 17 12 17 17 18 18 17 16 16 15 15 21 19 20 22 25 24 23 24 24 23 22
32 31 32 28 30 31 31 29 28 29 30 30 31 33 31 22 19 19 21 21 18 22 20 20 14 18 15 17 18 16 17 17 19 20 19 20 23 26 25 25 24 24 23 22 19
37 39 30 29 29 30 29 27 30 32 33 31 32 29 22 19 20 19 23 23 23 21 21 18 17 16 11 18 20 18 22 20 20 20 17 16 22 25 24 23 23 23 22 20 17